Wetterdaten: Sonntag, 15.01.2017
Datum Zeit Temp. A. Feuchte A. Luftdruck Regen Wind Richtung Richtung Sonnenschein ET UV Solar Taupunkt Windchill Windben Empfang
15.01.2017 00:00 -1,4 C 93 % 1015,1 hPa 0,0 l/m 15,2 km/h (3 Bft) SW 217 0 min 0,000 mm 0,0 UV-I 0 W/m -2,4 C -8,8 C 19,3 km/h (3 Bft) 100,00 %
15.01.2017 00:02 -1,4 C 93 % 1015,1 hPa 0,0 l/m 15,3 km/h (3 Bft) SW 221 0 min 0,000 mm 0,0 UV-I 0 W/m -2,4 C -8,9 C 22,5 km/h (4 Bft) 100,00 %
15.01.2017 00:04 -1,4 C 93 % 1015,0 hPa 0,0 l/m 12,1 km/h (2 Bft) W-SW 248 0 min 0,000 mm 0,0 UV-I 0 W/m -2,4 C -6,7 C 17,7 km/h (3 Bft) 100,00 %
15.01.2017 00:06 -1,5 C 93 % 1015,0 hPa 0,0 l/m 11,9 km/h (2 Bft) W 276 0 min 0,000 mm 0,0 UV-I 0 W/m -2,5 C -6,7 C 16,1 km/h (3 Bft) 98,51 %
15.01.2017 00:08 -1,5 C 93 % 1015,0 hPa 0,0 l/m 15,5 km/h (3 Bft) W-SW 243 0 min 0,000 mm 0,0 UV-I 0 W/m -2,5 C -9,1 C 25,7 km/h (4 Bft) 100,00 %
15.01.2017 00:10 -1,6 C 93 % 1015,0 hPa 0,0 l/m 12,5 km/h (3 Bft) SW 223 0 min 0,000 mm 0,0 UV-I 0 W/m -2,6 C -7,2 C 20,9 km/h (4 Bft) 98,11 %
15.01.2017 00:12 -1,7 C 93 % 1015,1 hPa 0,0 l/m 16,3 km/h (3 Bft) SW 215 0 min 0,000 mm 0,0 UV-I 0 W/m -2,7 C -9,8 C 22,5 km/h (4 Bft) 100,00 %
15.01.2017 00:14 -1,7 C 94 % 1015,0 hPa 0,0 l/m 14,8 km/h (3 Bft) SW 232 0 min 0,000 mm 0,0 UV-I 0 W/m -2,5 C -8,9 C 20,9 km/h (4 Bft) 100,00 %
15.01.2017 00:16 -1,7 C 93 % 1015,0 hPa 0,0 l/m 11,9 km/h (2 Bft) SW 215 0 min 0,000 mm 0,0 UV-I 0 W/m -2,7 C -6,9 C 19,3 km/h (3 Bft) 96,23 %
15.01.2017 00:18 -1,8 C 94 % 1015,1 hPa 0,0 l/m 12,9 km/h (3 Bft) SW 229 0 min 0,000 mm 0,0 UV-I 0 W/m -2,6 C -7,7 C 20,9 km/h (4 Bft) 100,00 %
15.01.2017 00:20 -1,8 C 94 % 1015,0 hPa 0,0 l/m 11,3 km/h (2 Bft) SW 215 0 min 0,000 mm 0,0 UV-I 0 W/m -2,6 C -6,5 C 20,9 km/h (4 Bft) 98,11 %
15.01.2017 00:22 -1,9 C 94 % 1015,0 hPa 0,0 l/m 10,9 km/h (2 Bft) S-SW 196 0 min 0,000 mm 0,0 UV-I 0 W/m -2,7 C -6,3 C 17,7 km/h (3 Bft) 97,56 %
15.01.2017 00:24 -1,9 C 94 % 1015,0 hPa 0,0 l/m 12,4 km/h (3 Bft) SW 236 0 min 0,000 mm 0,0 UV-I 0 W/m -2,7 C -7,5 C 17,7 km/h (3 Bft) 98,21 %
15.01.2017 00:26 -1,9 C 94 % 1015,0 hPa 0,0 l/m 12,1 km/h (2 Bft) SW 215 0 min 0,000 mm 0,0 UV-I 0 W/m -2,7 C -7,3 C 17,7 km/h (3 Bft) 100,00 %
15.01.2017 00:28 -2,0 C 94 % 1015,0 hPa 0,0 l/m 11,8 km/h (2 Bft) S-SW 204 0 min 0,000 mm 0,0 UV-I 0 W/m -2,8 C -7,1 C 19,3 km/h (3 Bft) 100,00 %
15.01.2017 00:30 -2,0 C 94 % 1015,0 hPa 0,0 l/m 11,6 km/h (2 Bft) SW 227 0 min 0,000 mm 0,0 UV-I 0 W/m -2,8 C -7,0 C 17,7 km/h (3 Bft) 100,00 %
15.01.2017 00:32 -2,0 C 94 % 1015,0 hPa 0,0 l/m 13,8 km/h (3 Bft) W-SW 246 0 min 0,000 mm 0,0 UV-I 0 W/m -2,8 C -8,6 C 17,7 km/h (3 Bft) 97,14 %
15.01.2017 00:34 -2,0 C 94 % 1015,0 hPa 0,0 l/m 13,8 km/h (3 Bft) W-SW 246 0 min 0,000 mm 0,0 UV-I 0 W/m -2,8 C -8,6 C 24,1 km/h (4 Bft) 100,00 %
15.01.2017 00:36 -1,9 C 94 % 1015,0 hPa 0,0 l/m 12,2 km/h (2 Bft) W-SW 240 0 min 0,000 mm 0,0 UV-I 0 W/m -2,7 C -7,3 C 20,9 km/h (4 Bft) 100,00 %
15.01.2017 00:38 -1,9 C 94 % 1015,0 hPa 0,0 l/m 12,8 km/h (3 Bft) W 263 0 min 0,000 mm 0,0 UV-I 0 W/m -2,7 C -7,8 C 22,5 km/h (4 Bft) 100,00 %
15.01.2017 00:40 -1,8 C 94 % 1015,0 hPa 0,0 l/m 11,6 km/h (2 Bft) W 259 0 min 0,000 mm 0,0 UV-I 0 W/m -2,6 C -6,8 C 19,3 km/h (3 Bft) 97,73 %
15.01.2017 00:42 -1,8 C 94 % 1015,0 hPa 0,0 l/m 11,0 km/h (2 Bft) S-SW 204 0 min 0,000 mm 0,0 UV-I 0 W/m -2,6 C -6,3 C 17,7 km/h (3 Bft) 95,45 %
15.01.2017 00:44 -1,8 C 94 % 1015,0 hPa 0,0 l/m 13,7 km/h (3 Bft) S-SW 212 0 min 0,000 mm 0,0 UV-I 0 W/m -2,6 C -8,3 C 19,3 km/h (3 Bft) 98,00 %
15.01.2017 00:46 -1,8 C 94 % 1015,1 hPa 0,0 l/m 14,5 km/h (3 Bft) SW 234 0 min 0,000 mm 0,0 UV-I 0 W/m -2,6 C -8,8 C 22,5 km/h (4 Bft) 97,87 %
15.01.2017 00:48 -1,7 C 94 % 1015,1 hPa 0,0 l/m 12,3 km/h (3 Bft) SW 229 0 min 0,000 mm 0,0 UV-I 0 W/m -2,5 C -7,2 C 19,3 km/h (3 Bft) 98,11 %
15.01.2017 00:50 -1,7 C 94 % 1015,1 hPa 0,0 l/m 13,1 km/h (3 Bft) SW 231 0 min 0,000 mm 0,0 UV-I 0 W/m -2,5 C -7,8 C 19,3 km/h (3 Bft) 97,56 %
15.01.2017 00:52 -1,7 C 94 % 1015,1 hPa 0,0 l/m 15,0 km/h (3 Bft) W-SW 242 0 min 0,000 mm 0,0 UV-I 0 W/m -2,5 C -9,0 C 20,9 km/h (4 Bft) 97,73 %
15.01.2017 00:54 -1,7 C 94 % 1015,1 hPa 0,0 l/m 13,0 km/h (3 Bft) SW 236 0 min 0,000 mm 0,0 UV-I 0 W/m -2,5 C -7,7 C 22,5 km/h (4 Bft) 97,78 %
15.01.2017 00:56 -1,7 C 94 % 1015,1 hPa 0,0 l/m 14,9 km/h (3 Bft) SW 229 0 min 0,000 mm 0,0 UV-I 0 W/m -2,5 C -9,0 C 22,5 km/h (4 Bft) 94,23 %
15.01.2017 00:58 -1,7 C 94 % 1015,1 hPa 0,0 l/m 16,4 km/h (3 Bft) S-SW 206 0 min 0,000 mm 0,0 UV-I 0 W/m -2,5 C -9,9 C 22,5 km/h (4 Bft) 94,00 %
15.01.2017 01:00 -1,7 C 93 % 1015,1 hPa 0,0 l/m 11,6 km/h (2 Bft) SW 227 0 min 0,000 mm 0,0 UV-I 0 W/m -2,7 C -6,7 C 17,7 km/h (3 Bft) 97,22 %
15.01.2017 01:01 -1,7 C 93 % 1015,1 hPa 0,0 l/m 14,4 km/h (3 Bft) W-SW 242 0 min 0,000 mm 0,0 UV-I 0 W/m -2,7 C -8,7 C 20,9 km/h (4 Bft) 98,31 %
15.01.2017 01:04 -1,7 C 93 % 1015,1 hPa 0,0 l/m 17,4 km/h (3 Bft) W-SW 244 0 min 0,000 mm 0,0 UV-I 0 W/m -2,7 C -10,5 C 24,1 km/h (4 Bft) 95,12 %
15.01.2017 01:06 -1,7 C 93 % 1015,1 hPa 0,0 l/m 14,2 km/h (3 Bft) W-SW 238 0 min 0,000 mm 0,0 UV-I 0 W/m -2,7 C -8,5 C 20,9 km/h (4 Bft) 98,11 %
15.01.2017 01:08 -1,7 C 93 % 1015,1 hPa 0,0 l/m 14,6 km/h (3 Bft) SW 236 0 min 0,000 mm 0,0 UV-I 0 W/m -2,7 C -8,8 C 20,9 km/h (4 Bft) 97,56 %
15.01.2017 01:10 -1,7 C 93 % 1015,2 hPa 0,0 l/m 15,0 km/h (3 Bft) W-SW 238 0 min 0,000 mm 0,0 UV-I 0 W/m -2,7 C -9,0 C 22,5 km/h (4 Bft) 96,00 %
15.01.2017 01:12 -1,7 C 93 % 1015,1 hPa 0,0 l/m 13,0 km/h (3 Bft) W-SW 238 0 min 0,000 mm 0,0 UV-I 0 W/m -2,7 C -7,7 C 17,7 km/h (3 Bft) 97,56 %
15.01.2017 01:14 -1,7 C 93 % 1015,1 hPa 0,0 l/m 11,6 km/h (2 Bft) SW 227 0 min 0,000 mm 0,0 UV-I 0 W/m -2,7 C -6,7 C 17,7 km/h (3 Bft) 97,87 %
15.01.2017 01:16 -1,7 C 93 % 1015,1 hPa 0,0 l/m 13,4 km/h (3 Bft) SW 228 0 min 0,000 mm 0,0 UV-I 0 W/m -2,7 C -8,0 C 20,9 km/h (4 Bft) 96,00 %
15.01.2017 01:18 -1,7 C 93 % 1015,1 hPa 0,0 l/m 12,9 km/h (3 Bft) W-SW 252 0 min 0,000 mm 0,0 UV-I 0 W/m -2,7 C -7,6 C 17,7 km/h (3 Bft) 98,11 %
15.01.2017 01:20 -1,8 C 93 % 1015,2 hPa 0,0 l/m 11,1 km/h (2 Bft) W-SW 248 0 min 0,000 mm 0,0 UV-I 0 W/m -2,8 C -6,4 C 16,1 km/h (3 Bft) 100,00 %
15.01.2017 01:22 -1,8 C 93 % 1015,1 hPa 0,0 l/m 12,2 km/h (2 Bft) SW 232 0 min 0,000 mm 0,0 UV-I 0 W/m -2,8 C -7,2 C 17,7 km/h (3 Bft) 98,11 %
15.01.2017 01:24 -1,8 C 92 % 1015,2 hPa 0,0 l/m 13,3 km/h (3 Bft) S-SW 211 0 min 0,000 mm 0,0 UV-I 0 W/m -2,9 C -8,0 C 22,5 km/h (4 Bft) 100,00 %
15.01.2017 01:26 -1,8 C 93 % 1015,2 hPa 0,0 l/m 11,8 km/h (2 Bft) SW 219 0 min 0,000 mm 0,0 UV-I 0 W/m -2,8 C -6,9 C 19,3 km/h (3 Bft) 100,00 %
15.01.2017 01:28 -1,8 C 93 % 1015,2 hPa 0,0 l/m 13,6 km/h (3 Bft) W-SW 244 0 min 0,000 mm 0,0 UV-I 0 W/m -2,8 C -8,2 C 20,9 km/h (4 Bft) 100,00 %
15.01.2017 01:30 -1,8 C 93 % 1015,2 hPa 0,0 l/m 12,9 km/h (3 Bft) SW 227 0 min 0,000 mm 0,0 UV-I 0 W/m -2,8 C -7,7 C 19,3 km/h (3 Bft) 98,00 %
15.01.2017 01:32 -1,8 C 93 % 1015,2 hPa 0,0 l/m 11,5 km/h (2 Bft) W-SW 242 0 min 0,000 mm 0,0 UV-I 0 W/m -2,8 C -6,7 C 16,1 km/h (3 Bft) 98,11 %
15.01.2017 01:34 -1,8 C 93 % 1015,2 hPa 0,0 l/m 11,8 km/h (2 Bft) SW 231 0 min 0,000 mm 0,0 UV-I 0 W/m -2,8 C -6,9 C 19,3 km/h (3 Bft) 100,00 %
15.01.2017 01:36 -1,9 C 93 % 1015,3 hPa 0,0 l/m 9,2 km/h (2 Bft) SW 218 0 min 0,000 mm 0,0 UV-I 0 W/m -2,9 C -4,8 C 12,9 km/h (3 Bft) 100,00 %
15.01.2017 01:38 -1,8 C 93 % 1015,3 hPa 0,0 l/m 11,6 km/h (2 Bft) W-SW 248 0 min 0,000 mm 0,0 UV-I 0 W/m -2,8 C -6,8 C 19,3 km/h (3 Bft) 100,00 %
15.01.2017 01:40 -1,8 C 93 % 1015,3 hPa 0,0 l/m 10,0 km/h (2 Bft) SW 234 0 min 0,000 mm 0,0 UV-I 0 W/m -2,8 C -5,4 C 16,1 km/h (3 Bft) 98,18 %
15.01.2017 01:42 -1,8 C 93 % 1015,4 hPa 0,0 l/m 13,4 km/h (3 Bft) W 259 0 min 0,000 mm 0,0 UV-I 0 W/m -2,8 C -8,1 C 22,5 km/h (4 Bft) 100,00 %
15.01.2017 01:44 -1,8 C 93 % 1015,3 hPa 0,0 l/m 13,4 km/h (3 Bft) SW 235 0 min 0,000 mm 0,0 UV-I 0 W/m -2,8 C -8,1 C 19,3 km/h (3 Bft) 98,00 %
15.01.2017 01:46 -1,8 C 93 % 1015,4 hPa 0,0 l/m 13,3 km/h (3 Bft) W 259 0 min 0,000 mm 0,0 UV-I 0 W/m -2,8 C -8,0 C 17,7 km/h (3 Bft) 100,00 %
15.01.2017 01:48 -1,8 C 93 % 1015,4 hPa 0,0 l/m 11,2 km/h (2 Bft) W-SW 250 0 min 0,000 mm 0,0 UV-I 0 W/m -2,8 C -6,4 C 19,3 km/h (3 Bft) 100,00 %
15.01.2017 01:50 -1,8 C 93 % 1015,4 hPa 0,0 l/m 11,0 km/h (2 Bft) W-SW 240 0 min 0,000 mm 0,0 UV-I 0 W/m -2,8 C -6,3 C 17,7 km/h (3 Bft) 100,00 %
15.01.2017 01:52 -1,8 C 93 % 1015,3 hPa 0,0 l/m 10,7 km/h (2 Bft) W-SW 238 0 min 0,000 mm 0,0 UV-I 0 W/m -2,8 C -6,0 C 17,7 km/h (3 Bft) 100,00 %
15.01.2017 01:54 -1,8 C 93 % 1015,4 hPa 0,0 l/m 13,6 km/h (3 Bft) W-SW 255 0 min 0,000 mm 0,0 UV-I 0 W/m -2,8 C -8,2 C 19,3 km/h (3 Bft) 100,00 %
15.01.2017 01:56 -1,8 C 93 % 1015,4 hPa 0,0 l/m 10,5 km/h (2 Bft) W-NW 285 0 min 0,000 mm 0,0 UV-I 0 W/m -2,8 C -5,9 C 16,1 km/h (3 Bft) 100,00 %
15.01.2017 01:58 -1,7 C 93 % 1015,5 hPa 0,0 l/m 12,4 km/h (3 Bft) W-SW 243 0 min 0,000 mm 0,0 UV-I 0 W/m -2,7 C -7,3 C 17,7 km/h (3 Bft) 100,00 %
15.01.2017 02:00 -1,7 C 93 % 1015,5 hPa 0,0 l/m 12,5 km/h (3 Bft) SW 221 0 min 0,000 mm 0,0 UV-I 0 W/m -2,7 C -7,3 C 17,7 km/h (3 Bft) 100,00 %
15.01.2017 02:02 -1,7 C 93 % 1015,5 hPa 0,0 l/m 14,8 km/h (3 Bft) SW 224 0 min 0,000 mm 0,0 UV-I 0 W/m -2,7 C -8,9 C 24,1 km/h (4 Bft) 100,00 %
15.01.2017 02:04 -1,7 C 93 % 1015,6 hPa 0,0 l/m 13,9 km/h (3 Bft) SW 232 0 min 0,000 mm 0,0 UV-I 0 W/m -2,7 C -8,3 C 17,7 km/h (3 Bft) 100,00 %
15.01.2017 02:06 -1,7 C 93 % 1015,6 hPa 0,0 l/m 12,3 km/h (3 Bft) W-SW 248 0 min 0,000 mm 0,0 UV-I 0 W/m -2,7 C -7,2 C 19,3 km/h (3 Bft) 98,11 %
15.01.2017 02:08 -1,6 C 93 % 1015,6 hPa 0,0 l/m 13,4 km/h (3 Bft) W-SW 250 0 min 0,000 mm 0,0 UV-I 0 W/m -2,6 C -7,9 C 17,7 km/h (3 Bft) 100,00 %
15.01.2017 02:10 -1,6 C 93 % 1015,6 hPa 0,0 l/m 14,7 km/h (3 Bft) SW 223 0 min 0,000 mm 0,0 UV-I 0 W/m -2,6 C -8,7 C 19,3 km/h (3 Bft) 100,00 %
15.01.2017 02:12 -1,6 C 93 % 1015,6 hPa 0,0 l/m 14,2 km/h (3 Bft) SW 236 0 min 0,000 mm 0,0 UV-I 0 W/m -2,6 C -8,4 C 17,7 km/h (3 Bft) 100,00 %
15.01.2017 02:14 -1,6 C 93 % 1015,7 hPa 0,0 l/m 14,4 km/h (3 Bft) W-SW 245 0 min 0,000 mm 0,0 UV-I 0 W/m -2,6 C -8,5 C 19,3 km/h (3 Bft) 97,73 %
15.01.2017 02:16 -1,5 C 93 % 1015,7 hPa 0,0 l/m 14,8 km/h (3 Bft) W-SW 244 0 min 0,000 mm 0,0 UV-I 0 W/m -2,5 C -8,7 C 19,3 km/h (3 Bft) 100,00 %
15.01.2017 02:18 -1,5 C 92 % 1015,6 hPa 0,0 l/m 8,4 km/h (2 Bft) W-SW 243 0 min 0,000 mm 0,0 UV-I 0 W/m -2,6 C -3,6 C 14,5 km/h (3 Bft) 100,00 %
15.01.2017 02:20 -1,4 C 92 % 1015,6 hPa 0,0 l/m 10,7 km/h (2 Bft) W 261 0 min 0,000 mm 0,0 UV-I 0 W/m -2,5 C -5,6 C 16,1 km/h (3 Bft) 100,00 %
15.01.2017 02:22 -1,5 C 92 % 1015,7 hPa 0,0 l/m 9,1 km/h (2 Bft) W-SW 251 0 min 0,000 mm 0,0 UV-I 0 W/m -2,6 C -4,3 C 16,1 km/h (3 Bft) 100,00 %
15.01.2017 02:24 -1,4 C 92 % 1015,6 hPa 0,0 l/m 9,7 km/h (2 Bft) SW 219 0 min 0,000 mm 0,0 UV-I 0 W/m -2,5 C -4,7 C 14,5 km/h (3 Bft) 100,00 %
15.01.2017 02:26 -1,4 C 92 % 1015,6 hPa 0,0 l/m 9,8 km/h (2 Bft) W-SW 243 0 min 0,000 mm 0,0 UV-I 0 W/m -2,5 C -4,8 C 17,7 km/h (3 Bft) 100,00 %
15.01.2017 02:28 -1,4 C 92 % 1015,6 hPa 0,0 l/m 13,0 km/h (3 Bft) SW 215 0 min 0,000 mm 0,0 UV-I 0 W/m -2,5 C -7,3 C 22,5 km/h (4 Bft) 96,43 %
15.01.2017 02:30 -1,5 C 92 % 1015,6 hPa 0,0 l/m 13,4 km/h (3 Bft) W-SW 243 0 min 0,000 mm 0,0 UV-I 0 W/m -2,6 C -7,7 C 19,3 km/h (3 Bft) 100,00 %
15.01.2017 02:32 -1,4 C 92 % 1015,6 hPa 0,0 l/m 8,2 km/h (2 Bft) SW 233 0 min 0,000 mm 0,0 UV-I 0 W/m -2,5 C -3,3 C 11,3 km/h (2 Bft) 97,37 %
15.01.2017 02:34 -1,5 C 92 % 1015,7 hPa 0,0 l/m 10,1 km/h (2 Bft) S-SW 205 0 min 0,000 mm 0,0 UV-I 0 W/m -2,6 C -5,2 C 14,5 km/h (3 Bft) 98,11 %
15.01.2017 02:36 -1,6 C 92 % 1015,7 hPa 0,0 l/m 10,6 km/h (2 Bft) SW 217 0 min 0,000 mm 0,0 UV-I 0 W/m -2,7 C -5,7 C 17,7 km/h (3 Bft) 100,00 %
15.01.2017 02:38 -1,6 C 92 % 1015,7 hPa 0,0 l/m 9,9 km/h (2 Bft) SW 229 0 min 0,000 mm 0,0 UV-I 0 W/m -2,7 C -5,1 C 16,1 km/h (3 Bft) 100,00 %
15.01.2017 02:40 -1,6 C 92 % 1015,7 hPa 0,0 l/m 10,4 km/h (2 Bft) SW 222 0 min 0,000 mm 0,0 UV-I 0 W/m -2,7 C -5,6 C 17,7 km/h (3 Bft) 100,00 %
15.01.2017 02:42 -1,6 C 92 % 1015,7 hPa 0,0 l/m 7,6 km/h (2 Bft) SW 221 0 min 0,000 mm 0,0 UV-I 0 W/m -2,7 C -2,9 C 12,9 km/h (3 Bft) 98,00 %
15.01.2017 02:44 -1,6 C 92 % 1015,8 hPa 0,0 l/m 7,4 km/h (2 Bft) SW 220 0 min 0,000 mm 0,0 UV-I 0 W/m -2,7 C -2,7 C 11,3 km/h (2 Bft) 100,00 %
15.01.2017 02:46 -1,7 C 92 % 1015,8 hPa 0,0 l/m 9,2 km/h (2 Bft) SW 217 0 min 0,000 mm 0,0 UV-I 0 W/m -2,8 C -4,6 C 14,5 km/h (3 Bft) 100,00 %
15.01.2017 02:48 -1,7 C 92 % 1015,7 hPa 0,0 l/m 6,2 km/h (2 Bft) W-SW 240 0 min 0,000 mm 0,0 UV-I 0 W/m -2,8 C -1,7 C 9,7 km/h (2 Bft) 100,00 %
15.01.2017 02:50 -1,7 C 92 % 1015,8 hPa 0,0 l/m 7,7 km/h (2 Bft) W-SW 240 0 min 0,000 mm 0,0 UV-I 0 W/m -2,8 C -3,1 C 12,9 km/h (3 Bft) 100,00 %
15.01.2017 02:52 -1,7 C 92 % 1015,7 hPa 0,0 l/m 7,7 km/h (2 Bft) S-SW 211 0 min 0,000 mm 0,0 UV-I 0 W/m -2,8 C -3,1 C 14,5 km/h (3 Bft) 100,00 %
15.01.2017 02:54 -1,7 C 92 % 1015,8 hPa 0,0 l/m 6,2 km/h (2 Bft) SW 215 0 min 0,000 mm 0,0 UV-I 0 W/m -2,8 C -1,7 C 9,7 km/h (2 Bft) 98,11 %
15.01.2017 02:56 -1,7 C 92 % 1015,8 hPa 0,0 l/m 9,3 km/h (2 Bft) SW 234 0 min 0,000 mm 0,0 UV-I 0 W/m -2,8 C -4,7 C 16,1 km/h (3 Bft) 97,37 %
15.01.2017 02:58 -1,7 C 92 % 1015,7 hPa 0,0 l/m 7,8 km/h (2 Bft) S-SW 212 0 min 0,000 mm 0,0 UV-I 0 W/m -2,8 C -3,2 C 12,9 km/h (3 Bft) 94,00 %
15.01.2017 03:00 -1,8 C 92 % 1015,7 hPa 0,0 l/m 10,1 km/h (2 Bft) SW 234 0 min 0,000 mm 0,0 UV-I 0 W/m -2,9 C -5,5 C 14,5 km/h (3 Bft) 100,00 %
15.01.2017 03:02 -1,8 C 92 % 1015,7 hPa 0,0 l/m 9,7 km/h (2 Bft) S-SW 210 0 min 0,000 mm 0,0 UV-I 0 W/m -2,9 C -5,2 C 16,1 km/h (3 Bft) 93,10 %
15.01.2017 03:04 -1,8 C 92 % 1015,6 hPa 0,0 l/m 10,3 km/h (2 Bft) SW 225 0 min 0,000 mm 0,0 UV-I 0 W/m -2,9 C -5,7 C 17,7 km/h (3 Bft) 97,62 %
15.01.2017 03:06 -1,8 C 92 % 1015,7 hPa 0,0 l/m 9,1 km/h (2 Bft) SW 217 0 min 0,000 mm 0,0 UV-I 0 W/m -2,9 C -4,6 C 16,1 km/h (3 Bft) 96,23 %
15.01.2017 03:08 -1,9 C 92 % 1015,7 hPa 0,0 l/m 8,1 km/h (2 Bft) W-SW 246 0 min 0,000 mm 0,0 UV-I 0 W/m -3,0 C -3,7 C 12,9 km/h (3 Bft) 97,37 %
15.01.2017 03:10 -1,9 C 92 % 1015,7 hPa 0,0 l/m 11,7 km/h (2 Bft) SW 222 0 min 0,000 mm 0,0 UV-I 0 W/m -3,0 C -7,0 C 17,7 km/h (3 Bft) 98,00 %
15.01.2017 03:12 -2,0 C 92 % 1015,7 hPa 0,0 l/m 9,9 km/h (2 Bft) S-SW 193 0 min 0,000 mm 0,0 UV-I 0 W/m -3,1 C -5,6 C 16,1 km/h (3 Bft) 98,11 %
15.01.2017 03:14 -2,1 C 92 % 1015,6 hPa 0,0 l/m 8,5 km/h (2 Bft) SW 229 0 min 0,000 mm 0,0 UV-I 0 W/m -3,2 C -4,4 C 14,5 km/h (3 Bft) 97,37 %
15.01.2017 03:16 -2,1 C 92 % 1015,7 hPa 0,0 l/m 9,1 km/h (2 Bft) SW 228 0 min 0,000 mm 0,0 UV-I 0 W/m -3,2 C -4,9 C 14,5 km/h (3 Bft) 94,64 %
15.01.2017 03:18 -2,2 C 92 % 1015,7 hPa 0,0 l/m 9,3 km/h (2 Bft) S-SW 213 0 min 0,000 mm 0,0 UV-I 0 W/m -3,3 C -5,2 C 12,9 km/h (3 Bft) 97,56 %
15.01.2017 03:20 -2,2 C 92 % 1015,7 hPa 0,0 l/m 7,8 km/h (2 Bft) SW 215 0 min 0,000 mm 0,0 UV-I 0 W/m -3,3 C -3,7 C 11,3 km/h (2 Bft) 97,56 %
15.01.2017 03:22 -2,2 C 92 % 1015,7 hPa 0,0 l/m 8,7 km/h (2 Bft) S-SW 202 0 min 0,000 mm 0,0 UV-I 0 W/m -3,3 C -4,7 C 14,5 km/h (3 Bft) 98,31 %
15.01.2017 03:24 -2,2 C 92 % 1015,7 hPa 0,0 l/m 7,2 km/h (2 Bft) S-SW 192 0 min 0,000 mm 0,0 UV-I 0 W/m -3,3 C -3,1 C 11,3 km/h (2 Bft) 97,87 %
15.01.2017 03:26 -2,3 C 92 % 1015,7 hPa 0,0 l/m 10,4 km/h (2 Bft) S-SW 203 0 min 0,000 mm 0,0 UV-I 0 W/m -3,4 C -6,3 C 16,1 km/h (3 Bft) 97,37 %
15.01.2017 03:28 -2,3 C 92 % 1015,7 hPa 0,0 l/m 8,2 km/h (2 Bft) S-SW 211 0 min 0,000 mm 0,0 UV-I 0 W/m -3,4 C -4,3 C 12,9 km/h (3 Bft) 97,56 %
15.01.2017 03:30 -2,3 C 92 % 1015,7 hPa 0,0 l/m 9,1 km/h (2 Bft) SW 225 0 min 0,000 mm 0,0 UV-I 0 W/m -3,4 C -5,2 C 14,5 km/h (3 Bft) 98,11 %
15.01.2017 03:32 -2,3 C 92 % 1015,7 hPa 0,0 l/m 7,8 km/h (2 Bft) S-SW 205 0 min 0,000 mm 0,0 UV-I 0 W/m -3,4 C -3,8 C 16,1 km/h (3 Bft) 97,44 %
15.01.2017 03:34 -2,3 C 92 % 1015,6 hPa 0,0 l/m 8,6 km/h (2 Bft) S-SW 211 0 min 0,000 mm 0,0 UV-I 0 W/m -3,4 C -4,7 C 14,5 km/h (3 Bft) 98,28 %
15.01.2017 03:36 -2,2 C 92 % 1015,6 hPa 0,0 l/m 10,3 km/h (2 Bft) S-SW 209 0 min 0,000 mm 0,0 UV-I 0 W/m -3,3 C -6,1 C 12,9 km/h (3 Bft) 97,62 %
15.01.2017 03:38 -2,2 C 92 % 1015,6 hPa 0,0 l/m 10,4 km/h (2 Bft) S 191 0 min 0,000 mm 0,0 UV-I 0 W/m -3,3 C -6,2 C 16,1 km/h (3 Bft) 100,00 %
15.01.2017 03:40 -2,3 C 92 % 1015,6 hPa 0,0 l/m 10,7 km/h (2 Bft) SW 219 0 min 0,000 mm 0,0 UV-I 0 W/m -3,4 C -6,6 C 17,7 km/h (3 Bft) 97,44 %
15.01.2017 03:42 -2,3 C 91 % 1015,6 hPa 0,0 l/m 10,9 km/h (2 Bft) SW 233 0 min 0,000 mm 0,0 UV-I 0 W/m -3,6 C -6,8 C 17,7 km/h (3 Bft) 96,43 %
15.01.2017 03:44 -2,3 C 91 % 1015,7 hPa 0,0 l/m 9,7 km/h (2 Bft) S-SW 213 0 min 0,000 mm 0,0 UV-I 0 W/m -3,6 C -5,7 C 16,1 km/h (3 Bft) 100,00 %
15.01.2017 03:46 -2,3 C 91 % 1015,6 hPa 0,0 l/m 8,8 km/h (2 Bft) S-SW 202 0 min 0,000 mm 0,0 UV-I 0 W/m -3,6 C -4,9 C 16,1 km/h (3 Bft) 97,87 %
15.01.2017 03:48 -2,3 C 91 % 1015,6 hPa 0,0 l/m 8,5 km/h (2 Bft) W-SW 238 0 min 0,000 mm 0,0 UV-I 0 W/m -3,6 C -4,6 C 14,5 km/h (3 Bft) 98,00 %
15.01.2017 03:50 -2,4 C 91 % 1015,6 hPa 0,0 l/m 9,4 km/h (2 Bft) SW 227 0 min 0,000 mm 0,0 UV-I 0 W/m -3,7 C -5,6 C 12,9 km/h (3 Bft) 100,00 %
15.01.2017 03:52 -2,4 C 91 % 1015,7 hPa 0,0 l/m 8,8 km/h (2 Bft) S-SW 207 0 min 0,000 mm 0,0 UV-I 0 W/m -3,7 C -5,0 C 12,9 km/h (3 Bft) 98,00 %
15.01.2017 03:54 -2,4 C 91 % 1015,7 hPa 0,0 l/m 7,6 km/h (2 Bft) W-SW 244 0 min 0,000 mm 0,0 UV-I 0 W/m -3,7 C -3,7 C 11,3 km/h (2 Bft) 97,73 %
15.01.2017 03:56 -2,4 C 91 % 1015,7 hPa 0,0 l/m 9,1 km/h (2 Bft) W-SW 238 0 min 0,000 mm 0,0 UV-I 0 W/m -3,7 C -5,3 C 14,5 km/h (3 Bft) 100,00 %
15.01.2017 03:58 -2,4 C 91 % 1015,7 hPa 0,0 l/m 8,7 km/h (2 Bft) S-SW 211 0 min 0,000 mm 0,0 UV-I 0 W/m -3,7 C -4,9 C 14,5 km/h (3 Bft) 100,00 %
15.01.2017 04:00 -2,4 C 91 % 1015,7 hPa 0,0 l/m 8,5 km/h (2 Bft) SW 217 0 min 0,000 mm 0,0 UV-I 0 W/m -3,7 C -4,7 C 11,3 km/h (2 Bft) 100,00 %
15.01.2017 04:02 -2,3 C 91 % 1015,7 hPa 0,0 l/m 10,8 km/h (2 Bft) W 260 0 min 0,000 mm 0,0 UV-I 0 W/m -3,6 C -6,7 C 16,1 km/h (3 Bft) 100,00 %
15.01.2017 04:04 -2,3 C 91 % 1015,7 hPa 0,0 l/m 11,0 km/h (2 Bft) SW 236 0 min 0,000 mm 0,0 UV-I 0 W/m -3,6 C -6,8 C 19,3 km/h (3 Bft) 100,00 %
15.01.2017 04:06 -2,3 C 91 % 1015,7 hPa 0,0 l/m 10,1 km/h (2 Bft) SW 225 0 min 0,000 mm 0,0 UV-I 0 W/m -3,6 C -6,1 C 17,7 km/h (3 Bft) 100,00 %
15.01.2017 04:08 -2,3 C 90 % 1015,7 hPa 0,0 l/m 11,2 km/h (2 Bft) SW 225 0 min 0,000 mm 0,0 UV-I 0 W/m -3,7 C -7,0 C 16,1 km/h (3 Bft) 100,00 %
15.01.2017 04:10 -2,2 C 90 % 1015,7 hPa 0,0 l/m 14,7 km/h (3 Bft) S-SW 209 0 min 0,000 mm 0,0 UV-I 0 W/m -3,6 C -9,5 C 20,9 km/h (4 Bft) 100,00 %
15.01.2017 04:12 -2,2 C 90 % 1015,7 hPa 0,0 l/m 13,8 km/h (3 Bft) SW 225 0 min 0,000 mm 0,0 UV-I 0 W/m -3,6 C -8,8 C 19,3 km/h (3 Bft) 100,00 %
15.01.2017 04:14 -2,2 C 90 % 1015,6 hPa 0,0 l/m 15,8 km/h (3 Bft) SW 229 0 min 0,000 mm 0,0 UV-I 0 W/m -3,6 C -10,2 C 22,5 km/h (4 Bft) 97,87 %
15.01.2017 04:16 -2,2 C 89 % 1015,6 hPa 0,0 l/m 13,6 km/h (3 Bft) SW 220 0 min 0,000 mm 0,0 UV-I 0 W/m -3,8 C -8,7 C 22,5 km/h (4 Bft) 100,00 %
15.01.2017 04:18 -2,2 C 90 % 1015,6 hPa 0,0 l/m 16,5 km/h (3 Bft) W-SW 253 0 min 0,000 mm 0,0 UV-I 0 W/m -3,6 C -10,6 C 24,1 km/h (4 Bft) 100,00 %
15.01.2017 04:20 -2,1 C 89 % 1015,6 hPa 0,0 l/m 13,8 km/h (3 Bft) W-SW 239 0 min 0,000 mm 0,0 UV-I 0 W/m -3,7 C -8,7 C 17,7 km/h (3 Bft) 100,00 %
15.01.2017 04:22 -2,1 C 89 % 1015,6 hPa 0,0 l/m 11,3 km/h (2 Bft) W-SW 239 0 min 0,000 mm 0,0 UV-I 0 W/m -3,7 C -6,9 C 17,7 km/h (3 Bft) 97,56 %
15.01.2017 04:24 -2,1 C 89 % 1015,6 hPa 0,0 l/m 16,0 km/h (3 Bft) SW 229 0 min 0,000 mm 0,0 UV-I 0 W/m -3,7 C -10,1 C 24,1 km/h (4 Bft) 100,00 %
15.01.2017 04:26 -2,1 C 89 % 1015,6 hPa 0,0 l/m 15,2 km/h (3 Bft) SW 236 0 min 0,000 mm 0,0 UV-I 0 W/m -3,7 C -9,7 C 22,5 km/h (4 Bft) 97,87 %
15.01.2017 04:28 -2,1 C 89 % 1015,6 hPa 0,0 l/m 15,3 km/h (3 Bft) S-SW 194 0 min 0,000 mm 0,0 UV-I 0 W/m -3,7 C -9,7 C 20,9 km/h (4 Bft) 100,00 %
15.01.2017 04:30 -2,1 C 88 % 1015,6 hPa 0,0 l/m 15,0 km/h (3 Bft) SW 228 0 min 0,000 mm 0,0 UV-I 0 W/m -3,8 C -9,5 C 20,9 km/h (4 Bft) 98,00 %
15.01.2017 04:32 -2,1 C 88 % 1015,6 hPa 0,0 l/m 12,5 km/h (3 Bft) SW 225 0 min 0,000 mm 0,0 UV-I 0 W/m -3,8 C -7,8 C 19,3 km/h (3 Bft) 100,00 %
15.01.2017 04:34 -2,2 C 88 % 1015,6 hPa 0,0 l/m 14,6 km/h (3 Bft) SW 236 0 min 0,000 mm 0,0 UV-I 0 W/m -3,9 C -9,4 C 20,9 km/h (4 Bft) 100,00 %
15.01.2017 04:36 -2,2 C 88 % 1015,6 hPa 0,0 l/m 14,9 km/h (3 Bft) SW 232 0 min 0,000 mm 0,0 UV-I 0 W/m -3,9 C -9,6 C 22,5 km/h (4 Bft) 100,00 %
15.01.2017 04:38 -2,2 C 88 % 1015,6 hPa 0,0 l/m 15,6 km/h (3 Bft) W-SW 238 0 min 0,000 mm 0,0 UV-I 0 W/m -3,9 C -10,0 C 22,5 km/h (4 Bft) 100,00 %
15.01.2017 04:40 -2,2 C 88 % 1015,6 hPa 0,0 l/m 14,2 km/h (3 Bft) SW 236 0 min 0,000 mm 0,0 UV-I 0 W/m -3,9 C -9,1 C 19,3 km/h (3 Bft) 100,00 %
15.01.2017 04:42 -2,2 C 88 % 1015,6 hPa 0,0 l/m 13,1 km/h (3 Bft) W-SW 238 0 min 0,000 mm 0,0 UV-I 0 W/m -3,9 C -8,4 C 17,7 km/h (3 Bft) 100,00 %
15.01.2017 04:44 -2,3 C 88 % 1015,6 hPa 0,0 l/m 14,3 km/h (3 Bft) W-SW 243 0 min 0,000 mm 0,0 UV-I 0 W/m -4,0 C -9,3 C 20,9 km/h (4 Bft) 97,87 %
15.01.2017 04:46 -2,2 C 88 % 1015,6 hPa 0,0 l/m 14,8 km/h (3 Bft) W-SW 238 0 min 0,000 mm 0,0 UV-I 0 W/m -3,9 C -9,5 C 22,5 km/h (4 Bft) 100,00 %
15.01.2017 04:48 -2,2 C 88 % 1015,6 hPa 0,0 l/m 15,8 km/h (3 Bft) W-SW 239 0 min 0,000 mm 0,0 UV-I 0 W/m -3,9 C -10,2 C 22,5 km/h (4 Bft) 100,00 %
15.01.2017 04:50 -2,2 C 88 % 1015,6 hPa 0,0 l/m 16,1 km/h (3 Bft) W-SW 252 0 min 0,000 mm 0,0 UV-I 0 W/m -3,9 C -10,3 C 22,5 km/h (4 Bft) 98,11 %
15.01.2017 04:52 -2,2 C 88 % 1015,6 hPa 0,0 l/m 13,6 km/h (3 Bft) W 263 0 min 0,000 mm 0,0 UV-I 0 W/m -3,9 C -8,7 C 20,9 km/h (4 Bft) 100,00 %
15.01.2017 04:54 -2,2 C 88 % 1015,6 hPa 0,0 l/m 12,4 km/h (3 Bft) S-SW 212 0 min 0,000 mm 0,0 UV-I 0 W/m -3,9 C -7,8 C 19,3 km/h (3 Bft) 100,00 %
15.01.2017 04:56 -2,2 C 88 % 1015,6 hPa 0,0 l/m 13,1 km/h (3 Bft) W-SW 248 0 min 0,000 mm 0,0 UV-I 0 W/m -3,9 C -8,4 C 19,3 km/h (3 Bft) 100,00 %
15.01.2017 04:58 -2,1 C 88 % 1015,7 hPa 0,0 l/m 15,0 km/h (3 Bft) W-SW 246 0 min 0,000 mm 0,0 UV-I 0 W/m -3,8 C -9,5 C 22,5 km/h (4 Bft) 100,00 %
15.01.2017 05:00 -2,1 C 88 % 1015,6 hPa 0,0 l/m 13,2 km/h (3 Bft) SW 231 0 min 0,000 mm 0,0 UV-I 0 W/m -3,8 C -8,3 C 19,3 km/h (3 Bft) 100,00 %
15.01.2017 05:02 -2,1 C 88 % 1015,6 hPa 0,0 l/m 14,7 km/h (3 Bft) SW 221 0 min 0,000 mm 0,0 UV-I 0 W/m -3,8 C -9,3 C 24,1 km/h (4 Bft) 97,44 %
15.01.2017 05:04 -2,0 C 88 % 1015,7 hPa 0,0 l/m 17,7 km/h (3 Bft) W-SW 240 0 min 0,000 mm 0,0 UV-I 0 W/m -3,7 C -11,0 C 27,4 km/h (4 Bft) 100,00 %
15.01.2017 05:06 -1,9 C 88 % 1015,7 hPa 0,0 l/m 17,1 km/h (3 Bft) W-SW 241 0 min 0,000 mm 0,0 UV-I 0 W/m -3,6 C -10,5 C 30,6 km/h (5 Bft) 100,00 %
15.01.2017 05:08 -1,9 C 88 % 1015,7 hPa 0,0 l/m 18,6 km/h (3 Bft) SW 223 0 min 0,000 mm 0,0 UV-I 0 W/m -3,6 C -11,4 C 25,7 km/h (4 Bft) 100,00 %
15.01.2017 05:10 -1,9 C 88 % 1015,7 hPa 0,0 l/m 17,7 km/h (3 Bft) W-SW 247 0 min 0,000 mm 0,0 UV-I 0 W/m -3,6 C -10,9 C 27,4 km/h (4 Bft) 100,00 %
15.01.2017 05:12 -1,8 C 88 % 1015,7 hPa 0,0 l/m 15,8 km/h (3 Bft) W-SW 254 0 min 0,000 mm 0,0 UV-I 0 W/m -3,5 C -9,7 C 25,7 km/h (4 Bft) 100,00 %
15.01.2017 05:14 -1,8 C 88 % 1015,7 hPa 0,0 l/m 17,5 km/h (3 Bft) SW 230 0 min 0,000 mm 0,0 UV-I 0 W/m -3,5 C -10,6 C 30,6 km/h (5 Bft) 100,00 %
15.01.2017 05:16 -1,8 C 88 % 1015,7 hPa 0,0 l/m 15,9 km/h (3 Bft) S-SW 207 0 min 0,000 mm 0,0 UV-I 0 W/m -3,5 C -9,7 C 22,5 km/h (4 Bft) 98,21 %
15.01.2017 05:18 -1,7 C 88 % 1015,7 hPa 0,0 l/m 16,8 km/h (3 Bft) W-SW 247 0 min 0,000 mm 0,0 UV-I 0 W/m -3,4 C -10,1 C 25,7 km/h (4 Bft) 95,12 %
15.01.2017 05:20 -1,7 C 88 % 1015,8 hPa 0,0 l/m 20,7 km/h (4 Bft) SW 227 0 min 0,000 mm 0,0 UV-I 0 W/m -3,4 C -12,2 C 27,4 km/h (4 Bft) 97,73 %
15.01.2017 05:22 -1,7 C 88 % 1015,7 hPa 0,0 l/m 19,5 km/h (3 Bft) W-SW 246 0 min 0,000 mm 0,0 UV-I 0 W/m -3,4 C -11,6 C 24,1 km/h (4 Bft) 96,23 %
15.01.2017 05:24 -1,7 C 88 % 1015,8 hPa 0,0 l/m 18,1 km/h (3 Bft) W-SW 258 0 min 0,000 mm 0,0 UV-I 0 W/m -3,4 C -10,9 C 25,7 km/h (4 Bft) 98,00 %
15.01.2017 05:26 -1,6 C 88 % 1015,8 hPa 0,0 l/m 14,7 km/h (3 Bft) SW 227 0 min 0,000 mm 0,0 UV-I 0 W/m -3,3 C -8,7 C 20,9 km/h (4 Bft) 97,14 %
15.01.2017 05:28 -1,6 C 88 % 1015,8 hPa 0,0 l/m 15,4 km/h (3 Bft) SW 214 0 min 0,000 mm 0,0 UV-I 0 W/m -3,3 C -9,2 C 24,1 km/h (4 Bft) 98,21 %
15.01.2017 05:30 -1,6 C 88 % 1015,9 hPa 0,0 l/m 15,9 km/h (3 Bft) SW 234 0 min 0,000 mm 0,0 UV-I 0 W/m -3,3 C -9,5 C 22,5 km/h (4 Bft) 97,37 %
15.01.2017 05:32 -1,6 C 88 % 1015,8 hPa 0,0 l/m 18,5 km/h (3 Bft) W-SW 239 0 min 0,000 mm 0,0 UV-I 0 W/m -3,3 C -10,9 C 27,4 km/h (4 Bft) 96,67 %
15.01.2017 05:34 -1,6 C 88 % 1015,8 hPa 0,0 l/m 18,1 km/h (3 Bft) W-SW 245 0 min 0,000 mm 0,0 UV-I 0 W/m -3,3 C -10,7 C 24,1 km/h (4 Bft) 97,26 %
15.01.2017 05:36 -1,6 C 88 % 1015,9 hPa 0,0 l/m 15,0 km/h (3 Bft) W-SW 257 0 min 0,000 mm 0,0 UV-I 0 W/m -3,3 C -8,9 C 25,7 km/h (4 Bft) 97,73 %
15.01.2017 05:38 -1,6 C 88 % 1015,9 hPa 0,0 l/m 18,3 km/h (3 Bft) W-SW 242 0 min 0,000 mm 0,0 UV-I 0 W/m -3,3 C -10,8 C 25,7 km/h (4 Bft) 95,74 %
15.01.2017 05:40 -1,6 C 88 % 1015,9 hPa 0,0 l/m 17,4 km/h (3 Bft) W-SW 254 0 min 0,000 mm 0,0 UV-I 0 W/m -3,3 C -10,3 C 25,7 km/h (4 Bft) 96,08 %
15.01.2017 05:42 -1,6 C 88 % 1015,9 hPa 0,0 l/m 16,8 km/h (3 Bft) W-SW 247 0 min 0,000 mm 0,0 UV-I 0 W/m -3,3 C -10,0 C 27,4 km/h (4 Bft) 97,14 %
15.01.2017 05:44 -1,6 C 88 % 1015,9 hPa 0,0 l/m 15,4 km/h (3 Bft) W 263 0 min 0,000 mm 0,0 UV-I 0 W/m -3,3 C -9,2 C 25,7 km/h (4 Bft) 98,21 %
15.01.2017 05:46 -1,6 C 88 % 1015,9 hPa 0,0 l/m 17,4 km/h (3 Bft) W-SW 242 0 min 0,000 mm 0,0 UV-I 0 W/m -3,3 C -10,3 C 25,7 km/h (4 Bft) 97,56 %
15.01.2017 05:48 -1,6 C 88 % 1015,9 hPa 0,0 l/m 16,3 km/h (3 Bft) SW 223 0 min 0,000 mm 0,0 UV-I 0 W/m -3,3 C -9,7 C 24,1 km/h (4 Bft) 97,73 %
15.01.2017 05:50 -1,6 C 88 % 1015,9 hPa 0,0 l/m 20,4 km/h (4 Bft) SW 228 0 min 0,000 mm 0,0 UV-I 0 W/m -3,3 C -11,9 C 29,0 km/h (5 Bft) 96,43 %
15.01.2017 05:52 -1,6 C 88 % 1016,0 hPa 0,0 l/m 17,8 km/h (3 Bft) W-SW 249 0 min 0,000 mm 0,0 UV-I 0 W/m -3,3 C -10,6 C 29,0 km/h (5 Bft) 97,56 %
15.01.2017 05:54 -1,6 C 88 % 1016,0 hPa 0,0 l/m 16,0 km/h (3 Bft) W-SW 248 0 min 0,000 mm 0,0 UV-I 0 W/m -3,3 C -9,5 C 29,0 km/h (5 Bft) 98,00 %
15.01.2017 05:56 -1,6 C 88 % 1016,1 hPa 0,0 l/m 18,6 km/h (3 Bft) SW 224 0 min 0,000 mm 0,0 UV-I 0 W/m -3,3 C -11,0 C 25,7 km/h (4 Bft) 100,00 %
15.01.2017 05:58 -1,6 C 88 % 1016,1 hPa 0,0 l/m 18,4 km/h (3 Bft) SW 233 0 min 0,000 mm 0,0 UV-I 0 W/m -3,3 C -10,9 C 25,7 km/h (4 Bft) 97,73 %
15.01.2017 06:00 -1,6 C 89 % 1016,1 hPa 0,0 l/m 20,3 km/h (4 Bft) SW 230 0 min 0,025 mm 0,0 UV-I 0 W/m -3,2 C -11,8 C 32,2 km/h (5 Bft) 97,56 %
15.01.2017 06:02 -1,6 C 89 % 1016,1 hPa 0,0 l/m 21,1 km/h (4 Bft) W-SW 255 0 min 0,000 mm 0,0 UV-I 0 W/m -3,2 C -12,2 C 27,4 km/h (4 Bft) 98,21 %
15.01.2017 06:04 -1,6 C 89 % 1016,1 hPa 0,0 l/m 18,6 km/h (3 Bft) W-SW 247 0 min 0,000 mm 0,0 UV-I 0 W/m -3,2 C -11,0 C 25,7 km/h (4 Bft) 100,00 %
15.01.2017 06:06 -1,6 C 89 % 1016,1 hPa 0,0 l/m 18,3 km/h (3 Bft) SW 232 0 min 0,000 mm 0,0 UV-I 0 W/m -3,2 C -10,8 C 24,1 km/h (4 Bft) 98,11 %
15.01.2017 06:08 -1,7 C 89 % 1016,1 hPa 0,0 l/m 19,5 km/h (3 Bft) SW 223 0 min 0,000 mm 0,0 UV-I 0 W/m -3,3 C -11,6 C 27,4 km/h (4 Bft) 96,00 %
15.01.2017 06:10 -1,7 C 89 % 1016,1 hPa 0,0 l/m 16,0 km/h (3 Bft) W-SW 241 0 min 0,000 mm 0,0 UV-I 0 W/m -3,3 C -9,7 C 24,1 km/h (4 Bft) 95,74 %
15.01.2017 06:12 -1,7 C 89 % 1016,1 hPa 0,0 l/m 15,1 km/h (3 Bft) SW 229 0 min 0,000 mm 0,0 UV-I 0 W/m -3,3 C -9,1 C 25,7 km/h (4 Bft) 100,00 %
15.01.2017 06:14 -1,7 C 89 % 1016,1 hPa 0,0 l/m 18,0 km/h (3 Bft) W-SW 247 0 min 0,000 mm 0,0 UV-I 0 W/m -3,3 C -10,8 C 32,2 km/h (5 Bft) 97,56 %
15.01.2017 06:16 -1,8 C 89 % 1016,1 hPa 0,0 l/m 15,7 km/h (3 Bft) W-SW 241 0 min 0,000 mm 0,0 UV-I 0 W/m -3,4 C -9,6 C 22,5 km/h (4 Bft) 100,00 %
15.01.2017 06:18 -1,8 C 89 % 1016,1 hPa 0,0 l/m 15,3 km/h (3 Bft) W-SW 243 0 min 0,000 mm 0,0 UV-I 0 W/m -3,4 C -9,4 C 20,9 km/h (4 Bft) 100,00 %
15.01.2017 06:20 -1,8 C 89 % 1016,1 hPa 0,0 l/m 14,8 km/h (3 Bft) W-SW 240 0 min 0,000 mm 0,0 UV-I 0 W/m -3,4 C -9,0 C 22,5 km/h (4 Bft) 100,00 %
15.01.2017 06:22 -1,8 C 89 % 1016,2 hPa 0,0 l/m 14,9 km/h (3 Bft) W 270 0 min 0,000 mm 0,0 UV-I 0 W/m -3,4 C -9,1 C 25,7 km/h (4 Bft) 100,00 %
15.01.2017 06:24 -1,8 C 90 % 1016,2 hPa 0,0 l/m 16,2 km/h (3 Bft) W-SW 239 0 min 0,000 mm 0,0 UV-I 0 W/m -3,2 C -9,9 C 24,1 km/h (4 Bft) 100,00 %
15.01.2017 06:26 -1,8 C 90 % 1016,2 hPa 0,0 l/m 16,7 km/h (3 Bft) W-SW 254 0 min 0,000 mm 0,0 UV-I 0 W/m -3,2 C -10,2 C 22,5 km/h (4 Bft) 100,00 %
15.01.2017 06:28 -1,8 C 90 % 1016,2 hPa 0,0 l/m 15,9 km/h (3 Bft) SW 234 0 min 0,000 mm 0,0 UV-I 0 W/m -3,2 C -9,7 C 24,1 km/h (4 Bft) 100,00 %
15.01.2017 06:30 -1,8 C 90 % 1016,2 hPa 0,0 l/m 17,2 km/h (3 Bft) SW 232 0 min 0,000 mm 0,0 UV-I 0 W/m -3,2 C -10,5 C 27,4 km/h (4 Bft) 100,00 %
15.01.2017 06:32 -1,8 C 90 % 1016,2 hPa 0,0 l/m 16,9 km/h (3 Bft) W-SW 254 0 min 0,000 mm 0,0 UV-I 0 W/m -3,2 C -10,3 C 24,1 km/h (4 Bft) 100,00 %
15.01.2017 06:34 -1,8 C 90 % 1016,2 hPa 0,0 l/m 21,3 km/h (4 Bft) W-SW 246 0 min 0,000 mm 0,0 UV-I 0 W/m -3,2 C -12,6 C 29,0 km/h (5 Bft) 100,00 %
15.01.2017 06:36 -1,8 C 90 % 1016,3 hPa 0,0 l/m 16,4 km/h (3 Bft) SW 214 0 min 0,000 mm 0,0 UV-I 0 W/m -3,2 C -10,0 C 25,7 km/h (4 Bft) 98,11 %
15.01.2017 06:38 -1,8 C 90 % 1016,4 hPa 0,0 l/m 16,5 km/h (3 Bft) SW 225 0 min 0,000 mm 0,0 UV-I 0 W/m -3,2 C -10,1 C 24,1 km/h (4 Bft) 100,00 %
15.01.2017 06:40 -1,8 C 90 % 1016,5 hPa 0,0 l/m 17,0 km/h (3 Bft) W-SW 244 0 min 0,000 mm 0,0 UV-I 0 W/m -3,2 C -10,4 C 27,4 km/h (4 Bft) 100,00 %
15.01.2017 06:42 -1,7 C 91 % 1016,4 hPa 0,0 l/m 20,4 km/h (4 Bft) SW 234 0 min 0,000 mm 0,0 UV-I 0 W/m -3,0 C -12,0 C 27,4 km/h (4 Bft) 97,56 %
15.01.2017 06:44 -1,7 C 91 % 1016,4 hPa 0,0 l/m 16,4 km/h (3 Bft) SW 229 0 min 0,000 mm 0,0 UV-I 0 W/m -3,0 C -9,9 C 24,1 km/h (4 Bft) 100,00 %
15.01.2017 06:46 -1,7 C 91 % 1016,4 hPa 0,0 l/m 15,6 km/h (3 Bft) SW 225 0 min 0,000 mm 0,0 UV-I 0 W/m -3,0 C -9,4 C 24,1 km/h (4 Bft) 97,56 %
15.01.2017 06:48 -1,7 C 91 % 1016,5 hPa 0,0 l/m 20,4 km/h (4 Bft) SW 217 0 min 0,000 mm 0,0 UV-I 0 W/m -3,0 C -12,0 C 30,6 km/h (5 Bft) 100,00 %
15.01.2017 06:50 -1,7 C 91 % 1016,5 hPa 0,0 l/m 15,0 km/h (3 Bft) W-SW 248 0 min 0,000 mm 0,0 UV-I 0 W/m -3,0 C -9,0 C 22,5 km/h (4 Bft) 100,00 %
15.01.2017 06:52 -1,7 C 91 % 1016,5 hPa 0,0 l/m 15,1 km/h (3 Bft) SW 221 0 min 0,000 mm 0,0 UV-I 0 W/m -3,0 C -9,1 C 22,5 km/h (4 Bft) 100,00 %
15.01.2017 06:54 -1,7 C 91 % 1016,5 hPa 0,0 l/m 19,5 km/h (3 Bft) W-SW 245 0 min 0,000 mm 0,0 UV-I 0 W/m -3,0 C -11,6 C 25,7 km/h (4 Bft) 100,00 %
15.01.2017 06:56 -1,7 C 91 % 1016,5 hPa 0,0 l/m 17,0 km/h (3 Bft) W-SW 238 0 min 0,000 mm 0,0 UV-I 0 W/m -3,0 C -10,2 C 20,9 km/h (4 Bft) 97,62 %
15.01.2017 06:58 -1,7 C 91 % 1016,6 hPa 0,0 l/m 18,4 km/h (3 Bft) W-SW 249 0 min 0,000 mm 0,0 UV-I 0 W/m -3,0 C -11,0 C 22,5 km/h (4 Bft) 100,00 %
15.01.2017 07:00 -1,7 C 91 % 1016,6 hPa 0,0 l/m 15,8 km/h (3 Bft) SW 236 0 min 0,000 mm 0,0 UV-I 0 W/m -3,0 C -9,5 C 22,5 km/h (4 Bft) 100,00 %
15.01.2017 07:02 -1,7 C 91 % 1016,6 hPa 0,0 l/m 19,8 km/h (3 Bft) W-SW 246 0 min 0,000 mm 0,0 UV-I 0 W/m -3,0 C -11,7 C 29,0 km/h (5 Bft) 100,00 %
15.01.2017 07:04 -1,7 C 91 % 1016,7 hPa 0,0 l/m 16,4 km/h (3 Bft) W-SW 238 0 min 0,000 mm 0,0 UV-I 0 W/m -3,0 C -9,9 C 29,0 km/h (5 Bft) 100,00 %
15.01.2017 07:06 -1,7 C 91 % 1016,7 hPa 0,0 l/m 19,0 km/h (3 Bft) SW 234 0 min 0,000 mm 0,0 UV-I 0 W/m -3,0 C -11,3 C 30,6 km/h (5 Bft) 97,87 %
15.01.2017 07:08 -1,7 C 91 % 1016,8 hPa 0,0 l/m 20,0 km/h (4 Bft) SW 218 0 min 0,000 mm 0,0 UV-I 0 W/m -3,0 C -11,8 C 30,6 km/h (5 Bft) 100,00 %
15.01.2017 07:10 -1,7 C 92 % 1016,8 hPa 0,0 l/m 20,1 km/h (4 Bft) SW 227 0 min 0,000 mm 0,0 UV-I 0 W/m -2,8 C -11,9 C 29,0 km/h (5 Bft) 100,00 %
15.01.2017 07:12 -1,7 C 92 % 1016,8 hPa 0,0 l/m 21,1 km/h (4 Bft) W 260 0 min 0,000 mm 0,0 UV-I 0 W/m -2,8 C -12,4 C 32,2 km/h (5 Bft) 100,00 %
15.01.2017 07:14 -1,7 C 92 % 1016,8 hPa 0,0 l/m 22,2 km/h (4 Bft) W-SW 243 0 min 0,000 mm 0,0 UV-I 0 W/m -2,8 C -12,9 C 29,0 km/h (5 Bft) 96,23 %
15.01.2017 07:16 -1,7 C 92 % 1016,9 hPa 0,0 l/m 14,4 km/h (3 Bft) W-SW 238 0 min 0,000 mm 0,0 UV-I 0 W/m -2,8 C -8,7 C 24,1 km/h (4 Bft) 100,00 %
15.01.2017 07:18 -1,7 C 92 % 1016,9 hPa 0,0 l/m 13,3 km/h (3 Bft) SW 229 0 min 0,000 mm 0,0 UV-I 0 W/m -2,8 C -7,9 C 25,7 km/h (4 Bft) 100,00 %
15.01.2017 07:20 -1,8 C 93 % 1017,0 hPa 0,0 l/m 16,5 km/h (3 Bft) SW 224 0 min 0,000 mm 0,0 UV-I 0 W/m -2,8 C -10,1 C 25,7 km/h (4 Bft) 100,00 %
15.01.2017 07:22 -1,7 C 93 % 1017,0 hPa 0,0 l/m 15,9 km/h (3 Bft) W-SW 245 0 min 0,000 mm 0,0 UV-I 0 W/m -2,7 C -9,6 C 22,5 km/h (4 Bft) 100,00 %
15.01.2017 07:24 -1,8 C 93 % 1017,0 hPa 0,0 l/m 18,6 km/h (3 Bft) SW 223 0 min 0,000 mm 0,0 UV-I 0 W/m -2,8 C -11,2 C 25,7 km/h (4 Bft) 100,00 %
15.01.2017 07:26 -1,8 C 93 % 1017,0 hPa 0,0 l/m 18,1 km/h (3 Bft) SW 217 0 min 0,000 mm 0,0 UV-I 0 W/m -2,8 C -11,0 C 29,0 km/h (5 Bft) 97,56 %
15.01.2017 07:28 -1,8 C 93 % 1017,1 hPa 0,0 l/m 16,3 km/h (3 Bft) SW 224 0 min 0,000 mm 0,0 UV-I 0 W/m -2,8 C -10,0 C 25,7 km/h (4 Bft) 100,00 %
15.01.2017 07:30 -1,8 C 93 % 1017,1 hPa 0,0 l/m 15,1 km/h (3 Bft) W-SW 250 0 min 0,000 mm 0,0 UV-I 0 W/m -2,8 C -9,2 C 22,5 km/h (4 Bft) 98,21 %
15.01.2017 07:32 -1,8 C 93 % 1017,1 hPa 0,0 l/m 14,7 km/h (3 Bft) S-SW 213 0 min 0,000 mm 0,0 UV-I 0 W/m -2,8 C -9,0 C 20,9 km/h (4 Bft) 97,37 %
15.01.2017 07:34 -1,8 C 93 % 1017,1 hPa 0,0 l/m 13,9 km/h (3 Bft) SW 217 0 min 0,000 mm 0,0 UV-I 0 W/m -2,8 C -8,4 C 20,9 km/h (4 Bft) 96,97 %
15.01.2017 07:36 -1,8 C 93 % 1017,2 hPa 0,0 l/m 17,0 km/h (3 Bft) SW 221 0 min 0,000 mm 0,0 UV-I 0 W/m -2,8 C -10,4 C 24,1 km/h (4 Bft) 96,88 %
15.01.2017 07:38 -1,8 C 93 % 1017,2 hPa 0,0 l/m 15,9 km/h (3 Bft) W-SW 256 0 min 0,000 mm 0,0 UV-I 0 W/m -2,8 C -9,7 C 22,5 km/h (4 Bft) 98,00 %
15.01.2017 07:40 -1,8 C 93 % 1017,2 hPa 0,0 l/m 12,0 km/h (2 Bft) W-SW 238 0 min 0,000 mm 0,0 UV-I 0 W/m -2,8 C -7,1 C 20,9 km/h (4 Bft) 97,62 %
15.01.2017 07:42 -1,9 C 94 % 1017,2 hPa 0,0 l/m 15,3 km/h (3 Bft) SW 225 0 min 0,000 mm 0,0 UV-I 0 W/m -2,7 C -9,5 C 20,9 km/h (4 Bft) 98,11 %
15.01.2017 07:44 -1,9 C 94 % 1017,3 hPa 0,0 l/m 12,9 km/h (3 Bft) S-SW 198 0 min 0,000 mm 0,0 UV-I 0 W/m -2,7 C -7,9 C 20,9 km/h (4 Bft) 97,56 %
15.01.2017 07:46 -1,9 C 94 % 1017,3 hPa 0,0 l/m 14,3 km/h (3 Bft) W-SW 244 0 min 0,000 mm 0,0 UV-I 4 W/m -2,7 C -8,8 C 22,5 km/h (4 Bft) 98,11 %
15.01.2017 07:48 -1,9 C 94 % 1017,3 hPa 0,0 l/m 13,3 km/h (3 Bft) SW 216 0 min 0,000 mm 0,0 UV-I 5 W/m -2,7 C -8,1 C 20,9 km/h (4 Bft) 96,00 %
15.01.2017 07:50 -1,9 C 94 % 1017,3 hPa 0,0 l/m 16,9 km/h (3 Bft) W-SW 240 0 min 0,000 mm 0,0 UV-I 5 W/m -2,7 C -10,4 C 25,7 km/h (4 Bft) 94,29 %
15.01.2017 07:52 -1,9 C 94 % 1017,3 hPa 0,0 l/m 15,4 km/h (3 Bft) SW 233 0 min 0,000 mm 0,0 UV-I 5 W/m -2,7 C -9,5 C 20,9 km/h (4 Bft) 94,34 %
15.01.2017 07:54 -1,9 C 94 % 1017,4 hPa 0,0 l/m 13,9 km/h (3 Bft) SW 223 0 min 0,000 mm 0,0 UV-I 7 W/m -2,7 C -8,6 C 20,9 km/h (4 Bft) 96,00 %
15.01.2017 07:56 -1,9 C 94 % 1017,4 hPa 0,0 l/m 13,2 km/h (3 Bft) SW 217 0 min 0,000 mm 0,0 UV-I 7 W/m -2,7 C -8,1 C 19,3 km/h (3 Bft) 97,56 %
15.01.2017 07:58 -1,8 C 93 % 1017,4 hPa 0,0 l/m 16,7 km/h (3 Bft) W 262 0 min 0,000 mm 0,0 UV-I 7 W/m -2,8 C -10,2 C 27,4 km/h (4 Bft) 97,73 %
15.01.2017 08:00 -1,8 C 93 % 1017,5 hPa 0,0 l/m 15,3 km/h (3 Bft) SW 231 0 min 0,000 mm 0,0 UV-I 7 W/m -2,8 C -9,4 C 24,1 km/h (4 Bft) 98,21 %
15.01.2017 08:02 -1,8 C 93 % 1017,5 hPa 0,0 l/m 17,3 km/h (3 Bft) S-SW 197 0 min 0,000 mm 0,0 UV-I 9 W/m -2,8 C -10,5 C 24,1 km/h (4 Bft) 97,37 %
15.01.2017 08:04 -1,8 C 93 % 1017,5 hPa 0,0 l/m 16,6 km/h (3 Bft) W 260 0 min 0,000 mm 0,0 UV-I 10 W/m -2,8 C -10,1 C 24,1 km/h (4 Bft) 96,23 %
15.01.2017 08:06 -1,7 C 93 % 1017,5 hPa 0,0 l/m 17,2 km/h (3 Bft) SW 228 0 min 0,000 mm 0,0 UV-I 11 W/m -2,7 C -10,4 C 24,1 km/h (4 Bft) 97,37 %
15.01.2017 08:08 -1,7 C 92 % 1017,5 hPa 0,0 l/m 15,4 km/h (3 Bft) SW 229 0 min 0,000 mm 0,0 UV-I 13 W/m -2,8 C -9,3 C 22,5 km/h (4 Bft) 98,31 %
15.01.2017 08:10 -1,7 C 92 % 1017,7 hPa 0,0 l/m 18,0 km/h (3 Bft) SW 227 0 min 0,000 mm 0,0 UV-I 15 W/m -2,8 C -10,8 C 24,1 km/h (4 Bft) 100,00 %
15.01.2017 08:12 -1,7 C 92 % 1017,6 hPa 0,0 l/m 15,5 km/h (3 Bft) W-SW 238 0 min 0,000 mm 0,0 UV-I 18 W/m -2,8 C -9,4 C 24,1 km/h (4 Bft) 100,00 %
15.01.2017 08:14 -1,7 C 91 % 1017,6 hPa 0,0 l/m 17,5 km/h (3 Bft) W-SW 250 0 min 0,000 mm 0,0 UV-I 21 W/m -3,0 C -10,5 C 25,7 km/h (4 Bft) 97,56 %
15.01.2017 08:16 -1,7 C 91 % 1017,6 hPa 0,0 l/m 18,5 km/h (3 Bft) SW 217 0 min 0,000 mm 0,0 UV-I 24 W/m -3,0 C -11,1 C 25,7 km/h (4 Bft) 100,00 %
15.01.2017 08:18 -1,7 C 90 % 1017,7 hPa 0,0 l/m 13,3 km/h (3 Bft) W-SW 246 0 min 0,000 mm 0,0 UV-I 26 W/m -3,1 C -7,9 C 22,5 km/h (4 Bft) 100,00 %
15.01.2017 08:20 -1,7 C 90 % 1017,7 hPa 0,0 l/m 18,3 km/h (3 Bft) SW 234 0 min 0,000 mm 0,0 UV-I 28 W/m -3,1 C -11,0 C 25,7 km/h (4 Bft) 100,00 %
15.01.2017 08:22 -1,7 C 90 % 1017,7 hPa 0,0 l/m 17,8 km/h (3 Bft) SW 229 0 min 0,000 mm 0,0 UV-I 28 W/m -3,1 C -10,7 C 22,5 km/h (4 Bft) 100,00 %
15.01.2017 08:24 -1,7 C 90 % 1017,7 hPa 0,0 l/m 15,5 km/h (3 Bft) SW 234 0 min 0,000 mm 0,0 UV-I 30 W/m -3,1 C -9,4 C 25,7 km/h (4 Bft) 100,00 %
15.01.2017 08:26 -1,7 C 89 % 1017,7 hPa 0,0 l/m 14,4 km/h (3 Bft) SW 225 0 min 0,000 mm 0,0 UV-I 34 W/m -3,3 C -8,7 C 24,1 km/h (4 Bft) 98,00 %
15.01.2017 08:28 -1,6 C 89 % 1017,8 hPa 0,0 l/m 14,7 km/h (3 Bft) SW 233 0 min 0,000 mm 0,0 UV-I 36 W/m -3,2 C -8,7 C 24,1 km/h (4 Bft) 97,56 %
15.01.2017 08:30 -1,6 C 89 % 1017,8 hPa 0,0 l/m 14,3 km/h (3 Bft) SW 227 0 min 0,000 mm 0,0 UV-I 37 W/m -3,2 C -8,5 C 22,5 km/h (4 Bft) 97,56 %
15.01.2017 08:32 -1,6 C 89 % 1017,8 hPa 0,0 l/m 14,2 km/h (3 Bft) SW 218 0 min 0,000 mm 0,0 UV-I 38 W/m -3,2 C -8,4 C 20,9 km/h (4 Bft) 100,00 %
15.01.2017 08:34 -1,6 C 89 % 1017,9 hPa 0,0 l/m 12,7 km/h (3 Bft) SW 219 0 min 0,000 mm 0,0 UV-I 39 W/m -3,2 C -7,4 C 20,9 km/h (4 Bft) 100,00 %
15.01.2017 08:36 -1,6 C 89 % 1017,8 hPa 0,0 l/m 11,6 km/h (2 Bft) W-SW 254 0 min 0,000 mm 0,0 UV-I 37 W/m -3,2 C -6,5 C 20,9 km/h (4 Bft) 100,00 %
15.01.2017 08:38 -1,6 C 89 % 1017,8 hPa 0,0 l/m 14,8 km/h (3 Bft) SW 217 0 min 0,000 mm 0,0 UV-I 37 W/m -3,2 C -8,8 C 22,5 km/h (4 Bft) 100,00 %
15.01.2017 08:40 -1,6 C 88 % 1017,9 hPa 0,0 l/m 12,1 km/h (2 Bft) W-SW 257 0 min 0,000 mm 0,0 UV-I 39 W/m -3,3 C -6,9 C 22,5 km/h (4 Bft) 100,00 %
15.01.2017 08:42 -1,6 C 88 % 1017,8 hPa 0,0 l/m 12,7 km/h (3 Bft) SW 217 0 min 0,000 mm 0,0 UV-I 38 W/m -3,3 C -7,4 C 19,3 km/h (3 Bft) 100,00 %
15.01.2017 08:44 -1,6 C 88 % 1017,9 hPa 0,0 l/m 17,7 km/h (3 Bft) SW 231 0 min 0,000 mm 0,0 UV-I 36 W/m -3,3 C -10,5 C 25,7 km/h (4 Bft) 98,57 %
15.01.2017 08:46 -1,6 C 88 % 1017,9 hPa 0,0 l/m 17,4 km/h (3 Bft) SW 216 0 min 0,000 mm 0,0 UV-I 34 W/m -3,3 C -10,3 C 25,7 km/h (4 Bft) 100,00 %
15.01.2017 08:48 -1,7 C 88 % 1018,0 hPa 0,0 l/m 16,7 km/h (3 Bft) SW 216 0 min 0,000 mm 0,0 UV-I 32 W/m -3,4 C -10,1 C 22,5 km/h (4 Bft) 100,00 %
15.01.2017 08:50 -1,7 C 87 % 1018,0 hPa 0,0 l/m 14,8 km/h (3 Bft) SW 230 0 min 0,000 mm 0,0 UV-I 33 W/m -3,6 C -8,9 C 20,9 km/h (4 Bft) 100,00 %
15.01.2017 08:52 -1,8 C 87 % 1018,0 hPa 0,0 l/m 14,2 km/h (3 Bft) W-SW 248 0 min 0,000 mm 0,0 UV-I 37 W/m -3,7 C -8,6 C 19,3 km/h (3 Bft) 100,00 %
15.01.2017 08:54 -1,8 C 87 % 1018,0 hPa 0,0 l/m 17,1 km/h (3 Bft) W-SW 239 0 min 0,000 mm 0,0 UV-I 40 W/m -3,7 C -10,4 C 22,5 km/h (4 Bft) 98,21 %
15.01.2017 08:56 -1,8 C 87 % 1018,1 hPa 0,0 l/m 14,4 km/h (3 Bft) SW 227 0 min 0,000 mm 0,0 UV-I 40 W/m -3,7 C -8,8 C 20,9 km/h (4 Bft) 100,00 %
15.01.2017 08:58 -1,8 C 87 % 1018,2 hPa 0,0 l/m 13,7 km/h (3 Bft) SW 224 0 min 0,000 mm 0,0 UV-I 41 W/m -3,7 C -8,3 C 20,9 km/h (4 Bft) 100,00 %
15.01.2017 09:00 -1,9 C 87 % 1018,2 hPa 0,0 l/m 16,7 km/h (3 Bft) SW 235 0 min 0,026 mm 0,0 UV-I 43 W/m -3,8 C -10,3 C 22,5 km/h (4 Bft) 100,00 %
15.01.2017 09:02 -1,9 C 88 % 1018,2 hPa 0,0 l/m 16,0 km/h (3 Bft) SW 219 0 min 0,000 mm 0,0 UV-I 48 W/m -3,6 C -9,9 C 20,9 km/h (4 Bft) 97,56 %
15.01.2017 09:04 -1,8 C 87 % 1018,3 hPa 0,0 l/m 15,2 km/h (3 Bft) SW 219 0 min 0,000 mm 0,0 UV-I 61 W/m -3,7 C -9,3 C 22,5 km/h (4 Bft) 98,21 %
15.01.2017 09:06 -1,8 C 88 % 1018,3 hPa 0,0 l/m 12,4 km/h (3 Bft) W-SW 249 2 min 0,000 mm 0,0 UV-I 90 W/m -3,5 C -7,4 C 17,7 km/h (3 Bft) 100,00 %
15.01.2017 09:08 -1,7 C 88 % 1018,3 hPa 0,0 l/m 14,6 km/h (3 Bft) SW 221 0 min 0,000 mm 0,0 UV-I 80 W/m -3,4 C -8,8 C 20,9 km/h (4 Bft) 98,59 %
15.01.2017 09:10 -1,7 C 88 % 1018,4 hPa 0,0 l/m 17,8 km/h (3 Bft) SW 229 0 min 0,000 mm 0,0 UV-I 56 W/m -3,4 C -10,7 C 25,7 km/h (4 Bft) 100,00 %
15.01.2017 09:12 -1,7 C 88 % 1018,4 hPa 0,0 l/m 16,7 km/h (3 Bft) SW 219 0 min 0,000 mm 0,0 UV-I 48 W/m -3,4 C -10,1 C 22,5 km/h (4 Bft) 100,00 %
15.01.2017 09:14 -1,6 C 88 % 1018,4 hPa 0,0 l/m 14,8 km/h (3 Bft) SW 236 0 min 0,000 mm 0,0 UV-I 58 W/m -3,3 C -8,8 C 20,9 km/h (4 Bft) 98,11 %
15.01.2017 09:16 -1,6 C 88 % 1018,5 hPa 0,0 l/m 17,5 km/h (3 Bft) W-SW 237 0 min 0,000 mm 0,0 UV-I 79 W/m -3,3 C -10,4 C 24,1 km/h (4 Bft) 100,00 %
15.01.2017 09:18 -1,6 C 88 % 1018,5 hPa 0,0 l/m 17,6 km/h (3 Bft) SW 229 0 min 0,000 mm 0,0 UV-I 77 W/m -3,3 C -10,5 C 33,8 km/h (5 Bft) 100,00 %
15.01.2017 09:20 -1,6 C 88 % 1018,5 hPa 0,0 l/m 19,7 km/h (3 Bft) SW 228 0 min 0,000 mm 0,0 UV-I 69 W/m -3,3 C -11,6 C 29,0 km/h (5 Bft) 100,00 %
15.01.2017 09:22 -1,6 C 88 % 1018,5 hPa 0,0 l/m 13,3 km/h (3 Bft) W 269 0 min 0,000 mm 0,0 UV-I 74 W/m -3,3 C -7,8 C 25,7 km/h (4 Bft) 98,11 %
15.01.2017 09:24 -1,7 C 88 % 1018,5 hPa 0,0 l/m 19,0 km/h (3 Bft) SW 219 0 min 0,000 mm 0,0 UV-I 75 W/m -3,4 C -11,3 C 30,6 km/h (5 Bft) 100,00 %
15.01.2017 09:26 -1,7 C 88 % 1018,6 hPa 0,0 l/m 15,3 km/h (3 Bft) SW 233 0 min 0,000 mm 0,0 UV-I 96 W/m -3,4 C -9,2 C 22,5 km/h (4 Bft) 100,00 %
15.01.2017 09:28 -1,8 C 88 % 1018,6 hPa 0,0 l/m 15,8 km/h (3 Bft) SW 220 0 min 0,000 mm 0,0 UV-I 110 W/m -3,5 C -9,7 C 24,1 km/h (4 Bft) 100,00 %
15.01.2017 09:30 -1,8 C 89 % 1018,6 hPa 0,0 l/m 15,9 km/h (3 Bft) W-SW 248 2 min 0,000 mm 0,0 UV-I 129 W/m -3,4 C -9,7 C 20,9 km/h (4 Bft) 100,00 %
15.01.2017 09:32 -1,7 C 89 % 1018,6 hPa 0,0 l/m 18,5 km/h (3 Bft) W-SW 242 2 min 0,000 mm 0,0 UV-I 196 W/m -3,3 C -11,1 C 24,1 km/h (4 Bft) 100,00 %
15.01.2017 09:34 -1,6 C 89 % 1018,6 hPa 0,0 l/m 15,5 km/h (3 Bft) SW 236 2 min 0,000 mm 0,0 UV-I 231 W/m -3,2 C -9,2 C 22,5 km/h (4 Bft) 97,37 %
15.01.2017 09:36 -1,5 C 89 % 1018,6 hPa 0,0 l/m 13,4 km/h (3 Bft) W-SW 241 2 min 0,000 mm 0,0 UV-I 289 W/m -3,1 C -7,7 C 20,9 km/h (4 Bft) 100,00 %
15.01.2017 09:38 -1,4 C 89 % 1018,6 hPa 0,0 l/m 15,2 km/h (3 Bft) SW 215 2 min 0,000 mm 0,0 UV-I 287 W/m -3,0 C -8,8 C 29,0 km/h (5 Bft) 98,00 %
15.01.2017 09:40 -1,3 C 88 % 1018,7 hPa 0,0 l/m 12,7 km/h (3 Bft) SW 225 2 min 0,000 mm 0,0 UV-I 301 W/m -3,0 C -7,0 C 17,7 km/h (3 Bft) 95,24 %
15.01.2017 09:42 -1,3 C 88 % 1018,6 hPa 0,0 l/m 18,2 km/h (3 Bft) S-SW 203 2 min 0,000 mm 0,0 UV-I 344 W/m -3,0 C -10,4 C 25,7 km/h (4 Bft) 96,23 %
15.01.2017 09:44 -1,2 C 88 % 1018,6 hPa 0,0 l/m 13,6 km/h (3 Bft) W 259 2 min 0,000 mm 0,0 UV-I 346 W/m -2,9 C -7,5 C 20,9 km/h (4 Bft) 97,56 %
15.01.2017 09:46 -1,2 C 88 % 1018,6 hPa 0,0 l/m 17,3 km/h (3 Bft) W-SW 244 2 min 0,000 mm 0,0 UV-I 263 W/m -2,9 C -9,8 C 27,4 km/h (4 Bft) 98,21 %
15.01.2017 09:48 -1,1 C 88 % 1018,6 hPa 0,0 l/m 15,9 km/h (3 Bft) S-SW 200 2 min 0,000 mm 0,0 UV-I 162 W/m -2,8 C -8,9 C 20,9 km/h (4 Bft) 97,56 %
15.01.2017 09:50 -1,1 C 88 % 1018,6 hPa 0,0 l/m 16,9 km/h (3 Bft) SW 232 0 min 0,000 mm 0,0 UV-I 129 W/m -2,8 C -9,4 C 27,4 km/h (4 Bft) 97,87 %
15.01.2017 09:52 -1,1 C 88 % 1018,6 hPa 0,0 l/m 15,3 km/h (3 Bft) SW 236 0 min 0,000 mm 0,0 UV-I 111 W/m -2,8 C -8,5 C 22,5 km/h (4 Bft) 97,87 %
15.01.2017 09:54 -1,1 C 88 % 1018,6 hPa 0,0 l/m 16,1 km/h (3 Bft) W-SW 255 0 min 0,000 mm 0,0 UV-I 114 W/m -2,8 C -9,0 C 22,5 km/h (4 Bft) 96,00 %
15.01.2017 09:56 -1,1 C 88 % 1018,6 hPa 0,0 l/m 17,2 km/h (3 Bft) SW 226 0 min 0,000 mm 0,0 UV-I 126 W/m -2,8 C -9,6 C 25,7 km/h (4 Bft) 97,37 %
15.01.2017 09:58 -1,1 C 88 % 1018,7 hPa 0,0 l/m 15,7 km/h (3 Bft) SW 223 0 min 0,000 mm 0,0 UV-I 133 W/m -2,8 C -8,7 C 27,4 km/h (4 Bft) 96,23 %
15.01.2017 10:00 -1,1 C 87 % 1018,7 hPa 0,0 l/m 18,5 km/h (3 Bft) W 273 0 min 0,051 mm 0,0 UV-I 128 W/m -3,0 C -10,3 C 24,1 km/h (4 Bft) 97,37 %
15.01.2017 10:02 -1,1 C 87 % 1018,7 hPa 0,0 l/m 17,2 km/h (3 Bft) SW 236 0 min 0,000 mm 0,0 UV-I 128 W/m -3,0 C -9,6 C 30,6 km/h (5 Bft) 98,00 %
15.01.2017 10:04 -1,1 C 87 % 1018,7 hPa 0,0 l/m 16,6 km/h (3 Bft) W-SW 244 0 min 0,000 mm 0,0 UV-I 141 W/m -3,0 C -9,3 C 29,0 km/h (5 Bft) 98,11 %
15.01.2017 10:06 -1,1 C 87 % 1018,6 hPa 0,0 l/m 18,9 km/h (3 Bft) SW 225 0 min 0,000 mm 0,0 UV-I 132 W/m -3,0 C -10,5 C 30,6 km/h (5 Bft) 100,00 %
15.01.2017 10:08 -1,0 C 87 % 1018,7 hPa 0,0 l/m 19,6 km/h (3 Bft) SW 216 0 min 0,000 mm 0,0 UV-I 124 W/m -2,9 C -10,7 C 32,2 km/h (5 Bft) 100,00 %
15.01.2017 10:10 -1,0 C 87 % 1018,7 hPa 0,0 l/m 19,4 km/h (3 Bft) SW 221 0 min 0,000 mm 0,0 UV-I 129 W/m -2,9 C -10,6 C 29,0 km/h (5 Bft) 97,14 %
15.01.2017 10:12 -1,0 C 87 % 1018,7 hPa 0,0 l/m 19,8 km/h (3 Bft) W-SW 242 0 min 0,000 mm 0,0 UV-I 126 W/m -2,9 C -10,8 C 27,4 km/h (4 Bft) 96,43 %
15.01.2017 10:14 -1,0 C 87 % 1018,8 hPa 0,0 l/m 21,3 km/h (4 Bft) W-SW 241 0 min 0,000 mm 0,0 UV-I 116 W/m -2,9 C -11,5 C 29,0 km/h (5 Bft) 100,00 %
15.01.2017 10:16 -1,0 C 88 % 1018,8 hPa 0,0 l/m 15,0 km/h (3 Bft) W-SW 241 0 min 0,000 mm 0,0 UV-I 106 W/m -2,7 C -8,2 C 24,1 km/h (4 Bft) 100,00 %
15.01.2017 10:18 -1,1 C 88 % 1018,8 hPa 0,0 l/m 16,2 km/h (3 Bft) SW 236 0 min 0,000 mm 0,0 UV-I 93 W/m -2,8 C -9,0 C 30,6 km/h (5 Bft) 100,00 %
15.01.2017 10:20 -1,1 C 88 % 1018,8 hPa 0,0 l/m 15,9 km/h (3 Bft) SW 231 0 min 0,000 mm 0,0 UV-I 98 W/m -2,8 C -8,9 C 25,7 km/h (4 Bft) 100,00 %
15.01.2017 10:22 -1,0 C 88 % 1018,8 hPa 0,0 l/m 14,4 km/h (3 Bft) W-SW 246 0 min 0,000 mm 0,0 UV-I 113 W/m -2,7 C -7,8 C 22,5 km/h (4 Bft) 100,00 %
15.01.2017 10:24 -1,0 C 88 % 1018,8 hPa 0,0 l/m 18,3 km/h (3 Bft) SW 236 0 min 0,000 mm 0,0 UV-I 117 W/m -2,7 C -10,1 C 29,0 km/h (5 Bft) 97,37 %
15.01.2017 10:26 -0,9 C 88 % 1018,8 hPa 0,0 l/m 14,2 km/h (3 Bft) SW 221 0 min 0,000 mm 0,0 UV-I 101 W/m -2,6 C -7,6 C 22,5 km/h (4 Bft) 98,00 %
15.01.2017 10:28 -0,9 C 88 % 1018,8 hPa 0,0 l/m 16,1 km/h (3 Bft) SW 223 0 min 0,000 mm 0,0 UV-I 82 W/m -2,6 C -8,7 C 22,5 km/h (4 Bft) 97,56 %
15.01.2017 10:30 -0,9 C 88 % 1018,9 hPa 0,0 l/m 15,9 km/h (3 Bft) W-SW 246 0 min 0,000 mm 0,0 UV-I 84 W/m -2,6 C -8,6 C 22,5 km/h (4 Bft) 100,00 %
15.01.2017 10:32 -0,9 C 88 % 1018,9 hPa 0,0 l/m 14,3 km/h (3 Bft) W-SW 248 0 min 0,000 mm 0,0 UV-I 110 W/m -2,6 C -7,6 C 24,1 km/h (4 Bft) 100,00 %
15.01.2017 10:34 -0,9 C 87 % 1018,9 hPa 0,0 l/m 15,4 km/h (3 Bft) SW 223 0 min 0,000 mm 0,0 UV-I 164 W/m -2,8 C -8,3 C 20,9 km/h (4 Bft) 100,00 %
15.01.2017 10:36 -0,8 C 87 % 1018,9 hPa 0,0 l/m 18,7 km/h (3 Bft) SW 224 2 min 0,000 mm 0,0 UV-I 243 W/m -2,7 C -10,0 C 27,4 km/h (4 Bft) 100,00 %
15.01.2017 10:38 -0,7 C 87 % 1018,9 hPa 0,0 l/m 12,6 km/h (3 Bft) S-SW 211 2 min 0,000 mm 0,0 UV-I 219 W/m -2,6 C -6,2 C 19,3 km/h (3 Bft) 100,00 %
15.01.2017 10:40 -0,7 C 87 % 1018,9 hPa 0,0 l/m 15,5 km/h (3 Bft) W-SW 238 0 min 0,000 mm 0,0 UV-I 120 W/m -2,6 C -8,1 C 24,1 km/h (4 Bft) 100,00 %
15.01.2017 10:42 -0,8 C 87 % 1019,0 hPa 0,0 l/m 14,1 km/h (3 Bft) W-SW 240 0 min 0,000 mm 0,0 UV-I 73 W/m -2,7 C -7,4 C 22,5 km/h (4 Bft) 100,00 %
15.01.2017 10:44 -0,8 C 88 % 1018,9 hPa 0,0 l/m 11,9 km/h (2 Bft) SW 232 0 min 0,000 mm 0,0 UV-I 73 W/m -2,5 C -5,8 C 20,9 km/h (4 Bft) 97,73 %
15.01.2017 10:46 -0,9 C 89 % 1019,0 hPa 0,0 l/m 10,1 km/h (2 Bft) W-SW 244 0 min 0,000 mm 0,0 UV-I 76 W/m -2,5 C -4,5 C 17,7 km/h (3 Bft) 97,73 %
15.01.2017 10:48 -1,0 C 89 % 1019,0 hPa 0,2 l/m 13,1 km/h (3 Bft) W-SW 248 0 min 0,000 mm 0,0 UV-I 88 W/m -2,6 C -6,9 C 19,3 km/h (3 Bft) 98,00 %
15.01.2017 10:50 -1,1 C 89 % 1018,9 hPa 0,0 l/m 10,3 km/h (2 Bft) SW 222 0 min 0,000 mm 0,0 UV-I 106 W/m -2,7 C -4,9 C 19,3 km/h (3 Bft) 98,00 %
15.01.2017 10:52 -1,1 C 89 % 1018,9 hPa 0,0 l/m 12,6 km/h (3 Bft) S-SW 213 0 min 0,000 mm 0,0 UV-I 106 W/m -2,7 C -6,7 C 20,9 km/h (4 Bft) 97,37 %
15.01.2017 10:54 -1,1 C 89 % 1018,9 hPa 0,0 l/m 14,4 km/h (3 Bft) W-SW 258 0 min 0,000 mm 0,0 UV-I 94 W/m -2,7 C -7,9 C 20,9 km/h (4 Bft) 100,00 %
15.01.2017 10:56 -1,2 C 89 % 1018,9 hPa 0,0 l/m 16,3 km/h (3 Bft) SW 232 0 min 0,000 mm 0,0 UV-I 91 W/m -2,8 C -9,2 C 22,5 km/h (4 Bft) 100,00 %
15.01.2017 10:58 -1,2 C 89 % 1018,9 hPa 0,0 l/m 11,6 km/h (2 Bft) SW 228 0 min 0,000 mm 0,0 UV-I 101 W/m -2,8 C -6,1 C 16,1 km/h (3 Bft) 100,00 %
15.01.2017 11:00 -1,2 C 89 % 1018,9 hPa 0,0 l/m 13,4 km/h (3 Bft) W-SW 239 0 min 0,050 mm 0,0 UV-I 117 W/m -2,8 C -7,4 C 20,9 km/h (4 Bft) 100,00 %
15.01.2017 11:02 -1,2 C 89 % 1018,9 hPa 0,0 l/m 15,1 km/h (3 Bft) SW 225 0 min 0,000 mm 0,0 UV-I 117 W/m -2,8 C -8,5 C 25,7 km/h (4 Bft) 100,00 %
15.01.2017 11:04 -1,2 C 88 % 1018,9 hPa 0,0 l/m 14,7 km/h (3 Bft) W-SW 238 0 min 0,000 mm 0,0 UV-I 144 W/m -2,9 C -8,2 C 19,3 km/h (3 Bft) 100,00 %
15.01.2017 11:06 -1,1 C 89 % 1018,9 hPa 0,0 l/m 15,4 km/h (3 Bft) SW 228 0 min 0,000 mm 0,4 UV-I 160 W/m -2,7 C -8,6 C 20,9 km/h (4 Bft) 98,00 %
15.01.2017 11:08 -0,9 C 88 % 1018,9 hPa 0,0 l/m 11,4 km/h (2 Bft) S-SW 208 0 min 0,000 mm 0,0 UV-I 170 W/m -2,6 C -5,6 C 16,1 km/h (3 Bft) 100,00 %
15.01.2017 11:10 -0,9 C 88 % 1018,9 hPa 0,0 l/m 13,7 km/h (3 Bft) SW 231 0 min 0,000 mm 0,0 UV-I 167 W/m -2,6 C -7,2 C 22,5 km/h (4 Bft) 100,00 %
15.01.2017 11:12 -0,9 C 89 % 1018,9 hPa 0,0 l/m 14,3 km/h (3 Bft) SW 225 0 min 0,000 mm 0,0 UV-I 175 W/m -2,5 C -7,6 C 19,3 km/h (3 Bft) 97,37 %
15.01.2017 11:14 -0,8 C 90 % 1018,9 hPa 0,0 l/m 10,4 km/h (2 Bft) W 262 2 min 0,000 mm 0,0 UV-I 196 W/m -2,2 C -4,7 C 17,7 km/h (3 Bft) 100,00 %
15.01.2017 11:16 -0,8 C 90 % 1018,9 hPa 0,0 l/m 11,3 km/h (2 Bft) W-SW 247 2 min 0,000 mm 0,2 UV-I 237 W/m -2,2 C -5,4 C 17,7 km/h (3 Bft) 100,00 %
15.01.2017 11:18 -0,7 C 90 % 1018,9 hPa 0,0 l/m 14,0 km/h (3 Bft) SW 234 2 min 0,000 mm 0,5 UV-I 296 W/m -2,1 C -7,2 C 20,9 km/h (4 Bft) 100,00 %
15.01.2017 11:20 -0,6 C 90 % 1018,9 hPa 0,0 l/m 12,4 km/h (3 Bft) W-SW 254 2 min 0,000 mm 0,5 UV-I 376 W/m -2,0 C -6,0 C 19,3 km/h (3 Bft) 97,87 %
15.01.2017 11:22 -0,4 C 89 % 1018,9 hPa 0,0 l/m 10,3 km/h (2 Bft) SW 227 2 min 0,000 mm 0,5 UV-I 301 W/m -2,0 C -4,1 C 14,5 km/h (3 Bft) 96,23 %
15.01.2017 11:24 -0,3 C 88 % 1018,9 hPa 0,0 l/m 11,7 km/h (2 Bft) SW 218 2 min 0,000 mm 0,5 UV-I 292 W/m -2,0 C -5,1 C 17,7 km/h (3 Bft) 97,56 %
15.01.2017 11:26 -0,3 C 87 % 1018,9 hPa 0,0 l/m 10,5 km/h (2 Bft) W-SW 242 2 min 0,000 mm 0,5 UV-I 243 W/m -2,2 C -4,2 C 17,7 km/h (3 Bft) 98,00 %
15.01.2017 11:28 -0,2 C 86 % 1018,9 hPa 0,0 l/m 13,3 km/h (3 Bft) SW 223 2 min 0,000 mm 0,5 UV-I 337 W/m -2,3 C -6,1 C 19,3 km/h (3 Bft) 95,12 %
15.01.2017 11:30 -0,1 C 85 % 1018,9 hPa 0,0 l/m 15,1 km/h (3 Bft) W-SW 237 2 min 0,000 mm 0,6 UV-I 453 W/m -2,3 C -7,2 C 20,9 km/h (4 Bft) 98,11 %
15.01.2017 11:32 0,1 C 84 % 1018,9 hPa 0,0 l/m 19,6 km/h (3 Bft) W-SW 238 2 min 0,000 mm 0,6 UV-I 466 W/m -2,3 C -9,3 C 24,1 km/h (4 Bft) 96,00 %
15.01.2017 11:34 0,2 C 84 % 1018,9 hPa 0,0 l/m 15,3 km/h (3 Bft) S-SW 194 2 min 0,000 mm 0,6 UV-I 453 W/m -2,2 C -6,9 C 22,5 km/h (4 Bft) 97,56 %
15.01.2017 11:36 0,3 C 83 % 1018,9 hPa 0,0 l/m 16,0 km/h (3 Bft) W-SW 241 2 min 0,000 mm 0,6 UV-I 487 W/m -2,2 C -7,2 C 29,0 km/h (5 Bft) 97,44 %
15.01.2017 11:38 0,4 C 83 % 1018,9 hPa 0,0 l/m 14,7 km/h (3 Bft) W-SW 250 2 min 0,000 mm 0,6 UV-I 537 W/m -2,1 C -6,3 C 25,7 km/h (4 Bft) 96,23 %
15.01.2017 11:40 0,4 C 83 % 1018,9 hPa 0,0 l/m 19,0 km/h (3 Bft) W-SW 238 2 min 0,000 mm 0,6 UV-I 560 W/m -2,1 C -8,6 C 27,4 km/h (4 Bft) 97,37 %
15.01.2017 11:42 0,4 C 82 % 1018,9 hPa 0,0 l/m 17,8 km/h (3 Bft) SW 234 2 min 0,000 mm 0,6 UV-I 522 W/m -2,3 C -8,0 C 30,6 km/h (5 Bft) 94,92 %
15.01.2017 11:44 0,4 C 82 % 1018,9 hPa 0,0 l/m 18,3 km/h (3 Bft) W-SW 257 2 min 0,000 mm 0,6 UV-I 517 W/m -2,3 C -8,3 C 24,1 km/h (4 Bft) 93,18 %
15.01.2017 11:46 0,3 C 82 % 1018,9 hPa 0,0 l/m 17,6 km/h (3 Bft) SW 229 2 min 0,000 mm 0,6 UV-I 484 W/m -2,4 C -8,1 C 33,8 km/h (5 Bft) 94,00 %
15.01.2017 11:48 0,3 C 82 % 1018,9 hPa 0,0 l/m 19,3 km/h (3 Bft) SW 216 2 min 0,000 mm 0,6 UV-I 493 W/m -2,4 C -8,9 C 29,0 km/h (5 Bft) 100,00 %
15.01.2017 11:50 0,3 C 82 % 1018,9 hPa 0,0 l/m 22,6 km/h (4 Bft) W-SW 238 2 min 0,000 mm 0,6 UV-I 489 W/m -2,4 C -10,4 C 30,6 km/h (5 Bft) 94,74 %
15.01.2017 11:52 0,2 C 82 % 1018,9 hPa 0,0 l/m 22,4 km/h (4 Bft) W-SW 250 2 min 0,000 mm 0,6 UV-I 481 W/m -2,5 C -10,4 C 33,8 km/h (5 Bft) 100,00 %
15.01.2017 11:54 0,2 C 83 % 1018,9 hPa 0,0 l/m 20,4 km/h (4 Bft) SW 227 2 min 0,000 mm 0,6 UV-I 468 W/m -2,3 C -9,6 C 27,4 km/h (4 Bft) 100,00 %
15.01.2017 11:56 0,2 C 83 % 1018,9 hPa 0,2 l/m 18,5 km/h (3 Bft) SW 219 2 min 0,000 mm 0,6 UV-I 401 W/m -2,3 C -8,7 C 25,7 km/h (4 Bft) 100,00 %
15.01.2017 11:58 0,1 C 83 % 1019,0 hPa 0,0 l/m 20,8 km/h (4 Bft) SW 231 2 min 0,000 mm 0,6 UV-I 382 W/m -2,4 C -9,9 C 32,2 km/h (5 Bft) 100,00 %
15.01.2017 12:00 -0,1 C 83 % 1019,0 hPa 0,0 l/m 16,8 km/h (3 Bft) W-SW 241 2 min 0,000 mm 0,6 UV-I 412 W/m -2,6 C -8,1 C 24,1 km/h (4 Bft) 100,00 %
15.01.2017 12:02 -0,1 C 84 % 1019,0 hPa 0,0 l/m 17,9 km/h (3 Bft) SW 232 2 min 0,127 mm 0,6 UV-I 413 W/m -2,5 C -8,7 C 25,7 km/h (4 Bft) 100,00 %
15.01.2017 12:04 -0,1 C 84 % 1019,0 hPa 0,0 l/m 17,0 km/h (3 Bft) SW 220 2 min 0,000 mm 0,6 UV-I 429 W/m -2,5 C -8,2 C 27,4 km/h (4 Bft) 100,00 %
15.01.2017 12:06 -0,1 C 84 % 1019,0 hPa 0,0 l/m 14,7 km/h (3 Bft) S-SW 205 2 min 0,000 mm 0,5 UV-I 291 W/m -2,5 C -6,9 C 20,9 km/h (4 Bft) 100,00 %
15.01.2017 12:08 -0,2 C 84 % 1019,0 hPa 0,0 l/m 18,1 km/h (3 Bft) SW 225 0 min 0,000 mm 0,5 UV-I 190 W/m -2,6 C -9,0 C 27,4 km/h (4 Bft) 100,00 %
15.01.2017 12:10 -0,2 C 84 % 1019,0 hPa 0,0 l/m 16,9 km/h (3 Bft) W-SW 248 2 min 0,000 mm 0,5 UV-I 206 W/m -2,6 C -8,3 C 24,1 km/h (4 Bft) 100,00 %
15.01.2017 12:12 -0,2 C 85 % 1019,0 hPa 0,0 l/m 16,3 km/h (3 Bft) W-SW 239 2 min 0,000 mm 0,5 UV-I 351 W/m -2,4 C -8,0 C 24,1 km/h (4 Bft) 100,00 %
15.01.2017 12:14 -0,2 C 84 % 1019,0 hPa 0,0 l/m 16,8 km/h (3 Bft) SW 234 2 min 0,000 mm 0,5 UV-I 258 W/m -2,6 C -8,3 C 25,7 km/h (4 Bft) 100,00 %
15.01.2017 12:16 -0,2 C 85 % 1019,0 hPa 0,0 l/m 14,7 km/h (3 Bft) W 259 2 min 0,000 mm 0,5 UV-I 239 W/m -2,4 C -7,0 C 24,1 km/h (4 Bft) 100,00 %
15.01.2017 12:18 -0,2 C 84 % 1018,9 hPa 0,0 l/m 19,1 km/h (3 Bft) W 259 2 min 0,000 mm 0,5 UV-I 255 W/m -2,6 C -9,5 C 29,0 km/h (5 Bft) 100,00 %
15.01.2017 12:20 -0,3 C 84 % 1018,9 hPa 0,0 l/m 13,5 km/h (3 Bft) SW 223 0 min 0,000 mm 0,5 UV-I 197 W/m -2,7 C -6,4 C 20,9 km/h (4 Bft) 100,00 %
15.01.2017 12:22 -0,3 C 84 % 1018,9 hPa 0,0 l/m 11,9 km/h (2 Bft) SW 230 0 min 0,000 mm 0,5 UV-I 187 W/m -2,7 C -5,3 C 16,1 km/h (3 Bft) 100,00 %
15.01.2017 12:24 -0,3 C 84 % 1018,9 hPa 0,0 l/m 13,7 km/h (3 Bft) W-SW 242 0 min 0,000 mm 0,5 UV-I 177 W/m -2,7 C -6,5 C 17,7 km/h (3 Bft) 100,00 %
15.01.2017 12:26 -0,4 C 84 % 1018,9 hPa 0,0 l/m 14,0 km/h (3 Bft) SW 217 0 min 0,000 mm 0,5 UV-I 126 W/m -2,8 C -6,8 C 22,5 km/h (4 Bft) 100,00 %
15.01.2017 12:28 -0,5 C 84 % 1018,9 hPa 0,0 l/m 15,9 km/h (3 Bft) W-SW 250 0 min 0,000 mm 0,5 UV-I 106 W/m -2,9 C -8,1 C 24,1 km/h (4 Bft) 100,00 %
15.01.2017 12:30 -0,6 C 84 % 1018,9 hPa 0,0 l/m 13,5 km/h (3 Bft) S-SW 202 0 min 0,000 mm 0,5 UV-I 109 W/m -3,0 C -6,7 C 22,5 km/h (4 Bft) 100,00 %
15.01.2017 12:32 -0,6 C 84 % 1018,9 hPa 0,0 l/m 13,3 km/h (3 Bft) W 277 0 min 0,000 mm 0,5 UV-I 158 W/m -3,0 C -6,6 C 20,9 km/h (4 Bft) 98,00 %
15.01.2017 12:34 -0,6 C 84 % 1019,0 hPa 0,0 l/m 13,0 km/h (3 Bft) SW 231 2 min 0,000 mm 0,5 UV-I 261 W/m -3,0 C -6,4 C 17,7 km/h (3 Bft) 97,73 %
15.01.2017 12:36 -0,6 C 84 % 1019,0 hPa 0,0 l/m 16,2 km/h (3 Bft) SW 232 2 min 0,000 mm 0,5 UV-I 221 W/m -3,0 C -8,4 C 24,1 km/h (4 Bft) 100,00 %
15.01.2017 12:38 -0,5 C 84 % 1019,0 hPa 0,2 l/m 17,2 km/h (3 Bft) W-SW 241 2 min 0,000 mm 0,5 UV-I 207 W/m -2,9 C -8,9 C 25,7 km/h (4 Bft) 100,00 %
15.01.2017 12:40 -0,4 C 84 % 1019,0 hPa 0,0 l/m 11,7 km/h (2 Bft) SW 230 2 min 0,000 mm 0,5 UV-I 211 W/m -2,8 C -5,2 C 17,7 km/h (3 Bft) 97,37 %
15.01.2017 12:42 -0,4 C 84 % 1019,0 hPa 0,0 l/m 13,8 km/h (3 Bft) W-SW 244 2 min 0,000 mm 0,5 UV-I 214 W/m -2,8 C -6,7 C 20,9 km/h (4 Bft) 98,11 %
15.01.2017 12:44 -0,3 C 84 % 1019,0 hPa 0,0 l/m 14,4 km/h (3 Bft) W-SW 237 2 min 0,000 mm 0,5 UV-I 245 W/m -2,7 C -7,0 C 19,3 km/h (3 Bft) 97,56 %
15.01.2017 12:46 -0,2 C 84 % 1019,0 hPa 0,0 l/m 13,4 km/h (3 Bft) W-SW 243 2 min 0,000 mm 0,5 UV-I 225 W/m -2,6 C -6,2 C 19,3 km/h (3 Bft) 98,11 %
15.01.2017 12:48 -0,2 C 83 % 1019,0 hPa 0,0 l/m 14,4 km/h (3 Bft) SW 225 0 min 0,000 mm 0,0 UV-I 169 W/m -2,7 C -6,9 C 25,7 km/h (4 Bft) 95,45 %
15.01.2017 12:50 -0,3 C 83 % 1018,9 hPa 0,0 l/m 14,5 km/h (3 Bft) SW 225 0 min 0,000 mm 0,1 UV-I 175 W/m -2,8 C -7,0 C 25,7 km/h (4 Bft) 99,12 %
15.01.2017 12:52 -0,2 C 83 % 1018,9 hPa 0,0 l/m 17,9 km/h (3 Bft) W-NW 282 2 min 0,000 mm 0,2 UV-I 273 W/m -2,7 C -8,9 C 24,1 km/h (4 Bft) 97,83 %
15.01.2017 12:54 0,0 C 83 % 1019,0 hPa 0,0 l/m 17,2 km/h (3 Bft) W-SW 258 2 min 0,000 mm 0,5 UV-I 312 W/m -2,5 C -8,2 C 24,1 km/h (4 Bft) 97,56 %
15.01.2017 12:56 0,0 C 82 % 1019,0 hPa 0,0 l/m 17,3 km/h (3 Bft) W-SW 238 2 min 0,000 mm 0,1 UV-I 219 W/m -2,7 C -8,3 C 27,4 km/h (4 Bft) 98,39 %
15.01.2017 12:58 0,0 C 82 % 1019,0 hPa 0,0 l/m 15,0 km/h (3 Bft) W-SW 248 0 min 0,000 mm 0,0 UV-I 179 W/m -2,7 C -7,0 C 25,7 km/h (4 Bft) 97,73 %
15.01.2017 13:00 -0,1 C 82 % 1019,0 hPa 0,0 l/m 16,4 km/h (3 Bft) W-SW 240 0 min 0,102 mm 0,0 UV-I 171 W/m -2,8 C -7,9 C 25,7 km/h (4 Bft) 96,00 %
15.01.2017 13:03 -0,1 C 82 % 1018,9 hPa 0,0 l/m 14,8 km/h (3 Bft) S 185 0 min 0,000 mm 0,0 UV-I 161 W/m -2,8 C -7,0 C 24,1 km/h (4 Bft) 96,72 %
15.01.2017 13:04 -0,1 C 82 % 1018,9 hPa 0,0 l/m 17,4 km/h (3 Bft) W-SW 252 0 min 0,000 mm 0,0 UV-I 159 W/m -2,8 C -8,5 C 24,1 km/h (4 Bft) 100,00 %
15.01.2017 13:06 -0,1 C 82 % 1018,9 hPa 0,0 l/m 16,1 km/h (3 Bft) S-SW 210 0 min 0,000 mm 0,0 UV-I 186 W/m -2,8 C -7,7 C 25,7 km/h (4 Bft) 96,92 %
15.01.2017 13:08 -0,2 C 82 % 1018,9 hPa 0,0 l/m 17,0 km/h (3 Bft) SW 230 2 min 0,000 mm 0,4 UV-I 208 W/m -2,9 C -8,4 C 27,4 km/h (4 Bft) 100,00 %
15.01.2017 13:10 -0,1 C 82 % 1019,0 hPa 0,0 l/m 19,9 km/h (4 Bft) SW 214 2 min 0,000 mm 0,5 UV-I 256 W/m -2,8 C -9,7 C 29,0 km/h (5 Bft) 97,56 %
15.01.2017 13:12 0,0 C 83 % 1018,9 hPa 0,0 l/m 17,2 km/h (3 Bft) SW 233 2 min 0,000 mm 0,5 UV-I 332 W/m -2,5 C -8,2 C 24,1 km/h (4 Bft) 98,00 %
15.01.2017 13:14 0,1 C 82 % 1018,9 hPa 0,0 l/m 16,9 km/h (3 Bft) S-SW 211 2 min 0,000 mm 0,3 UV-I 358 W/m -2,6 C -7,9 C 24,1 km/h (4 Bft) 100,00 %
15.01.2017 13:16 0,0 C 82 % 1018,9 hPa 0,0 l/m 15,7 km/h (3 Bft) W 261 0 min 0,000 mm 0,0 UV-I 171 W/m -2,7 C -7,4 C 24,1 km/h (4 Bft) 100,00 %
15.01.2017 13:18 -0,1 C 83 % 1018,9 hPa 0,0 l/m 18,3 km/h (3 Bft) W-SW 252 0 min 0,000 mm 0,0 UV-I 155 W/m -2,6 C -8,9 C 30,6 km/h (5 Bft) 98,53 %
15.01.2017 13:20 -0,2 C 84 % 1018,9 hPa 0,0 l/m 20,8 km/h (4 Bft) S-SW 207 0 min 0,000 mm 0,0 UV-I 155 W/m -2,6 C -10,3 C 29,0 km/h (5 Bft) 97,73 %
15.01.2017 13:22 -0,3 C 84 % 1018,9 hPa 0,0 l/m 18,9 km/h (3 Bft) W-NW 284 0 min 0,000 mm 0,0 UV-I 162 W/m -2,7 C -9,5 C 25,7 km/h (4 Bft) 100,00 %
15.01.2017 13:24 -0,3 C 84 % 1018,9 hPa 0,0 l/m 17,1 km/h (3 Bft) W-SW 250 0 min 0,000 mm 0,0 UV-I 168 W/m -2,7 C -8,6 C 27,4 km/h (4 Bft) 100,00 %
15.01.2017 13:26 -0,3 C 84 % 1018,9 hPa 0,0 l/m 14,3 km/h (3 Bft) W-SW 257 0 min 0,000 mm 0,0 UV-I 173 W/m -2,7 C -6,9 C 19,3 km/h (3 Bft) 100,00 %
15.01.2017 13:28 -0,3 C 84 % 1018,8 hPa 0,0 l/m 15,7 km/h (3 Bft) SW 224 0 min 0,000 mm 0,0 UV-I 176 W/m -2,7 C -7,8 C 22,5 km/h (4 Bft) 98,00 %
15.01.2017 13:30 -0,4 C 85 % 1018,8 hPa 0,0 l/m 12,0 km/h (2 Bft) SW 232 0 min 0,000 mm 0,0 UV-I 172 W/m -2,6 C -5,5 C 20,9 km/h (4 Bft) 98,11 %
15.01.2017 13:32 -0,4 C 85 % 1018,8 hPa 0,0 l/m 14,9 km/h (3 Bft) S-SW 205 0 min 0,000 mm 0,0 UV-I 168 W/m -2,6 C -7,4 C 22,5 km/h (4 Bft) 100,00 %
15.01.2017 13:34 -0,4 C 85 % 1018,8 hPa 0,0 l/m 14,8 km/h (3 Bft) SW 218 0 min 0,000 mm 0,0 UV-I 164 W/m -2,6 C -7,3 C 22,5 km/h (4 Bft) 100,00 %
15.01.2017 13:36 -0,4 C 86 % 1018,8 hPa 0,0 l/m 14,6 km/h (3 Bft) W-SW 238 0 min 0,000 mm 0,0 UV-I 154 W/m -2,4 C -7,2 C 20,9 km/h (4 Bft) 100,00 %
15.01.2017 13:38 -0,4 C 86 % 1018,8 hPa 0,0 l/m 10,4 km/h (2 Bft) SW 229 0 min 0,000 mm 0,0 UV-I 145 W/m -2,4 C -4,2 C 14,5 km/h (3 Bft) 100,00 %
15.01.2017 13:40 -0,4 C 85 % 1018,8 hPa 0,0 l/m 12,6 km/h (3 Bft) S-SW 209 2 min 0,000 mm 0,0 UV-I 204 W/m -2,6 C -5,9 C 20,9 km/h (4 Bft) 100,00 %
15.01.2017 13:42 -0,3 C 85 % 1018,9 hPa 0,0 l/m 10,6 km/h (2 Bft) W-SW 242 2 min 0,000 mm 0,0 UV-I 196 W/m -2,5 C -4,3 C 16,1 km/h (3 Bft) 100,00 %
15.01.2017 13:44 -0,3 C 85 % 1018,9 hPa 0,0 l/m 13,3 km/h (3 Bft) SW 215 2 min 0,000 mm 0,0 UV-I 210 W/m -2,5 C -6,3 C 20,9 km/h (4 Bft) 100,00 %
15.01.2017 13:46 -0,3 C 85 % 1018,9 hPa 0,0 l/m 17,8 km/h (3 Bft) W-SW 238 0 min 0,000 mm 0,0 UV-I 169 W/m -2,5 C -8,9 C 25,7 km/h (4 Bft) 100,00 %
15.01.2017 13:48 -0,3 C 85 % 1018,9 hPa 0,0 l/m 12,7 km/h (3 Bft) W-SW 252 0 min 0,000 mm 0,0 UV-I 164 W/m -2,5 C -5,8 C 20,9 km/h (4 Bft) 100,00 %
15.01.2017 13:50 -0,2 C 84 % 1018,9 hPa 0,0 l/m 13,2 km/h (3 Bft) W-SW 254 2 min 0,000 mm 0,0 UV-I 188 W/m -2,6 C -6,1 C 17,7 km/h (3 Bft) 100,00 %
15.01.2017 13:52 -0,2 C 84 % 1018,9 hPa 0,0 l/m 14,8 km/h (3 Bft) S-SW 193 0 min 0,000 mm 0,0 UV-I 163 W/m -2,6 C -7,1 C 19,3 km/h (3 Bft) 100,00 %
15.01.2017 13:54 -0,1 C 83 % 1019,0 hPa 0,0 l/m 15,4 km/h (3 Bft) W-SW 252 2 min 0,000 mm 0,0 UV-I 323 W/m -2,6 C -7,3 C 20,9 km/h (4 Bft) 100,00 %
15.01.2017 13:56 0,1 C 83 % 1019,0 hPa 0,0 l/m 11,6 km/h (2 Bft) W-SW 252 2 min 0,000 mm 0,0 UV-I 348 W/m -2,4 C -4,6 C 17,7 km/h (3 Bft) 100,00 %
15.01.2017 13:58 0,2 C 82 % 1019,0 hPa 0,0 l/m 13,3 km/h (3 Bft) SW 232 2 min 0,000 mm 0,0 UV-I 232 W/m -2,5 C -5,7 C 20,9 km/h (4 Bft) 100,00 %
15.01.2017 14:00 0,2 C 82 % 1019,0 hPa 0,0 l/m 14,1 km/h (3 Bft) W-SW 247 2 min 0,076 mm 0,0 UV-I 166 W/m -2,5 C -6,2 C 20,9 km/h (4 Bft) 97,56 %
15.01.2017 14:02 0,2 C 82 % 1019,0 hPa 0,0 l/m 11,9 km/h (2 Bft) W-SW 250 0 min 0,000 mm 0,0 UV-I 137 W/m -2,5 C -4,7 C 17,7 km/h (3 Bft) 100,00 %
15.01.2017 14:04 0,1 C 82 % 1019,0 hPa 0,0 l/m 11,0 km/h (2 Bft) W 261 0 min 0,000 mm 0,0 UV-I 120 W/m -2,6 C -4,1 C 17,7 km/h (3 Bft) 100,00 %
15.01.2017 14:06 0,1 C 82 % 1019,0 hPa 0,0 l/m 12,9 km/h (3 Bft) SW 224 0 min 0,000 mm 0,0 UV-I 116 W/m -2,6 C -5,5 C 19,3 km/h (3 Bft) 100,00 %
15.01.2017 14:08 0,1 C 82 % 1019,0 hPa 0,0 l/m 12,9 km/h (3 Bft) SW 221 0 min 0,000 mm 0,0 UV-I 124 W/m -2,6 C -5,5 C 20,9 km/h (4 Bft) 100,00 %
15.01.2017 14:10 0,1 C 83 % 1019,1 hPa 0,0 l/m 12,2 km/h (2 Bft) S-SW 205 0 min 0,000 mm 0,0 UV-I 120 W/m -2,4 C -5,0 C 24,1 km/h (4 Bft) 100,00 %
15.01.2017 14:12 0,0 C 83 % 1019,0 hPa 0,0 l/m 10,0 km/h (2 Bft) W-SW 238 0 min 0,000 mm 0,0 UV-I 131 W/m -2,5 C -3,5 C 14,5 km/h (3 Bft) 100,00 %
15.01.2017 14:14 -0,1 C 83 % 1019,0 hPa 0,0 l/m 14,2 km/h (3 Bft) S-SW 205 0 min 0,000 mm 0,0 UV-I 135 W/m -2,6 C -6,6 C 19,3 km/h (3 Bft) 98,18 %
15.01.2017 14:16 -0,2 C 84 % 1019,0 hPa 0,0 l/m 11,3 km/h (2 Bft) S-SW 196 2 min 0,000 mm 0,0 UV-I 215 W/m -2,6 C -4,7 C 16,1 km/h (3 Bft) 100,00 %
15.01.2017 14:18 -0,2 C 84 % 1019,0 hPa 0,0 l/m 13,4 km/h (3 Bft) SW 235 2 min 0,000 mm 0,0 UV-I 319 W/m -2,6 C -6,2 C 20,9 km/h (4 Bft) 96,23 %
15.01.2017 14:20 -0,2 C 84 % 1019,0 hPa 0,0 l/m 12,5 km/h (3 Bft) S-SW 209 2 min 0,000 mm 0,0 UV-I 201 W/m -2,6 C -5,6 C 19,3 km/h (3 Bft) 98,00 %
15.01.2017 14:22 -0,3 C 85 % 1019,1 hPa 0,0 l/m 15,2 km/h (3 Bft) SW 234 0 min 0,000 mm 0,0 UV-I 105 W/m -2,5 C -7,5 C 20,9 km/h (4 Bft) 98,00 %
15.01.2017 14:24 -0,4 C 85 % 1019,2 hPa 0,0 l/m 15,4 km/h (3 Bft) W-SW 243 0 min 0,000 mm 0,0 UV-I 97 W/m -2,6 C -7,7 C 22,5 km/h (4 Bft) 98,11 %
15.01.2017 14:26 -0,5 C 85 % 1019,1 hPa 0,0 l/m 16,2 km/h (3 Bft) SW 231 0 min 0,000 mm 0,0 UV-I 91 W/m -2,7 C -8,3 C 20,9 km/h (4 Bft) 97,37 %
15.01.2017 14:28 -0,6 C 86 % 1019,3 hPa 0,0 l/m 15,2 km/h (3 Bft) SW 227 0 min 0,000 mm 0,0 UV-I 87 W/m -2,6 C -7,8 C 22,5 km/h (4 Bft) 96,23 %
15.01.2017 14:30 -0,6 C 86 % 1019,3 hPa 0,0 l/m 14,8 km/h (3 Bft) W 275 0 min 0,000 mm 0,0 UV-I 90 W/m -2,6 C -7,6 C 19,3 km/h (3 Bft) 97,73 %
15.01.2017 14:32 -0,6 C 86 % 1019,2 hPa 0,0 l/m 10,7 km/h (2 Bft) SW 216 0 min 0,000 mm 0,0 UV-I 88 W/m -2,6 C -4,7 C 19,3 km/h (3 Bft) 96,23 %
15.01.2017 14:34 -0,6 C 86 % 1019,3 hPa 0,0 l/m 10,3 km/h (2 Bft) W-SW 248 0 min 0,000 mm 0,0 UV-I 79 W/m -2,6 C -4,4 C 17,7 km/h (3 Bft) 97,56 %
15.01.2017 14:36 -0,6 C 86 % 1019,2 hPa 0,0 l/m 11,3 km/h (2 Bft) W-SW 238 0 min 0,000 mm 0,0 UV-I 67 W/m -2,6 C -5,2 C 19,3 km/h (3 Bft) 98,00 %
15.01.2017 14:38 -0,6 C 87 % 1019,3 hPa 0,0 l/m 14,6 km/h (3 Bft) SW 230 0 min 0,000 mm 0,0 UV-I 55 W/m -2,5 C -7,5 C 22,5 km/h (4 Bft) 97,87 %
15.01.2017 14:40 -0,6 C 87 % 1019,3 hPa 0,0 l/m 12,7 km/h (3 Bft) SW 234 0 min 0,000 mm 0,0 UV-I 47 W/m -2,5 C -6,2 C 24,1 km/h (4 Bft) 97,37 %
15.01.2017 14:42 -0,6 C 87 % 1019,2 hPa 0,0 l/m 15,3 km/h (3 Bft) SW 230 0 min 0,000 mm 0,0 UV-I 49 W/m -2,5 C -7,9 C 22,5 km/h (4 Bft) 95,45 %
15.01.2017 14:44 -0,7 C 86 % 1019,3 hPa 0,0 l/m 12,7 km/h (3 Bft) W-SW 240 0 min 0,000 mm 0,0 UV-I 57 W/m -2,7 C -6,3 C 19,3 km/h (3 Bft) 100,00 %
15.01.2017 14:46 -0,7 C 86 % 1019,2 hPa 0,0 l/m 13,0 km/h (3 Bft) W 259 0 min 0,000 mm 0,0 UV-I 60 W/m -2,7 C -6,5 C 19,3 km/h (3 Bft) 100,00 %
15.01.2017 14:48 -0,7 C 86 % 1019,3 hPa 0,0 l/m 10,9 km/h (2 Bft) SW 228 0 min 0,000 mm 0,0 UV-I 46 W/m -2,7 C -5,0 C 16,1 km/h (3 Bft) 98,18 %
15.01.2017 14:50 -0,8 C 86 % 1019,2 hPa 0,0 l/m 13,7 km/h (3 Bft) SW 224 0 min 0,000 mm 0,0 UV-I 39 W/m -2,8 C -7,1 C 24,1 km/h (4 Bft) 100,00 %
15.01.2017 14:52 -0,8 C 86 % 1019,3 hPa 0,0 l/m 12,3 km/h (3 Bft) W-SW 240 0 min 0,000 mm 0,0 UV-I 39 W/m -2,8 C -6,1 C 19,3 km/h (3 Bft) 100,00 %
15.01.2017 14:54 -0,8 C 87 % 1019,2 hPa 0,0 l/m 14,2 km/h (3 Bft) W-SW 247 0 min 0,000 mm 0,0 UV-I 46 W/m -2,7 C -7,4 C 19,3 km/h (3 Bft) 100,00 %
15.01.2017 14:56 -0,9 C 87 % 1019,2 hPa 0,0 l/m 12,8 km/h (3 Bft) S 182 0 min 0,000 mm 0,0 UV-I 58 W/m -2,8 C -6,6 C 22,5 km/h (4 Bft) 100,00 %
15.01.2017 14:58 -0,9 C 88 % 1019,3 hPa 0,0 l/m 14,8 km/h (3 Bft) W-SW 241 0 min 0,000 mm 0,0 UV-I 76 W/m -2,6 C -7,9 C 20,9 km/h (4 Bft) 100,00 %
15.01.2017 15:00 -1,0 C 89 % 1019,3 hPa 0,0 l/m 12,8 km/h (3 Bft) S-SW 213 2 min 0,051 mm 0,0 UV-I 163 W/m -2,6 C -6,7 C 19,3 km/h (3 Bft) 100,00 %
15.01.2017 15:02 -1,0 C 90 % 1019,3 hPa 0,0 l/m 13,9 km/h (3 Bft) SW 232 2 min 0,000 mm 0,0 UV-I 183 W/m -2,4 C -7,5 C 20,9 km/h (4 Bft) 100,00 %
15.01.2017 15:04 -0,9 C 89 % 1019,2 hPa 0,0 l/m 14,3 km/h (3 Bft) W-SW 252 2 min 0,000 mm 0,0 UV-I 188 W/m -2,5 C -7,6 C 20,9 km/h (4 Bft) 100,00 %
15.01.2017 15:06 -0,9 C 89 % 1019,2 hPa 0,0 l/m 13,5 km/h (3 Bft) W-SW 255 2 min 0,000 mm 0,0 UV-I 198 W/m -2,5 C -7,1 C 22,5 km/h (4 Bft) 100,00 %
15.01.2017 15:08 -0,9 C 89 % 1019,2 hPa 0,0 l/m 12,5 km/h (3 Bft) SW 215 2 min 0,000 mm 0,0 UV-I 190 W/m -2,5 C -6,4 C 17,7 km/h (3 Bft) 98,08 %
15.01.2017 15:10 -0,9 C 89 % 1019,2 hPa 0,0 l/m 13,3 km/h (3 Bft) S-SW 208 2 min 0,000 mm 0,0 UV-I 170 W/m -2,5 C -7,0 C 20,9 km/h (4 Bft) 100,00 %
15.01.2017 15:12 -0,8 C 88 % 1019,2 hPa 0,0 l/m 14,2 km/h (3 Bft) S-SW 202 2 min 0,000 mm 0,0 UV-I 112 W/m -2,5 C -7,4 C 19,3 km/h (3 Bft) 96,23 %
15.01.2017 15:14 -0,8 C 88 % 1019,2 hPa 0,0 l/m 11,4 km/h (2 Bft) S-SW 211 0 min 0,000 mm 0,0 UV-I 96 W/m -2,5 C -5,5 C 19,3 km/h (3 Bft) 100,00 %
15.01.2017 15:16 -0,8 C 87 % 1019,2 hPa 0,0 l/m 16,8 km/h (3 Bft) SW 224 0 min 0,000 mm 0,0 UV-I 92 W/m -2,7 C -9,0 C 22,5 km/h (4 Bft) 100,00 %
15.01.2017 15:18 -0,8 C 87 % 1019,2 hPa 0,0 l/m 13,3 km/h (3 Bft) S-SW 196 2 min 0,000 mm 0,0 UV-I 103 W/m -2,7 C -6,8 C 20,9 km/h (4 Bft) 100,00 %
15.01.2017 15:20 -0,8 C 87 % 1019,2 hPa 0,0 l/m 11,8 km/h (2 Bft) SW 216 2 min 0,000 mm 0,0 UV-I 100 W/m -2,7 C -5,8 C 17,7 km/h (3 Bft) 97,87 %
15.01.2017 15:22 -0,8 C 87 % 1019,2 hPa 0,0 l/m 10,3 km/h (2 Bft) SW 214 2 min 0,000 mm 0,0 UV-I 89 W/m -2,7 C -4,6 C 17,7 km/h (3 Bft) 100,00 %
15.01.2017 15:24 -0,8 C 87 % 1019,2 hPa 0,0 l/m 11,3 km/h (2 Bft) SW 224 0 min 0,000 mm 0,0 UV-I 71 W/m -2,7 C -5,4 C 16,1 km/h (3 Bft) 100,00 %
15.01.2017 15:26 -0,9 C 87 % 1019,2 hPa 0,0 l/m 12,4 km/h (3 Bft) SW 236 0 min 0,000 mm 0,0 UV-I 53 W/m -2,8 C -6,3 C 19,3 km/h (3 Bft) 100,00 %
15.01.2017 15:28 -0,9 C 87 % 1019,3 hPa 0,0 l/m 11,0 km/h (2 Bft) SW 228 0 min 0,000 mm 0,0 UV-I 40 W/m -2,8 C -5,3 C 17,7 km/h (3 Bft) 100,00 %
15.01.2017 15:30 -1,0 C 87 % 1019,3 hPa 0,0 l/m 11,9 km/h (2 Bft) SW 227 0 min 0,000 mm 0,0 UV-I 33 W/m -2,9 C -6,1 C 17,7 km/h (3 Bft) 100,00 %
15.01.2017 15:32 -1,1 C 87 % 1019,3 hPa 0,0 l/m 11,9 km/h (2 Bft) SW 234 0 min 0,000 mm 0,0 UV-I 28 W/m -3,0 C -6,2 C 17,7 km/h (3 Bft) 100,00 %
15.01.2017 15:34 -1,2 C 87 % 1019,4 hPa 0,0 l/m 12,3 km/h (3 Bft) W-SW 248 0 min 0,000 mm 0,0 UV-I 28 W/m -3,1 C -6,6 C 17,7 km/h (3 Bft) 100,00 %
15.01.2017 15:36 -1,3 C 88 % 1019,4 hPa 0,0 l/m 10,5 km/h (2 Bft) SW 215 0 min 0,000 mm 0,0 UV-I 28 W/m -3,0 C -5,3 C 16,1 km/h (3 Bft) 100,00 %
15.01.2017 15:38 -1,4 C 88 % 1019,4 hPa 0,0 l/m 7,8 km/h (2 Bft) W-SW 238 0 min 0,000 mm 0,0 UV-I 28 W/m -3,1 C -2,9 C 11,3 km/h (2 Bft) 100,00 %
15.01.2017 15:40 -1,5 C 88 % 1019,4 hPa 0,0 l/m 8,2 km/h (2 Bft) S-SW 205 0 min 0,000 mm 0,0 UV-I 27 W/m -3,2 C -3,4 C 12,9 km/h (3 Bft) 100,00 %
15.01.2017 15:42 -1,5 C 89 % 1019,4 hPa 0,0 l/m 8,2 km/h (2 Bft) SW 234 0 min 0,000 mm 0,0 UV-I 30 W/m -3,1 C -3,4 C 12,9 km/h (3 Bft) 100,00 %
15.01.2017 15:44 -1,6 C 89 % 1019,4 hPa 0,0 l/m 8,7 km/h (2 Bft) W-SW 240 0 min 0,000 mm 0,0 UV-I 25 W/m -3,2 C -4,0 C 14,5 km/h (3 Bft) 100,00 %
15.01.2017 15:46 -1,6 C 89 % 1019,4 hPa 0,0 l/m 8,6 km/h (2 Bft) SW 216 0 min 0,000 mm 0,0 UV-I 25 W/m -3,2 C -3,9 C 17,7 km/h (3 Bft) 100,00 %
15.01.2017 15:48 -1,6 C 88 % 1019,4 hPa 0,0 l/m 8,3 km/h (2 Bft) S-SW 201 0 min 0,000 mm 0,0 UV-I 24 W/m -3,3 C -3,6 C 12,9 km/h (3 Bft) 100,00 %
15.01.2017 15:50 -1,6 C 88 % 1019,4 hPa 0,0 l/m 9,5 km/h (2 Bft) SW 231 0 min 0,000 mm 0,0 UV-I 22 W/m -3,3 C -4,8 C 14,5 km/h (3 Bft) 98,00 %
15.01.2017 15:52 -1,6 C 88 % 1019,5 hPa 0,0 l/m 10,0 km/h (2 Bft) SW 232 0 min 0,000 mm 0,0 UV-I 19 W/m -3,3 C -5,2 C 19,3 km/h (3 Bft) 100,00 %
15.01.2017 15:54 -1,6 C 88 % 1019,4 hPa 0,0 l/m 12,1 km/h (2 Bft) S-SW 207 0 min 0,000 mm 0,0 UV-I 19 W/m -3,3 C -6,9 C 16,1 km/h (3 Bft) 100,00 %
15.01.2017 15:56 -1,6 C 87 % 1019,5 hPa 0,0 l/m 10,9 km/h (2 Bft) S-SW 205 0 min 0,000 mm 0,0 UV-I 19 W/m -3,5 C -6,0 C 17,7 km/h (3 Bft) 100,00 %
15.01.2017 15:58 -1,6 C 87 % 1019,5 hPa 0,0 l/m 15,2 km/h (3 Bft) SW 232 0 min 0,000 mm 0,0 UV-I 19 W/m -3,5 C -9,0 C 22,5 km/h (4 Bft) 98,11 %
15.01.2017 16:00 -1,6 C 87 % 1019,5 hPa 0,0 l/m 19,0 km/h (3 Bft) S-SW 209 0 min 0,000 mm 0,0 UV-I 19 W/m -3,5 C -11,2 C 25,7 km/h (4 Bft) 97,73 %
15.01.2017 16:02 -1,4 C 87 % 1019,6 hPa 0,0 l/m 16,7 km/h (3 Bft) W 265 0 min 0,025 mm 0,0 UV-I 18 W/m -3,3 C -9,7 C 29,0 km/h (5 Bft) 100,00 %
15.01.2017 16:04 -1,3 C 87 % 1019,6 hPa 0,0 l/m 21,4 km/h (4 Bft) W-SW 244 0 min 0,000 mm 0,0 UV-I 21 W/m -3,2 C -12,0 C 32,2 km/h (5 Bft) 100,00 %
15.01.2017 16:06 -1,3 C 88 % 1019,6 hPa 0,0 l/m 19,5 km/h (3 Bft) W-SW 237 0 min 0,000 mm 0,0 UV-I 34 W/m -3,0 C -11,1 C 30,6 km/h (5 Bft) 100,00 %
15.01.2017 16:08 -1,3 C 89 % 1019,5 hPa 0,0 l/m 13,7 km/h (3 Bft) W 259 0 min 0,000 mm 0,0 UV-I 29 W/m -2,9 C -7,7 C 17,7 km/h (3 Bft) 100,00 %
15.01.2017 16:10 -1,3 C 90 % 1019,5 hPa 0,0 l/m 14,9 km/h (3 Bft) SW 236 0 min 0,000 mm 0,0 UV-I 25 W/m -2,7 C -8,5 C 20,9 km/h (4 Bft) 96,00 %
15.01.2017 16:12 -1,4 C 90 % 1019,5 hPa 0,0 l/m 15,8 km/h (3 Bft) W-SW 248 0 min 0,000 mm 0,0 UV-I 20 W/m -2,8 C -9,2 C 22,5 km/h (4 Bft) 97,62 %
15.01.2017 16:14 -1,4 C 90 % 1019,5 hPa 0,0 l/m 14,5 km/h (3 Bft) W 267 0 min 0,000 mm 0,0 UV-I 16 W/m -2,8 C -8,4 C 20,9 km/h (4 Bft) 97,56 %
15.01.2017 16:16 -1,5 C 90 % 1019,5 hPa 0,0 l/m 12,8 km/h (3 Bft) W-SW 251 0 min 0,000 mm 0,0 UV-I 14 W/m -2,9 C -7,3 C 19,3 km/h (3 Bft) 96,23 %
15.01.2017 16:18 -1,5 C 89 % 1019,5 hPa 0,0 l/m 9,7 km/h (2 Bft) W-SW 254 0 min 0,000 mm 0,0 UV-I 13 W/m -3,1 C -4,8 C 12,9 km/h (3 Bft) 98,11 %
15.01.2017 16:20 -1,5 C 90 % 1019,6 hPa 0,0 l/m 9,1 km/h (2 Bft) W-SW 238 0 min 0,000 mm 0,0 UV-I 14 W/m -2,9 C -4,3 C 12,9 km/h (3 Bft) 97,37 %
15.01.2017 16:22 -1,6 C 90 % 1019,5 hPa 0,0 l/m 9,9 km/h (2 Bft) W-SW 246 0 min 0,000 mm 0,0 UV-I 12 W/m -3,0 C -5,1 C 14,5 km/h (3 Bft) 98,31 %
15.01.2017 16:24 -1,6 C 90 % 1019,6 hPa 0,0 l/m 7,6 km/h (2 Bft) S-SW 200 2 min 0,000 mm 0,0 UV-I 12 W/m -3,0 C -2,9 C 11,3 km/h (2 Bft) 97,56 %
15.01.2017 16:26 -1,7 C 90 % 1019,6 hPa 0,0 l/m 6,2 km/h (2 Bft) SW 216 0 min 0,000 mm 0,0 UV-I 11 W/m -3,1 C -1,7 C 9,7 km/h (2 Bft) 96,23 %
15.01.2017 16:28 -1,8 C 90 % 1019,6 hPa 0,0 l/m 6,2 km/h (2 Bft) S-SW 211 0 min 0,000 mm 0,0 UV-I 11 W/m -3,2 C -1,8 C 9,7 km/h (2 Bft) 97,56 %
15.01.2017 16:30 -1,8 C 90 % 1019,6 hPa 0,0 l/m 6,1 km/h (2 Bft) SW 216 0 min 0,000 mm 0,0 UV-I 10 W/m -3,2 C -1,8 C 9,7 km/h (2 Bft) 95,12 %
15.01.2017 16:32 -1,9 C 90 % 1019,6 hPa 0,0 l/m 8,4 km/h (2 Bft) SW 229 0 min 0,000 mm 0,0 UV-I 9 W/m -3,3 C -4,0 C 11,3 km/h (2 Bft) 96,23 %
15.01.2017 16:34 -1,9 C 90 % 1019,6 hPa 0,0 l/m 6,1 km/h (2 Bft) S-SW 209 0 min 0,000 mm 0,0 UV-I 9 W/m -3,3 C -1,9 C 9,7 km/h (2 Bft) 98,00 %
15.01.2017 16:36 -2,0 C 90 % 1019,6 hPa 0,0 l/m 5,8 km/h (2 Bft) S-SW 210 0 min 0,000 mm 0,0 UV-I 8 W/m -3,4 C -2,0 C 9,7 km/h (2 Bft) 94,74 %
15.01.2017 16:38 -2,1 C 90 % 1019,6 hPa 0,0 l/m 7,9 km/h (2 Bft) S-SW 209 0 min 0,000 mm 0,0 UV-I 7 W/m -3,5 C -3,7 C 12,9 km/h (3 Bft) 98,00 %
15.01.2017 16:40 -2,1 C 90 % 1019,6 hPa 0,0 l/m 8,0 km/h (2 Bft) S-SW 213 0 min 0,000 mm 0,0 UV-I 7 W/m -3,5 C -3,9 C 12,9 km/h (3 Bft) 98,00 %
15.01.2017 16:42 -2,1 C 90 % 1019,6 hPa 0,0 l/m 9,7 km/h (2 Bft) S-SW 209 0 min 0,000 mm 0,0 UV-I 6 W/m -3,5 C -5,5 C 14,5 km/h (3 Bft) 97,73 %
15.01.2017 16:44 -1,9 C 90 % 1019,6 hPa 0,0 l/m 8,2 km/h (2 Bft) S 189 0 min 0,000 mm 0,0 UV-I 5 W/m -3,3 C -3,8 C 11,3 km/h (2 Bft) 97,56 %
15.01.2017 16:46 -1,9 C 89 % 1019,7 hPa 0,0 l/m 8,4 km/h (2 Bft) SW 219 0 min 0,000 mm 0,0 UV-I 5 W/m -3,5 C -4,0 C 11,3 km/h (2 Bft) 98,31 %
15.01.2017 16:48 -1,9 C 89 % 1019,6 hPa 0,0 l/m 9,2 km/h (2 Bft) SW 227 0 min 0,000 mm 0,0 UV-I 5 W/m -3,5 C -4,8 C 14,5 km/h (3 Bft) 100,00 %
15.01.2017 16:50 -1,8 C 89 % 1019,6 hPa 0,0 l/m 8,4 km/h (2 Bft) SW 223 0 min 0,000 mm 0,0 UV-I 5 W/m -3,4 C -3,9 C 12,9 km/h (3 Bft) 100,00 %
15.01.2017 16:52 -1,8 C 88 % 1019,6 hPa 0,0 l/m 7,0 km/h (2 Bft) S-SW 198 0 min 0,000 mm 0,0 UV-I 2 W/m -3,5 C -2,5 C 12,9 km/h (3 Bft) 100,00 %
15.01.2017 16:54 -1,8 C 88 % 1019,7 hPa 0,0 l/m 8,7 km/h (2 Bft) S-SW 208 0 min 0,000 mm 0,0 UV-I 0 W/m -3,5 C -4,2 C 14,5 km/h (3 Bft) 97,56 %
15.01.2017 16:56 -1,8 C 88 % 1019,7 hPa 0,0 l/m 9,7 km/h (2 Bft) SW 219 0 min 0,000 mm 0,0 UV-I 0 W/m -3,5 C -5,2 C 14,5 km/h (3 Bft) 98,36 %
15.01.2017 16:58 -1,8 C 88 % 1019,7 hPa 0,0 l/m 9,2 km/h (2 Bft) S-SW 209 0 min 0,000 mm 0,0 UV-I 0 W/m -3,5 C -4,7 C 12,9 km/h (3 Bft) 97,73 %
15.01.2017 17:00 -1,8 C 88 % 1019,8 hPa 0,0 l/m 10,8 km/h (2 Bft) SW 236 0 min 0,000 mm 0,0 UV-I 0 W/m -3,5 C -6,1 C 17,7 km/h (3 Bft) 100,00 %
15.01.2017 17:02 -1,8 C 88 % 1019,8 hPa 0,0 l/m 10,8 km/h (2 Bft) S 185 0 min 0,000 mm 0,0 UV-I 0 W/m -3,5 C -6,1 C 19,3 km/h (3 Bft) 100,00 %
15.01.2017 17:04 -1,7 C 88 % 1019,8 hPa 0,0 l/m 13,3 km/h (3 Bft) SW 230 0 min 0,000 mm 0,0 UV-I 0 W/m -3,4 C -7,9 C 22,5 km/h (4 Bft) 100,00 %
15.01.2017 17:06 -1,6 C 88 % 1019,8 hPa 0,0 l/m 11,3 km/h (2 Bft) S-SW 202 0 min 0,000 mm 0,0 UV-I 0 W/m -3,3 C -6,3 C 16,1 km/h (3 Bft) 100,00 %
15.01.2017 17:08 -1,6 C 88 % 1019,8 hPa 0,0 l/m 10,3 km/h (2 Bft) SW 215 0 min 0,000 mm 0,0 UV-I 0 W/m -3,3 C -5,5 C 19,3 km/h (3 Bft) 100,00 %
15.01.2017 17:10 -1,6 C 88 % 1019,8 hPa 0,0 l/m 10,5 km/h (2 Bft) S-SW 205 0 min 0,000 mm 0,0 UV-I 0 W/m -3,3 C -5,6 C 16,1 km/h (3 Bft) 97,56 %
15.01.2017 17:12 -1,6 C 89 % 1019,8 hPa 0,0 l/m 11,0 km/h (2 Bft) W-SW 240 0 min 0,000 mm 0,0 UV-I 0 W/m -3,2 C -6,1 C 16,1 km/h (3 Bft) 100,00 %
15.01.2017 17:14 -1,6 C 89 % 1019,8 hPa 0,0 l/m 11,8 km/h (2 Bft) SW 226 0 min 0,000 mm 0,0 UV-I 0 W/m -3,2 C -6,7 C 17,7 km/h (3 Bft) 100,00 %
15.01.2017 17:16 -1,6 C 89 % 1019,8 hPa 0,0 l/m 12,5 km/h (3 Bft) W-SW 249 0 min 0,000 mm 0,0 UV-I 0 W/m -3,2 C -7,2 C 17,7 km/h (3 Bft) 100,00 %
15.01.2017 17:18 -1,7 C 90 % 1019,8 hPa 0,0 l/m 9,9 km/h (2 Bft) SW 236 0 min 0,000 mm 0,0 UV-I 0 W/m -3,1 C -5,2 C 14,5 km/h (3 Bft) 100,00 %
15.01.2017 17:20 -1,7 C 90 % 1019,8 hPa 0,0 l/m 6,4 km/h (2 Bft) SW 228 0 min 0,000 mm 0,0 UV-I 0 W/m -3,1 C -1,7 C 9,7 km/h (2 Bft) 100,00 %
15.01.2017 17:22 -1,8 C 90 % 1019,8 hPa 0,0 l/m 6,1 km/h (2 Bft) SW 235 0 min 0,000 mm 0,0 UV-I 0 W/m -3,2 C -1,8 C 9,7 km/h (2 Bft) 100,00 %
15.01.2017 17:24 -1,9 C 90 % 1019,8 hPa 0,0 l/m 5,7 km/h (1 Bft) SW 236 0 min 0,000 mm 0,0 UV-I 0 W/m -3,3 C -1,9 C 9,7 km/h (2 Bft) 100,00 %
15.01.2017 17:26 -1,9 C 90 % 1019,8 hPa 0,0 l/m 6,6 km/h (2 Bft) SW 215 0 min 0,000 mm 0,0 UV-I 0 W/m -3,3 C -2,1 C 11,3 km/h (2 Bft) 100,00 %
15.01.2017 17:28 -2,0 C 91 % 1019,8 hPa 0,0 l/m 7,3 km/h (2 Bft) S-SW 213 0 min 0,000 mm 0,0 UV-I 0 W/m -3,3 C -3,0 C 12,9 km/h (3 Bft) 100,00 %
15.01.2017 17:30 -2,1 C 91 % 1019,8 hPa 0,0 l/m 8,0 km/h (2 Bft) S-SW 194 0 min 0,000 mm 0,0 UV-I 0 W/m -3,4 C -3,9 C 11,3 km/h (2 Bft) 98,00 %
15.01.2017 17:32 -2,1 C 91 % 1019,8 hPa 0,0 l/m 8,4 km/h (2 Bft) S-SW 206 0 min 0,000 mm 0,0 UV-I 0 W/m -3,4 C -4,3 C 11,3 km/h (2 Bft) 100,00 %
15.01.2017 17:34 -2,1 C 91 % 1019,8 hPa 0,0 l/m 7,9 km/h (2 Bft) S-SW 209 0 min 0,000 mm 0,0 UV-I 0 W/m -3,4 C -3,7 C 12,9 km/h (3 Bft) 100,00 %
15.01.2017 17:36 -2,1 C 91 % 1019,8 hPa 0,0 l/m 9,9 km/h (2 Bft) S 171 0 min 0,000 mm 0,0 UV-I 0 W/m -3,4 C -5,7 C 14,5 km/h (3 Bft) 100,00 %
15.01.2017 17:38 -2,0 C 90 % 1019,8 hPa 0,0 l/m 10,1 km/h (2 Bft) W-SW 240 0 min 0,000 mm 0,0 UV-I 0 W/m -3,4 C -5,7 C 14,5 km/h (3 Bft) 100,00 %
15.01.2017 17:40 -1,9 C 90 % 1019,8 hPa 0,0 l/m 9,7 km/h (2 Bft) SW 228 0 min 0,000 mm 0,0 UV-I 0 W/m -3,3 C -5,3 C 17,7 km/h (3 Bft) 100,00 %
15.01.2017 17:42 -1,8 C 89 % 1019,8 hPa 0,0 l/m 11,3 km/h (2 Bft) S-SW 202 0 min 0,000 mm 0,0 UV-I 0 W/m -3,4 C -6,5 C 17,7 km/h (3 Bft) 100,00 %
15.01.2017 17:44 -1,8 C 89 % 1019,8 hPa 0,0 l/m 11,5 km/h (2 Bft) S-SW 204 0 min 0,000 mm 0,0 UV-I 0 W/m -3,4 C -6,7 C 16,1 km/h (3 Bft) 100,00 %
15.01.2017 17:46 -1,7 C 88 % 1019,8 hPa 0,0 l/m 9,5 km/h (2 Bft) SW 232 0 min 0,000 mm 0,0 UV-I 0 W/m -3,4 C -4,9 C 14,5 km/h (3 Bft) 100,00 %
15.01.2017 17:48 -1,7 C 88 % 1019,8 hPa 0,0 l/m 10,5 km/h (2 Bft) S-SW 197 0 min 0,000 mm 0,0 UV-I 0 W/m -3,4 C -5,8 C 16,1 km/h (3 Bft) 100,00 %
15.01.2017 17:50 -1,7 C 88 % 1019,8 hPa 0,0 l/m 12,1 km/h (2 Bft) S-SW 212 0 min 0,000 mm 0,0 UV-I 0 W/m -3,4 C -7,0 C 17,7 km/h (3 Bft) 100,00 %
15.01.2017 17:52 -1,7 C 87 % 1019,9 hPa 0,0 l/m 13,0 km/h (3 Bft) S-SW 205 0 min 0,000 mm 0,0 UV-I 0 W/m -3,6 C -7,7 C 19,3 km/h (3 Bft) 100,00 %
15.01.2017 17:54 -1,7 C 87 % 1019,9 hPa 0,0 l/m 9,3 km/h (2 Bft) S-SW 204 0 min 0,000 mm 0,0 UV-I 0 W/m -3,6 C -4,7 C 16,1 km/h (3 Bft) 100,00 %
15.01.2017 17:56 -1,7 C 87 % 1019,9 hPa 0,0 l/m 12,5 km/h (3 Bft) SW 226 0 min 0,000 mm 0,0 UV-I 0 W/m -3,6 C -7,3 C 17,7 km/h (3 Bft) 100,00 %
15.01.2017 17:58 -1,7 C 87 % 1019,9 hPa 0,0 l/m 8,3 km/h (2 Bft) W-SW 250 0 min 0,000 mm 0,0 UV-I 0 W/m -3,6 C -3,7 C 12,9 km/h (3 Bft) 98,00 %
15.01.2017 18:00 -1,7 C 87 % 1019,9 hPa 0,0 l/m 10,0 km/h (2 Bft) SW 234 0 min 0,000 mm 0,0 UV-I 0 W/m -3,6 C -5,3 C 16,1 km/h (3 Bft) 97,56 %
15.01.2017 18:02 -1,7 C 87 % 1020,0 hPa 0,0 l/m 13,3 km/h (3 Bft) SW 234 0 min 0,000 mm 0,0 UV-I 0 W/m -3,6 C -7,9 C 19,3 km/h (3 Bft) 100,00 %
15.01.2017 18:04 -1,7 C 87 % 1020,0 hPa 0,0 l/m 15,8 km/h (3 Bft) SW 231 0 min 0,000 mm 0,0 UV-I 0 W/m -3,6 C -9,5 C 22,5 km/h (4 Bft) 100,00 %
15.01.2017 18:06 -1,6 C 87 % 1020,0 hPa 0,0 l/m 13,8 km/h (3 Bft) S-SW 213 0 min 0,000 mm 0,0 UV-I 0 W/m -3,5 C -8,1 C 19,3 km/h (3 Bft) 100,00 %
15.01.2017 18:08 -1,6 C 86 % 1020,0 hPa 0,0 l/m 12,5 km/h (3 Bft) SW 217 0 min 0,000 mm 0,0 UV-I 0 W/m -3,6 C -7,2 C 19,3 km/h (3 Bft) 98,00 %
15.01.2017 18:10 -1,6 C 86 % 1020,0 hPa 0,0 l/m 13,7 km/h (3 Bft) W-SW 240 0 min 0,000 mm 0,0 UV-I 0 W/m -3,6 C -8,1 C 20,9 km/h (4 Bft) 100,00 %
15.01.2017 18:12 -1,6 C 86 % 1020,0 hPa 0,0 l/m 15,6 km/h (3 Bft) SW 230 0 min 0,000 mm 0,0 UV-I 0 W/m -3,6 C -9,3 C 22,5 km/h (4 Bft) 100,00 %
15.01.2017 18:14 -1,6 C 86 % 1020,0 hPa 0,0 l/m 15,8 km/h (3 Bft) SW 229 0 min 0,000 mm 0,0 UV-I 0 W/m -3,6 C -9,4 C 24,1 km/h (4 Bft) 98,08 %
15.01.2017 18:16 -1,5 C 87 % 1020,1 hPa 0,0 l/m 15,1 km/h (3 Bft) SW 236 0 min 0,000 mm 0,0 UV-I 0 W/m -3,4 C -8,9 C 22,5 km/h (4 Bft) 100,00 %
15.01.2017 18:18 -1,5 C 87 % 1020,1 hPa 0,0 l/m 15,5 km/h (3 Bft) SW 225 0 min 0,000 mm 0,0 UV-I 0 W/m -3,4 C -9,1 C 22,5 km/h (4 Bft) 100,00 %
15.01.2017 18:20 -1,5 C 87 % 1020,1 hPa 0,0 l/m 15,6 km/h (3 Bft) W-SW 242 0 min 0,000 mm 0,0 UV-I 0 W/m -3,4 C -9,2 C 20,9 km/h (4 Bft) 97,87 %
15.01.2017 18:22 -1,5 C 87 % 1020,1 hPa 0,0 l/m 14,9 km/h (3 Bft) S-SW 210 0 min 0,000 mm 0,0 UV-I 0 W/m -3,4 C -8,7 C 20,9 km/h (4 Bft) 97,87 %
15.01.2017 18:24 -1,5 C 87 % 1020,1 hPa 0,0 l/m 14,6 km/h (3 Bft) SW 227 0 min 0,000 mm 0,0 UV-I 0 W/m -3,4 C -8,5 C 19,3 km/h (3 Bft) 98,00 %
15.01.2017 18:26 -1,5 C 87 % 1020,2 hPa 0,0 l/m 11,3 km/h (2 Bft) SW 217 0 min 0,000 mm 0,0 UV-I 0 W/m -3,4 C -6,2 C 16,1 km/h (3 Bft) 98,00 %
15.01.2017 18:28 -1,5 C 87 % 1020,1 hPa 0,0 l/m 15,7 km/h (3 Bft) W-SW 251 0 min 0,000 mm 0,0 UV-I 0 W/m -3,4 C -9,2 C 24,1 km/h (4 Bft) 97,56 %
15.01.2017 18:30 -1,6 C 88 % 1020,2 hPa 0,0 l/m 13,4 km/h (3 Bft) W-SW 239 0 min 0,000 mm 0,0 UV-I 0 W/m -3,3 C -7,9 C 22,5 km/h (4 Bft) 98,11 %
15.01.2017 18:32 -1,6 C 88 % 1020,2 hPa 0,0 l/m 14,1 km/h (3 Bft) SW 232 0 min 0,000 mm 0,0 UV-I 0 W/m -3,3 C -8,3 C 19,3 km/h (3 Bft) 97,56 %
15.01.2017 18:34 -1,7 C 88 % 1020,2 hPa 0,0 l/m 13,1 km/h (3 Bft) S-SW 211 0 min 0,000 mm 0,0 UV-I 0 W/m -3,4 C -7,8 C 24,1 km/h (4 Bft) 95,74 %
15.01.2017 18:36 -1,8 C 88 % 1020,2 hPa 0,0 l/m 11,7 km/h (2 Bft) W-SW 254 0 min 0,000 mm 0,0 UV-I 0 W/m -3,5 C -6,8 C 17,7 km/h (3 Bft) 98,00 %
15.01.2017 18:38 -1,8 C 88 % 1020,2 hPa 0,0 l/m 11,9 km/h (2 Bft) W-SW 240 0 min 0,000 mm 0,0 UV-I 0 W/m -3,5 C -7,0 C 22,5 km/h (4 Bft) 97,87 %
15.01.2017 18:40 -1,9 C 89 % 1020,3 hPa 0,0 l/m 13,1 km/h (3 Bft) W-SW 246 0 min 0,000 mm 0,0 UV-I 0 W/m -3,5 C -8,0 C 20,9 km/h (4 Bft) 97,56 %
15.01.2017 18:42 -2,1 C 89 % 1020,3 hPa 0,0 l/m 12,4 km/h (3 Bft) SW 222 0 min 0,000 mm 0,0 UV-I 0 W/m -3,7 C -7,7 C 17,7 km/h (3 Bft) 98,00 %
15.01.2017 18:44 -2,2 C 89 % 1020,3 hPa 0,0 l/m 14,3 km/h (3 Bft) SW 236 0 min 0,000 mm 0,0 UV-I 0 W/m -3,8 C -9,2 C 19,3 km/h (3 Bft) 97,56 %
15.01.2017 18:46 -2,2 C 90 % 1020,3 hPa 0,0 l/m 13,7 km/h (3 Bft) SW 234 0 min 0,000 mm 0,0 UV-I 0 W/m -3,6 C -8,8 C 19,3 km/h (3 Bft) 98,21 %
15.01.2017 18:48 -2,3 C 90 % 1020,3 hPa 0,0 l/m 13,7 km/h (3 Bft) SW 231 0 min 0,000 mm 0,0 UV-I 0 W/m -3,7 C -8,9 C 19,3 km/h (3 Bft) 95,74 %
15.01.2017 18:50 -2,4 C 90 % 1020,3 hPa 0,0 l/m 14,1 km/h (3 Bft) W-SW 250 0 min 0,000 mm 0,0 UV-I 0 W/m -3,8 C -9,3 C 20,9 km/h (4 Bft) 96,00 %
15.01.2017 18:52 -2,4 C 90 % 1020,4 hPa 0,0 l/m 14,6 km/h (3 Bft) S-SW 211 0 min 0,000 mm 0,0 UV-I 0 W/m -3,8 C -9,6 C 19,3 km/h (3 Bft) 97,44 %
15.01.2017 18:54 -2,5 C 91 % 1020,4 hPa 0,0 l/m 14,5 km/h (3 Bft) SW 228 0 min 0,000 mm 0,0 UV-I 0 W/m -3,8 C -9,7 C 19,3 km/h (3 Bft) 97,73 %
15.01.2017 18:56 -2,6 C 91 % 1020,4 hPa 0,0 l/m 12,1 km/h (2 Bft) SW 236 0 min 0,000 mm 0,0 UV-I 0 W/m -3,9 C -8,1 C 17,7 km/h (3 Bft) 95,45 %
15.01.2017 18:58 -2,6 C 91 % 1020,3 hPa 0,0 l/m 13,1 km/h (3 Bft) SW 229 0 min 0,000 mm 0,0 UV-I 0 W/m -3,9 C -8,8 C 17,7 km/h (3 Bft) 98,21 %
15.01.2017 19:00 -2,7 C 91 % 1020,4 hPa 0,0 l/m 12,3 km/h (3 Bft) W-SW 247 0 min 0,000 mm 0,0 UV-I 0 W/m -4,0 C -8,3 C 17,7 km/h (3 Bft) 97,56 %
15.01.2017 19:02 -2,7 C 92 % 1020,4 hPa 0,0 l/m 13,0 km/h (3 Bft) W-SW 239 0 min 0,000 mm 0,0 UV-I 0 W/m -3,8 C -8,9 C 17,7 km/h (3 Bft) 97,87 %
15.01.2017 19:04 -2,8 C 92 % 1020,5 hPa 0,0 l/m 13,6 km/h (3 Bft) W-SW 243 0 min 0,000 mm 0,0 UV-I 0 W/m -3,9 C -9,4 C 17,7 km/h (3 Bft) 100,00 %
15.01.2017 19:06 -2,8 C 92 % 1020,5 hPa 0,0 l/m 13,2 km/h (3 Bft) S-SW 212 0 min 0,000 mm 0,0 UV-I 0 W/m -3,9 C -9,1 C 16,1 km/h (3 Bft) 100,00 %
15.01.2017 19:08 -2,8 C 92 % 1020,5 hPa 0,0 l/m 13,1 km/h (3 Bft) SW 227 0 min 0,000 mm 0,0 UV-I 0 W/m -3,9 C -9,1 C 17,7 km/h (3 Bft) 100,00 %
15.01.2017 19:10 -2,8 C 92 % 1020,5 hPa 0,0 l/m 11,9 km/h (2 Bft) SW 230 0 min 0,000 mm 0,0 UV-I 0 W/m -3,9 C -8,1 C 16,1 km/h (3 Bft) 98,11 %
15.01.2017 19:13 -2,9 C 92 % 1020,5 hPa 0,0 l/m 10,8 km/h (2 Bft) SW 234 0 min 0,000 mm 0,0 UV-I 0 W/m -4,0 C -7,4 C 17,7 km/h (3 Bft) 100,00 %
15.01.2017 19:14 -2,9 C 92 % 1020,6 hPa 0,0 l/m 12,0 km/h (2 Bft) SW 220 0 min 0,000 mm 0,0 UV-I 0 W/m -4,0 C -8,3 C 16,1 km/h (3 Bft) 100,00 %
15.01.2017 19:16 -2,9 C 92 % 1020,6 hPa 0,0 l/m 10,0 km/h (2 Bft) SW 221 0 min 0,000 mm 0,0 UV-I 0 W/m -4,0 C -6,7 C 16,1 km/h (3 Bft) 100,00 %
15.01.2017 19:18 -2,9 C 92 % 1020,6 hPa 0,0 l/m 9,1 km/h (2 Bft) SW 234 0 min 0,000 mm 0,0 UV-I 0 W/m -4,0 C -5,8 C 14,5 km/h (3 Bft) 100,00 %
15.01.2017 19:20 -2,9 C 92 % 1020,6 hPa 0,0 l/m 9,5 km/h (2 Bft) S-SW 202 0 min 0,000 mm 0,0 UV-I 0 W/m -4,0 C -6,2 C 16,1 km/h (3 Bft) 100,00 %
15.01.2017 19:23 -2,9 C 92 % 1020,6 hPa 0,0 l/m 7,5 km/h (2 Bft) SW 219 0 min 0,000 mm 0,0 UV-I 0 W/m -4,0 C -4,1 C 12,9 km/h (3 Bft) 100,00 %
15.01.2017 19:24 -2,9 C 92 % 1020,6 hPa 0,0 l/m 7,7 km/h (2 Bft) S-SW 205 0 min 0,000 mm 0,0 UV-I 0 W/m -4,0 C -4,4 C 11,3 km/h (2 Bft) 90,91 %
15.01.2017 19:26 -2,9 C 92 % 1020,6 hPa 0,0 l/m 9,6 km/h (2 Bft) SW 222 0 min 0,000 mm 0,0 UV-I 0 W/m -4,0 C -6,3 C 14,5 km/h (3 Bft) 100,00 %
15.01.2017 19:28 -2,8 C 92 % 1020,6 hPa 0,0 l/m 8,8 km/h (2 Bft) SW 217 0 min 0,000 mm 0,0 UV-I 0 W/m -3,9 C -5,4 C 16,1 km/h (3 Bft) 100,00 %
15.01.2017 19:30 -2,8 C 92 % 1020,6 hPa 0,0 l/m 7,3 km/h (2 Bft) SW 220 0 min 0,000 mm 0,0 UV-I 0 W/m -3,9 C -3,8 C 11,3 km/h (2 Bft) 98,00 %
15.01.2017 19:32 -2,8 C 92 % 1020,6 hPa 0,0 l/m 8,6 km/h (2 Bft) W-SW 248 0 min 0,000 mm 0,0 UV-I 0 W/m -3,9 C -5,2 C 14,5 km/h (3 Bft) 98,00 %
15.01.2017 19:34 -2,7 C 92 % 1020,6 hPa 0,0 l/m 8,7 km/h (2 Bft) W-SW 243 0 min 0,000 mm 0,0 UV-I 0 W/m -3,8 C -5,2 C 12,9 km/h (3 Bft) 100,00 %
15.01.2017 19:36 -2,7 C 92 % 1020,6 hPa 0,0 l/m 7,3 km/h (2 Bft) SW 225 0 min 0,000 mm 0,0 UV-I 0 W/m -3,8 C -3,7 C 9,7 km/h (2 Bft) 100,00 %
15.01.2017 19:38 -2,6 C 92 % 1020,6 hPa 0,0 l/m 7,2 km/h (2 Bft) SW 218 0 min 0,000 mm 0,0 UV-I 0 W/m -3,7 C -3,5 C 9,7 km/h (2 Bft) 100,00 %
15.01.2017 19:40 -2,6 C 92 % 1020,7 hPa 0,0 l/m 7,0 km/h (2 Bft) SW 223 0 min 0,000 mm 0,0 UV-I 0 W/m -3,7 C -3,3 C 9,7 km/h (2 Bft) 100,00 %
15.01.2017 19:42 -2,6 C 92 % 1020,7 hPa 0,0 l/m 8,2 km/h (2 Bft) S-SW 213 0 min 0,000 mm 0,0 UV-I 0 W/m -3,7 C -4,6 C 12,9 km/h (3 Bft) 100,00 %
15.01.2017 19:44 -2,6 C 91 % 1020,7 hPa 0,0 l/m 7,4 km/h (2 Bft) SW 223 0 min 0,000 mm 0,0 UV-I 0 W/m -3,9 C -3,7 C 11,3 km/h (2 Bft) 97,37 %
15.01.2017 19:46 -2,5 C 92 % 1020,7 hPa 0,0 l/m 9,4 km/h (2 Bft) W-SW 242 0 min 0,000 mm 0,0 UV-I 0 W/m -3,6 C -5,7 C 14,5 km/h (3 Bft) 95,74 %
15.01.2017 19:48 -2,4 C 92 % 1020,7 hPa 0,0 l/m 7,7 km/h (2 Bft) SW 229 0 min 0,000 mm 0,0 UV-I 0 W/m -3,5 C -3,8 C 12,9 km/h (3 Bft) 98,00 %
15.01.2017 19:50 -2,4 C 91 % 1020,7 hPa 0,0 l/m 10,0 km/h (2 Bft) SW 223 0 min 0,000 mm 0,0 UV-I 0 W/m -3,7 C -6,1 C 14,5 km/h (3 Bft) 100,00 %
15.01.2017 19:52 -2,4 C 91 % 1020,7 hPa 0,0 l/m 9,6 km/h (2 Bft) SW 229 0 min 0,000 mm 0,0 UV-I 0 W/m -3,7 C -5,7 C 16,1 km/h (3 Bft) 100,00 %
15.01.2017 19:54 -2,4 C 91 % 1020,7 hPa 0,0 l/m 8,8 km/h (2 Bft) SW 233 0 min 0,000 mm 0,0 UV-I 0 W/m -3,7 C -5,0 C 12,9 km/h (3 Bft) 100,00 %
15.01.2017 19:56 -2,3 C 91 % 1020,6 hPa 0,0 l/m 9,7 km/h (2 Bft) W-SW 242 0 min 0,000 mm 0,0 UV-I 0 W/m -3,6 C -5,7 C 16,1 km/h (3 Bft) 100,00 %
15.01.2017 19:58 -2,3 C 91 % 1020,6 hPa 0,0 l/m 10,7 km/h (2 Bft) SW 220 0 min 0,000 mm 0,0 UV-I 0 W/m -3,6 C -6,6 C 14,5 km/h (3 Bft) 100,00 %
15.01.2017 20:00 -2,3 C 91 % 1020,6 hPa 0,0 l/m 12,1 km/h (2 Bft) W-SW 238 0 min 0,000 mm 0,0 UV-I 0 W/m -3,6 C -7,7 C 17,7 km/h (3 Bft) 98,00 %
15.01.2017 20:03 -2,3 C 92 % 1020,6 hPa 0,0 l/m 11,6 km/h (2 Bft) W-SW 243 0 min 0,000 mm 0,0 UV-I 0 W/m -3,4 C -7,3 C 16,1 km/h (3 Bft) 98,80 %
15.01.2017 20:04 -2,3 C 92 % 1020,6 hPa 0,0 l/m 11,3 km/h (2 Bft) SW 223 0 min 0,000 mm 0,0 UV-I 0 W/m -3,4 C -7,1 C 14,5 km/h (3 Bft) 100,00 %
15.01.2017 20:06 -2,3 C 92 % 1020,6 hPa 0,0 l/m 9,9 km/h (2 Bft) W 268 0 min 0,000 mm 0,0 UV-I 0 W/m -3,4 C -5,9 C 16,1 km/h (3 Bft) 100,00 %
15.01.2017 20:08 -2,2 C 92 % 1020,6 hPa 0,0 l/m 13,0 km/h (3 Bft) W-SW 246 0 min 0,000 mm 0,0 UV-I 0 W/m -3,3 C -8,3 C 19,3 km/h (3 Bft) 100,00 %
15.01.2017 20:10 -2,2 C 92 % 1020,6 hPa 0,0 l/m 13,9 km/h (3 Bft) SW 227 0 min 0,000 mm 0,0 UV-I 0 W/m -3,3 C -8,9 C 20,9 km/h (4 Bft) 100,00 %
15.01.2017 20:12 -2,2 C 92 % 1020,6 hPa 0,0 l/m 11,1 km/h (2 Bft) SW 235 0 min 0,000 mm 0,0 UV-I 0 W/m -3,3 C -6,8 C 16,1 km/h (3 Bft) 100,00 %
15.01.2017 20:14 -2,1 C 92 % 1020,6 hPa 0,0 l/m 13,2 km/h (3 Bft) SW 220 0 min 0,000 mm 0,0 UV-I 0 W/m -3,2 C -8,3 C 17,7 km/h (3 Bft) 100,00 %
15.01.2017 20:16 -2,1 C 92 % 1020,6 hPa 0,0 l/m 11,2 km/h (2 Bft) W-SW 251 0 min 0,000 mm 0,0 UV-I 0 W/m -3,2 C -6,8 C 17,7 km/h (3 Bft) 100,00 %
15.01.2017 20:18 -2,1 C 92 % 1020,5 hPa 0,0 l/m 14,2 km/h (3 Bft) SW 225 0 min 0,000 mm 0,0 UV-I 0 W/m -3,2 C -9,0 C 19,3 km/h (3 Bft) 100,00 %
15.01.2017 20:20 -2,1 C 92 % 1020,6 hPa 0,0 l/m 11,7 km/h (2 Bft) SW 227 0 min 0,000 mm 0,0 UV-I 0 W/m -3,2 C -7,2 C 17,7 km/h (3 Bft) 100,00 %
15.01.2017 20:22 -2,1 C 92 % 1020,5 hPa 0,0 l/m 10,3 km/h (2 Bft) S-SW 213 0 min 0,000 mm 0,0 UV-I 0 W/m -3,2 C -6,0 C 16,1 km/h (3 Bft) 100,00 %
15.01.2017 20:24 -2,1 C 92 % 1020,5 hPa 0,0 l/m 9,7 km/h (2 Bft) SW 219 0 min 0,000 mm 0,0 UV-I 0 W/m -3,2 C -5,5 C 14,5 km/h (3 Bft) 100,00 %
15.01.2017 20:26 -2,1 C 93 % 1020,5 hPa 0,0 l/m 11,1 km/h (2 Bft) SW 223 0 min 0,000 mm 0,0 UV-I 0 W/m -3,1 C -6,7 C 17,7 km/h (3 Bft) 98,21 %
15.01.2017 20:28 -2,1 C 92 % 1020,5 hPa 0,0 l/m 12,4 km/h (3 Bft) W 263 0 min 0,000 mm 0,0 UV-I 0 W/m -3,2 C -7,7 C 19,3 km/h (3 Bft) 100,00 %
15.01.2017 20:30 -2,1 C 93 % 1020,5 hPa 0,0 l/m 12,7 km/h (3 Bft) SW 235 0 min 0,000 mm 0,0 UV-I 0 W/m -3,1 C -7,9 C 19,3 km/h (3 Bft) 100,00 %
15.01.2017 20:32 -2,1 C 93 % 1020,5 hPa 0,0 l/m 13,0 km/h (3 Bft) W-SW 248 0 min 0,000 mm 0,0 UV-I 0 W/m -3,1 C -8,2 C 19,3 km/h (3 Bft) 98,00 %
15.01.2017 20:34 -2,1 C 93 % 1020,5 hPa 0,0 l/m 13,5 km/h (3 Bft) W-SW 248 0 min 0,000 mm 0,0 UV-I 0 W/m -3,1 C -8,5 C 20,9 km/h (4 Bft) 97,56 %
15.01.2017 20:36 -2,1 C 93 % 1020,5 hPa 0,0 l/m 10,9 km/h (2 Bft) W 266 0 min 0,000 mm 0,0 UV-I 0 W/m -3,1 C -6,5 C 16,1 km/h (3 Bft) 98,11 %
15.01.2017 20:38 -2,1 C 93 % 1020,5 hPa 0,0 l/m 14,1 km/h (3 Bft) SW 223 0 min 0,000 mm 0,0 UV-I 0 W/m -3,1 C -8,9 C 22,5 km/h (4 Bft) 100,00 %
15.01.2017 20:40 -2,1 C 93 % 1020,5 hPa 0,0 l/m 10,3 km/h (2 Bft) SW 236 0 min 0,000 mm 0,0 UV-I 0 W/m -3,1 C -6,0 C 16,1 km/h (3 Bft) 98,00 %
15.01.2017 20:42 -2,1 C 94 % 1020,5 hPa 0,0 l/m 12,8 km/h (3 Bft) SW 233 0 min 0,000 mm 0,0 UV-I 0 W/m -2,9 C -8,0 C 19,3 km/h (3 Bft) 98,00 %
15.01.2017 20:44 -2,1 C 94 % 1020,5 hPa 0,0 l/m 11,6 km/h (2 Bft) W-SW 258 0 min 0,000 mm 0,0 UV-I 0 W/m -2,9 C -7,1 C 16,1 km/h (3 Bft) 95,12 %
15.01.2017 20:46 -2,2 C 94 % 1020,5 hPa 0,0 l/m 10,4 km/h (2 Bft) W 266 0 min 0,000 mm 0,0 UV-I 0 W/m -3,0 C -6,2 C 16,1 km/h (3 Bft) 98,00 %
15.01.2017 20:48 -2,2 C 94 % 1020,5 hPa 0,0 l/m 9,5 km/h (2 Bft) SW 223 0 min 0,000 mm 0,0 UV-I 0 W/m -3,0 C -5,4 C 17,7 km/h (3 Bft) 97,22 %
15.01.2017 20:50 -2,2 C 94 % 1020,6 hPa 0,0 l/m 11,8 km/h (2 Bft) SW 225 0 min 0,000 mm 0,0 UV-I 0 W/m -3,0 C -7,4 C 16,1 km/h (3 Bft) 98,15 %
15.01.2017 20:52 -2,2 C 94 % 1020,6 hPa 0,0 l/m 8,5 km/h (2 Bft) SW 227 0 min 0,000 mm 0,0 UV-I 0 W/m -3,0 C -4,5 C 12,9 km/h (3 Bft) 96,23 %
15.01.2017 20:54 -2,2 C 94 % 1020,6 hPa 0,0 l/m 10,2 km/h (2 Bft) SW 224 0 min 0,000 mm 0,0 UV-I 0 W/m -3,0 C -6,1 C 17,7 km/h (3 Bft) 97,44 %
15.01.2017 20:56 -2,2 C 94 % 1020,6 hPa 0,0 l/m 8,6 km/h (2 Bft) SW 227 0 min 0,000 mm 0,0 UV-I 0 W/m -3,0 C -4,6 C 14,5 km/h (3 Bft) 98,21 %
15.01.2017 20:58 -2,2 C 94 % 1020,6 hPa 0,0 l/m 8,8 km/h (2 Bft) SW 235 0 min 0,000 mm 0,0 UV-I 0 W/m -3,0 C -4,8 C 14,5 km/h (3 Bft) 97,56 %
15.01.2017 21:00 -2,2 C 94 % 1020,6 hPa 0,0 l/m 9,0 km/h (2 Bft) SW 222 0 min 0,000 mm 0,0 UV-I 0 W/m -3,0 C -5,0 C 14,5 km/h (3 Bft) 97,87 %
15.01.2017 21:02 -2,2 C 94 % 1020,6 hPa 0,0 l/m 11,4 km/h (2 Bft) SW 219 0 min 0,000 mm 0,0 UV-I 0 W/m -3,0 C -7,1 C 14,5 km/h (3 Bft) 94,00 %
15.01.2017 21:04 -2,3 C 94 % 1020,6 hPa 0,0 l/m 7,0 km/h (2 Bft) W-SW 240 0 min 0,000 mm 0,0 UV-I 0 W/m -3,1 C -3,0 C 9,7 km/h (2 Bft) 94,74 %
15.01.2017 21:06 -2,3 C 94 % 1020,6 hPa 0,0 l/m 9,9 km/h (2 Bft) SW 231 0 min 0,000 mm 0,0 UV-I 0 W/m -3,1 C -5,9 C 16,1 km/h (3 Bft) 96,23 %
15.01.2017 21:08 -2,4 C 94 % 1020,6 hPa 0,0 l/m 9,5 km/h (2 Bft) SW 218 0 min 0,000 mm 0,0 UV-I 0 W/m -3,2 C -5,6 C 14,5 km/h (3 Bft) 95,45 %
15.01.2017 21:10 -2,4 C 94 % 1020,6 hPa 0,0 l/m 9,1 km/h (2 Bft) SW 223 0 min 0,000 mm 0,0 UV-I 0 W/m -3,2 C -5,3 C 14,5 km/h (3 Bft) 97,73 %
15.01.2017 21:12 -2,5 C 94 % 1020,6 hPa 0,0 l/m 9,9 km/h (2 Bft) SW 223 0 min 0,000 mm 0,0 UV-I 0 W/m -3,3 C -6,1 C 14,5 km/h (3 Bft) 96,23 %
15.01.2017 21:14 -2,6 C 94 % 1020,6 hPa 0,0 l/m 10,1 km/h (2 Bft) SW 215 0 min 0,000 mm 0,0 UV-I 0 W/m -3,4 C -6,4 C 16,1 km/h (3 Bft) 96,00 %
15.01.2017 21:16 -2,6 C 94 % 1020,6 hPa 0,0 l/m 8,7 km/h (2 Bft) SW 232 0 min 0,000 mm 0,0 UV-I 0 W/m -3,4 C -5,1 C 12,9 km/h (3 Bft) 100,00 %
15.01.2017 21:18 -2,6 C 94 % 1020,6 hPa 0,0 l/m 8,5 km/h (2 Bft) S-SW 207 0 min 0,000 mm 0,0 UV-I 0 W/m -3,4 C -4,9 C 12,9 km/h (3 Bft) 100,00 %
15.01.2017 21:20 -2,7 C 94 % 1020,6 hPa 0,0 l/m 9,0 km/h (2 Bft) W-SW 253 0 min 0,000 mm 0,0 UV-I 0 W/m -3,5 C -5,5 C 14,5 km/h (3 Bft) 100,00 %
15.01.2017 21:22 -2,7 C 94 % 1020,7 hPa 0,0 l/m 8,1 km/h (2 Bft) W-SW 238 0 min 0,000 mm 0,0 UV-I 0 W/m -3,5 C -4,6 C 14,5 km/h (3 Bft) 100,00 %
15.01.2017 21:24 -2,7 C 94 % 1020,7 hPa 0,0 l/m 8,4 km/h (2 Bft) S-SW 208 0 min 0,000 mm 0,0 UV-I 0 W/m -3,5 C -4,9 C 12,9 km/h (3 Bft) 97,73 %
15.01.2017 21:26 -2,7 C 94 % 1020,7 hPa 0,0 l/m 7,7 km/h (2 Bft) SW 219 0 min 0,000 mm 0,0 UV-I 0 W/m -3,5 C -4,2 C 11,3 km/h (2 Bft) 100,00 %
15.01.2017 21:28 -2,8 C 94 % 1020,7 hPa 0,0 l/m 8,5 km/h (2 Bft) SW 220 0 min 0,000 mm 0,0 UV-I 0 W/m -3,6 C -5,1 C 12,9 km/h (3 Bft) 100,00 %
15.01.2017 21:30 -2,8 C 94 % 1020,8 hPa 0,0 l/m 10,6 km/h (2 Bft) SW 232 0 min 0,000 mm 0,0 UV-I 0 W/m -3,6 C -7,1 C 16,1 km/h (3 Bft) 100,00 %
15.01.2017 21:32 -2,8 C 94 % 1020,7 hPa 0,0 l/m 9,4 km/h (2 Bft) SW 229 0 min 0,000 mm 0,0 UV-I 0 W/m -3,6 C -6,0 C 14,5 km/h (3 Bft) 100,00 %
15.01.2017 21:34 -2,8 C 94 % 1020,7 hPa 0,0 l/m 10,2 km/h (2 Bft) W-SW 248 0 min 0,000 mm 0,0 UV-I 0 W/m -3,6 C -6,7 C 14,5 km/h (3 Bft) 100,00 %
15.01.2017 21:36 -2,8 C 94 % 1020,8 hPa 0,0 l/m 10,9 km/h (2 Bft) SW 223 0 min 0,000 mm 0,0 UV-I 0 W/m -3,6 C -7,3 C 14,5 km/h (3 Bft) 100,00 %
15.01.2017 21:38 -2,8 C 94 % 1020,7 hPa 0,0 l/m 11,3 km/h (2 Bft) S-SW 208 0 min 0,000 mm 0,0 UV-I 0 W/m -3,6 C -7,7 C 16,1 km/h (3 Bft) 97,56 %
15.01.2017 21:40 -2,8 C 94 % 1020,7 hPa 0,0 l/m 7,8 km/h (2 Bft) S-SW 213 0 min 0,000 mm 0,0 UV-I 0 W/m -3,6 C -4,4 C 12,9 km/h (3 Bft) 100,00 %
15.01.2017 21:42 -2,9 C 94 % 1020,7 hPa 0,0 l/m 9,1 km/h (2 Bft) S-SW 208 0 min 0,000 mm 0,0 UV-I 0 W/m -3,7 C -5,8 C 14,5 km/h (3 Bft) 98,00 %
15.01.2017 21:44 -2,9 C 94 % 1020,7 hPa 0,0 l/m 8,6 km/h (2 Bft) W-SW 239 0 min 0,000 mm 0,0 UV-I 0 W/m -3,7 C -5,3 C 12,9 km/h (3 Bft) 100,00 %
15.01.2017 21:46 -2,9 C 94 % 1020,8 hPa 0,0 l/m 6,4 km/h (2 Bft) S-SW 204 0 min 0,000 mm 0,0 UV-I 0 W/m -3,7 C -2,9 C 8,0 km/h (2 Bft) 100,00 %
15.01.2017 21:48 -2,9 C 94 % 1020,7 hPa 0,0 l/m 9,8 km/h (2 Bft) S-SW 200 0 min 0,000 mm 0,0 UV-I 0 W/m -3,7 C -6,5 C 14,5 km/h (3 Bft) 100,00 %
15.01.2017 21:50 -2,9 C 94 % 1020,7 hPa 0,0 l/m 7,0 km/h (2 Bft) S-SW 211 0 min 0,000 mm 0,0 UV-I 0 W/m -3,7 C -3,6 C 11,3 km/h (2 Bft) 100,00 %
15.01.2017 21:52 -2,9 C 94 % 1020,7 hPa 0,0 l/m 7,5 km/h (2 Bft) S-SW 202 0 min 0,000 mm 0,0 UV-I 0 W/m -3,7 C -4,1 C 11,3 km/h (2 Bft) 100,00 %
15.01.2017 21:54 -2,8 C 94 % 1020,7 hPa 0,0 l/m 9,3 km/h (2 Bft) S-SW 206 0 min 0,000 mm 0,0 UV-I 0 W/m -3,6 C -5,9 C 14,5 km/h (3 Bft) 100,00 %
15.01.2017 21:56 -2,8 C 94 % 1020,7 hPa 0,0 l/m 7,7 km/h (2 Bft) S-SW 206 0 min 0,000 mm 0,0 UV-I 0 W/m -3,6 C -4,3 C 12,9 km/h (3 Bft) 97,73 %
15.01.2017 21:58 -2,8 C 94 % 1020,8 hPa 0,0 l/m 7,0 km/h (2 Bft) SW 219 0 min 0,000 mm 0,0 UV-I 0 W/m -3,6 C -3,5 C 11,3 km/h (2 Bft) 100,00 %
15.01.2017 22:00 -2,8 C 94 % 1020,7 hPa 0,0 l/m 6,9 km/h (2 Bft) SW 234 0 min 0,000 mm 0,0 UV-I 0 W/m -3,6 C -3,4 C 11,3 km/h (2 Bft) 100,00 %
15.01.2017 22:02 -2,8 C 94 % 1020,8 hPa 0,0 l/m 7,8 km/h (2 Bft) SW 225 0 min 0,000 mm 0,0 UV-I 0 W/m -3,6 C -4,4 C 11,3 km/h (2 Bft) 100,00 %
15.01.2017 22:04 -2,8 C 94 % 1020,8 hPa 0,0 l/m 9,2 km/h (2 Bft) SW 214 0 min 0,000 mm 0,0 UV-I 0 W/m -3,6 C -5,8 C 14,5 km/h (3 Bft) 100,00 %
15.01.2017 22:06 -2,8 C 94 % 1020,8 hPa 0,0 l/m 8,8 km/h (2 Bft) W-SW 237 0 min 0,000 mm 0,0 UV-I 0 W/m -3,6 C -5,4 C 14,5 km/h (3 Bft) 100,00 %
15.01.2017 22:08 -2,8 C 93 % 1020,8 hPa 0,0 l/m 10,3 km/h (2 Bft) SW 223 0 min 0,000 mm 0,0 UV-I 0 W/m -3,8 C -6,8 C 16,1 km/h (3 Bft) 100,00 %
15.01.2017 22:10 -2,8 C 93 % 1020,8 hPa 0,0 l/m 9,8 km/h (2 Bft) W-SW 255 0 min 0,000 mm 0,0 UV-I 0 W/m -3,8 C -6,4 C 14,5 km/h (3 Bft) 98,11 %
15.01.2017 22:12 -2,8 C 93 % 1020,8 hPa 0,0 l/m 8,6 km/h (2 Bft) W-SW 251 0 min 0,000 mm 0,0 UV-I 0 W/m -3,8 C -5,2 C 12,9 km/h (3 Bft) 97,67 %
15.01.2017 22:14 -2,8 C 93 % 1020,7 hPa 0,0 l/m 8,6 km/h (2 Bft) SW 232 0 min 0,000 mm 0,0 UV-I 0 W/m -3,8 C -5,2 C 14,5 km/h (3 Bft) 100,00 %
15.01.2017 22:16 -2,8 C 93 % 1020,7 hPa 0,0 l/m 8,9 km/h (2 Bft) W-SW 253 0 min 0,000 mm 0,0 UV-I 0 W/m -3,8 C -5,5 C 16,1 km/h (3 Bft) 100,00 %
15.01.2017 22:18 -2,8 C 93 % 1020,7 hPa 0,0 l/m 9,7 km/h (2 Bft) W-SW 238 0 min 0,000 mm 0,0 UV-I 0 W/m -3,8 C -6,3 C 16,1 km/h (3 Bft) 100,00 %
15.01.2017 22:20 -2,8 C 94 % 1020,7 hPa 0,0 l/m 10,6 km/h (2 Bft) W 269 0 min 0,000 mm 0,0 UV-I 0 W/m -3,6 C -7,1 C 14,5 km/h (3 Bft) 97,73 %
15.01.2017 22:22 -2,8 C 94 % 1020,6 hPa 0,0 l/m 8,6 km/h (2 Bft) W-SW 242 0 min 0,000 mm 0,0 UV-I 0 W/m -3,6 C -5,2 C 14,5 km/h (3 Bft) 100,00 %
15.01.2017 22:24 -2,9 C 93 % 1020,6 hPa 0,0 l/m 11,2 km/h (2 Bft) SW 234 0 min 0,000 mm 0,0 UV-I 0 W/m -3,9 C -7,7 C 16,1 km/h (3 Bft) 96,55 %
15.01.2017 22:26 -2,9 C 93 % 1020,6 hPa 0,0 l/m 11,0 km/h (2 Bft) S-SW 209 0 min 0,000 mm 0,0 UV-I 0 W/m -3,9 C -7,5 C 16,1 km/h (3 Bft) 100,00 %
15.01.2017 22:28 -2,9 C 93 % 1020,6 hPa 0,0 l/m 10,5 km/h (2 Bft) W-SW 249 0 min 0,000 mm 0,0 UV-I 0 W/m -3,9 C -7,1 C 16,1 km/h (3 Bft) 100,00 %
15.01.2017 22:30 -3,0 C 93 % 1020,6 hPa 0,0 l/m 8,8 km/h (2 Bft) S-SW 199 0 min 0,000 mm 0,0 UV-I 0 W/m -4,0 C -5,6 C 11,3 km/h (2 Bft) 100,00 %
15.01.2017 22:32 -3,1 C 93 % 1020,6 hPa 0,0 l/m 7,3 km/h (2 Bft) SW 219 0 min 0,000 mm 0,0 UV-I 0 W/m -4,1 C -4,1 C 12,9 km/h (3 Bft) 100,00 %
15.01.2017 22:34 -3,1 C 93 % 1020,6 hPa 0,0 l/m 8,0 km/h (2 Bft) S-SW 198 0 min 0,000 mm 0,0 UV-I 0 W/m -4,1 C -4,9 C 12,9 km/h (3 Bft) 100,00 %
15.01.2017 22:36 -3,1 C 93 % 1020,6 hPa 0,0 l/m 6,9 km/h (2 Bft) S-SW 209 0 min 0,000 mm 0,0 UV-I 0 W/m -4,1 C -3,7 C 9,7 km/h (2 Bft) 100,00 %
15.01.2017 22:38 -3,2 C 93 % 1020,6 hPa 0,0 l/m 8,1 km/h (2 Bft) S-SW 201 0 min 0,000 mm 0,0 UV-I 0 W/m -4,2 C -5,1 C 12,9 km/h (3 Bft) 100,00 %
15.01.2017 22:40 -3,2 C 93 % 1020,5 hPa 0,0 l/m 7,6 km/h (2 Bft) SW 221 0 min 0,000 mm 0,0 UV-I 0 W/m -4,2 C -4,6 C 11,3 km/h (2 Bft) 98,00 %
15.01.2017 22:42 -3,2 C 93 % 1020,6 hPa 0,0 l/m 7,4 km/h (2 Bft) SW 221 0 min 0,000 mm 0,0 UV-I 0 W/m -4,2 C -4,3 C 9,7 km/h (2 Bft) 100,00 %
15.01.2017 22:44 -3,2 C 93 % 1020,6 hPa 0,0 l/m 7,6 km/h (2 Bft) S-SW 205 0 min 0,000 mm 0,0 UV-I 0 W/m -4,2 C -4,6 C 11,3 km/h (2 Bft) 100,00 %
15.01.2017 22:46 -3,3 C 93 % 1020,7 hPa 0,0 l/m 7,2 km/h (2 Bft) SW 236 0 min 0,000 mm 0,0 UV-I 0 W/m -4,3 C -4,2 C 11,3 km/h (2 Bft) 97,56 %
15.01.2017 22:48 -3,3 C 93 % 1020,7 hPa 0,0 l/m 6,4 km/h (2 Bft) SW 214 0 min 0,000 mm 0,0 UV-I 0 W/m -4,3 C -3,2 C 9,7 km/h (2 Bft) 100,00 %
15.01.2017 22:50 -3,3 C 93 % 1020,6 hPa 0,0 l/m 4,9 km/h (1 Bft) SW 216 0 min 0,000 mm 0,0 UV-I 0 W/m -4,3 C -3,3 C 8,0 km/h (2 Bft) 100,00 %
15.01.2017 22:52 -3,4 C 93 % 1020,7 hPa 0,0 l/m 6,4 km/h (2 Bft) SW 215 0 min 0,000 mm 0,0 UV-I 0 W/m -4,4 C -3,3 C 9,7 km/h (2 Bft) 100,00 %
15.01.2017 22:54 -3,4 C 93 % 1020,7 hPa 0,0 l/m 6,4 km/h (2 Bft) S-SW 203 0 min 0,000 mm 0,0 UV-I 0 W/m -4,4 C -3,3 C 9,7 km/h (2 Bft) 97,44 %
15.01.2017 22:56 -3,4 C 93 % 1020,7 hPa 0,0 l/m 5,8 km/h (2 Bft) SW 228 0 min 0,000 mm 0,0 UV-I 0 W/m -4,4 C -3,4 C 8,0 km/h (2 Bft) 96,23 %
15.01.2017 22:58 -3,5 C 93 % 1020,7 hPa 0,0 l/m 5,7 km/h (1 Bft) SW 236 0 min 0,000 mm 0,0 UV-I 0 W/m -4,5 C -3,5 C 8,0 km/h (2 Bft) 97,87 %
15.01.2017 23:00 -3,6 C 93 % 1020,8 hPa 0,0 l/m 6,4 km/h (2 Bft) SW 220 0 min 0,000 mm 0,0 UV-I 0 W/m -4,6 C -3,5 C 9,7 km/h (2 Bft) 98,08 %
15.01.2017 23:02 -3,6 C 93 % 1020,7 hPa 0,0 l/m 5,6 km/h (1 Bft) SW 225 0 min 0,000 mm 0,0 UV-I 0 W/m -4,6 C -3,6 C 8,0 km/h (2 Bft) 95,12 %
15.01.2017 23:04 -3,6 C 93 % 1020,8 hPa 0,0 l/m 6,1 km/h (2 Bft) SW 231 0 min 0,000 mm 0,0 UV-I 0 W/m -4,6 C -3,6 C 8,0 km/h (2 Bft) 94,74 %
15.01.2017 23:06 -3,7 C 93 % 1020,8 hPa 0,0 l/m 5,8 km/h (2 Bft) SW 223 0 min 0,000 mm 0,0 UV-I 0 W/m -4,7 C -3,7 C 8,0 km/h (2 Bft) 98,21 %
15.01.2017 23:08 -3,7 C 93 % 1020,8 hPa 0,0 l/m 6,4 km/h (2 Bft) SW 223 0 min 0,000 mm 0,0 UV-I 0 W/m -4,7 C -3,6 C 8,0 km/h (2 Bft) 97,73 %
15.01.2017 23:10 -3,7 C 93 % 1020,8 hPa 0,0 l/m 6,3 km/h (2 Bft) SW 227 0 min 0,000 mm 0,0 UV-I 0 W/m -4,7 C -3,7 C 9,7 km/h (2 Bft) 96,00 %
15.01.2017 23:12 -3,6 C 93 % 1020,7 hPa 0,0 l/m 5,9 km/h (2 Bft) SW 217 0 min 0,000 mm 0,0 UV-I 0 W/m -4,6 C -3,6 C 8,0 km/h (2 Bft) 96,00 %
15.01.2017 23:14 -3,6 C 94 % 1020,8 hPa 0,0 l/m 5,7 km/h (1 Bft) SW 232 0 min 0,000 mm 0,0 UV-I 0 W/m -4,4 C -3,6 C 8,0 km/h (2 Bft) 97,37 %
15.01.2017 23:16 -3,6 C 94 % 1020,7 hPa 0,0 l/m 6,4 km/h (2 Bft) S-SW 196 0 min 0,000 mm 0,0 UV-I 0 W/m -4,4 C -3,5 C 8,0 km/h (2 Bft) 94,00 %
15.01.2017 23:18 -3,6 C 94 % 1020,8 hPa 0,0 l/m 5,7 km/h (1 Bft) S-SW 213 0 min 0,000 mm 0,0 UV-I 0 W/m -4,4 C -3,6 C 6,4 km/h (2 Bft) 97,56 %
15.01.2017 23:20 -3,5 C 94 % 1020,7 hPa 0,0 l/m 6,9 km/h (2 Bft) SW 223 0 min 0,000 mm 0,0 UV-I 0 W/m -4,3 C -4,1 C 11,3 km/h (2 Bft) 98,00 %
15.01.2017 23:22 -3,4 C 93 % 1020,7 hPa 0,0 l/m 6,2 km/h (2 Bft) SW 226 0 min 0,000 mm 0,0 UV-I 0 W/m -4,4 C -3,4 C 8,0 km/h (2 Bft) 97,56 %
15.01.2017 23:24 -3,4 C 93 % 1020,8 hPa 0,0 l/m 7,4 km/h (2 Bft) S-SW 209 0 min 0,000 mm 0,0 UV-I 0 W/m -4,4 C -4,5 C 11,3 km/h (2 Bft) 98,11 %
15.01.2017 23:26 -3,3 C 93 % 1020,7 hPa 0,0 l/m 7,7 km/h (2 Bft) S-SW 210 0 min 0,000 mm 0,0 UV-I 0 W/m -4,3 C -4,8 C 11,3 km/h (2 Bft) 96,43 %
15.01.2017 23:28 -3,3 C 93 % 1020,7 hPa 0,0 l/m 7,6 km/h (2 Bft) SW 218 0 min 0,000 mm 0,0 UV-I 0 W/m -4,3 C -4,7 C 11,3 km/h (2 Bft) 97,87 %
15.01.2017 23:30 -3,3 C 93 % 1020,8 hPa 0,0 l/m 7,2 km/h (2 Bft) S-SW 211 0 min 0,000 mm 0,0 UV-I 0 W/m -4,3 C -4,2 C 14,5 km/h (3 Bft) 100,00 %
15.01.2017 23:32 -3,2 C 93 % 1020,7 hPa 0,0 l/m 9,8 km/h (2 Bft) SW 216 0 min 0,000 mm 0,0 UV-I 0 W/m -4,2 C -6,8 C 14,5 km/h (3 Bft) 100,00 %
15.01.2017 23:34 -3,2 C 93 % 1020,8 hPa 0,0 l/m 8,4 km/h (2 Bft) S-SW 204 0 min 0,000 mm 0,0 UV-I 0 W/m -4,2 C -5,4 C 11,3 km/h (2 Bft) 100,00 %
15.01.2017 23:36 -3,2 C 93 % 1020,7 hPa 0,0 l/m 9,5 km/h (2 Bft) SW 226 0 min 0,000 mm 0,0 UV-I 0 W/m -4,2 C -6,5 C 12,9 km/h (3 Bft) 97,56 %
15.01.2017 23:38 -3,1 C 93 % 1020,7 hPa 0,0 l/m 9,6 km/h (2 Bft) S-SW 198 0 min 0,000 mm 0,0 UV-I 0 W/m -4,1 C -6,5 C 14,5 km/h (3 Bft) 96,23 %
15.01.2017 23:40 -3,1 C 93 % 1020,7 hPa 0,0 l/m 9,0 km/h (2 Bft) S-SW 197 0 min 0,000 mm 0,0 UV-I 0 W/m -4,1 C -5,9 C 12,9 km/h (3 Bft) 100,00 %
15.01.2017 23:42 -3,1 C 93 % 1020,6 hPa 0,0 l/m 11,4 km/h (2 Bft) SW 219 0 min 0,000 mm 0,0 UV-I 0 W/m -4,1 C -8,1 C 16,1 km/h (3 Bft) 100,00 %
15.01.2017 23:44 -3,0 C 93 % 1020,6 hPa 0,0 l/m 10,9 km/h (2 Bft) S-SW 211 0 min 0,000 mm 0,0 UV-I 0 W/m -4,0 C -7,6 C 14,5 km/h (3 Bft) 100,00 %
15.01.2017 23:46 -3,1 C 93 % 1020,6 hPa 0,0 l/m 10,0 km/h (2 Bft) S-SW 209 0 min 0,000 mm 0,0 UV-I 0 W/m -4,1 C -6,9 C 14,5 km/h (3 Bft) 100,00 %
15.01.2017 23:48 -3,1 C 93 % 1020,6 hPa 0,0 l/m 9,4 km/h (2 Bft) S-SW 207 0 min 0,000 mm 0,0 UV-I 0 W/m -4,1 C -6,3 C 14,5 km/h (3 Bft) 100,00 %
15.01.2017 23:50 -3,0 C 93 % 1020,6 hPa 0,0 l/m 9,8 km/h (2 Bft) SW 225 0 min 0,000 mm 0,0 UV-I 0 W/m -4,0 C -6,6 C 14,5 km/h (3 Bft) 100,00 %
15.01.2017 23:52 -3,0 C 93 % 1020,7 hPa 0,0 l/m 8,1 km/h (2 Bft) SW 219 0 min 0,000 mm 0,0 UV-I 0 W/m -4,0 C -4,9 C 12,9 km/h (3 Bft) 98,11 %
15.01.2017 23:54 -3,0 C 92 % 1020,6 hPa 0,0 l/m 8,2 km/h (2 Bft) W-SW 239 0 min 0,000 mm 0,0 UV-I 0 W/m -4,1 C -5,0 C 11,3 km/h (2 Bft) 100,00 %
15.01.2017 23:56 -3,1 C 92 % 1020,6 hPa 0,0 l/m 8,4 km/h (2 Bft) SW 220 0 min 0,000 mm 0,0 UV-I 0 W/m -4,2 C -5,3 C 12,9 km/h (3 Bft) 100,00 %
15.01.2017 23:58 -3,1 C 92 % 1020,6 hPa 0,0 l/m 8,4 km/h (2 Bft) SW 229 0 min 0,000 mm 0,0 UV-I 0 W/m -4,2 C -5,3 C 14,5 km/h (3 Bft) 100,00 %
_ Min-Zeit 23:04 11:42 00:04 - 22:50 - - - - - - 23:06 07:14 23:18 19:24
Minimum _ -3,7 C 82 % 1015,0 hPa - 4,9 km/h (1 Bft) - - - - - - -4,7 C -12,9 C 6,4 km/h (2 Bft) 90,91 %
_ Max-Zeit 11:42 00:14 21:30 10:48 11:50 - - 09:06 12:02 11:30 11:40 11:22 17:20 09:18 00:00
Maximum _ 0,5 C 94 % 1020,8 hPa 0,2 l/m 22,6 km/h
W-SW (4 Bft)
- - 2 min 0,127 mm 0,6 UV-I 560 W/m -2,0 C -1,7 C 33,8 km/h
SW (5 Bft)
100,00 %
Durchschnitt _ -1,7 C 90 % 1018,3 hPa #0,6 l/m 12,8 km/h (3 Bft) SW - #2:42 h #0,533 mm 0,5 UV-I 138 W/m -3,2 C -7,2 C 19,4 km/h (3 Bft) 98,75 %